GFSWCAN_700_spd_000.txt.gz
Wind_Speed
56 55 52 48 44 41 38 35 33 30 28 28 28 31 33 35 40 32 23 26 14 22 24 25 23 21 20 19 19 18 18 16 14 18 17 16 11 13 14 18 17 14 8 12 12 11 12 16 19 18 17 16 22 23
53 50 48 44 41 38 36 34 31 30 29 27 28 32 33 38 42 31 19 17 15 18 20 21 20 19 17 19 18 14 12 10 11 13 17 16 15 16 17 17 18 16 19 15 14 13 17 22 23 22 21 27 28 30
46 46 44 41 38 36 34 32 28 30 31 29 28 29 31 34 23 26 13 14 16 16 17 22 21 19 19 17 17 14 14 15 16 15 15 14 15 16 18 18 20 20 18 23 25 25 23 24 26 28 29 31 31 30
44 42 41 39 36 35 33 29 26 28 32 30 29 29 27 27 26 24 22 17 18 18 15 22 20 18 18 18 17 17 16 15 16 17 17 19 20 17 19 20 16 16 20 25 28 27 27 25 27 28 30 31 30 31
41 41 39 37 36 33 32 30 27 25 26 29 29 29 30 30 28 24 21 20 20 19 19 21 21 19 19 18 17 16 14 16 17 19 19 19 20 21 24 23 23 22 23 24 25 20 23 26 26 28 30 30 30 32
38 37 38 36 39 35 30 28 26 26 25 24 24 26 26 25 24 22 22 21 19 21 10 19 20 22 20 18 16 15 14 15 17 18 19 21 22 23 18 21 24 22 21 21 24 25 28 28 27 26 28 28 29 29
37 36 36 33 38 32 29 27 27 25 24 23 23 23 23 24 23 22 21 21 20 18 17 14 14 19 18 17 16 15 14 15 17 19 22 24 25 27 32 33 24 24 24 26 27 29 30 28 31 31 30 29 27 25
39 34 27 27 41 35 28 28 27 26 23 21 20 21 21 22 22 21 20 19 19 18 17 15 11 14 15 16 17 17 18 19 23 26 27 28 30 31 36 33 30 28 28 29 31 32 34 35 34 33 31 29 28 30
42 33 25 21 28 38 32 28 28 27 26 26 25 23 22 21 20 20 20 19 18 18 16 15 16 15 15 15 17 19 22 24 27 29 29 30 34 32 30 33 34 34 35 36 35 34 34 33 32 32 31 28 29 26
32 31 28 23 20 25 30 26 28 28 27 27 25 24 22 21 19 19 19 20 22 22 22 19 18 18 20 22 23 23 25 24 23 25 24 29 36 35 35 36 35 34 33 33 32 32 31 31 30 30 30 27 32 26
28 26 25 26 26 27 26 26 24 23 23 25 25 23 21 19 20 21 19 17 20 22 24 25 25 28 27 26 25 24 19 16 21 20 23 27 30 32 30 30 30 30 29 28 28 28 27 26 27 25 27 19 18 21
26 27 25 21 18 19 19 20 20 21 22 22 21 20 20 19 17 13 13 13 14 14 18 20 21 23 26 25 22 20 19 13 12 15 15 16 25 25 25 25 25 25 26 29 27 24 22 19 14 13 13 12 11 13
15 15 19 25 30 21 19 17 17 20 21 19 19 18 11 14 14 10 13 9 15 20 19 14 13 13 14 15 16 14 10 14 18 13 10 18 22 22 23 26 25 24 23 19 19 15 13 7 8 10 12 16 21 24
15 16 16 15 14 14 15 18 21 22 20 21 20 16 11 8 9 15 18 19 19 16 14 12 13 9 13 11 12 7 10 8 7 7 10 13 12 15 13 15 15 13 10 8 9 10 11 12 15 19 21 22 25 28
10 11 11 11 13 13 12 12 13 15 16 13 12 10 12 12 9 9 12 14 14 14 13 11 12 12 10 10 6 7 5 5 6 6 9 9 15 13 9 7 7 6 7 8 11 14 14 15 18 20 24 27 31 31
10 9 10 10 12 11 11 11 11 13 16 9 8 7 8 11 10 9 8 8 9 11 11 13 12 7 11 8 9 9 5 5 6 8 9 11 13 9 6 5 7 8 9 13 16 16 17 20 24 26 28 28 27 28
11 11 10 9 10 10 10 10 11 12 8 5 7 9 8 8 8 8 7 7 7 9 12 9 6 9 5 5 5 5 6 8 7 6 8 11 12 14 10 10 13 14 14 15 18 21 23 24 23 24 25 25 27 28
13 12 11 11 10 10 9 8 7 5 6 6 6 6 7 7 6 6 5 4 4 4 5 9 8 8 5 6 9 10 10 9 7 8 8 8 9 8 10 12 14 16 18 20 21 21 22 23 25 27 28 29 30 31
8 7 6 6 6 5 5 5 3 4 5 6 6 6 6 6 6 6 5 5 5 4 5 5 5 7 9 11 11 9 9 9 7 8 8 9 10 13 16 18 19 19 21 22 22 23 25 26 27 29 31 33 36 39
1 1 2 1 1 1 2 2 5 5 6 8 10 10 10 10 10 10 10 10 10 10 9 8 9 9 10 11 10 10 10 11 12 12 13 14 16 17 18 19 20 21 22 22 23 24 25 27 29 33 37 39 40 42
5 6 7 7 8 7 6 6 6 6 7 11 13 15 17 17 17 17 17 17 17 16 12 11 10 11 12 13 13 14 14 14 14 14 14 15 17 19 19 20 20 21 21 21 23 25 29 34 37 39 41 43 45 47
8 9 9 10 9 8 7 8 9 9 11 14 14 14 17 18 18 17 16 17 18 16 13 12 12 14 16 17 17 17 17 17 14 14 16 19 19 20 19 19 18 19 22 25 29 34 39 41 43 45 46 48 50 51
11 12 12 12 9 5 4 6 7 7 8 11 12 14 18 18 17 16 18 21 22 21 19 17 16 17 18 18 17 14 17 19 19 20 19 18 17 16 16 18 21 25 29 32 37 42 44 45 47 48 50 51 52 53
13 10 8 4 3 5 9 9 9 10 13 12 13 14 14 15 15 16 19 19 19 16 15 15 15 16 17 18 17 19 20 22 22 19 17 16 17 19 22 25 29 32 37 41 43 44 46 47 48 49 51 52 50 49
6 3 1 3 4 7 9 11 10 10 10 12 16 14 14 11 13 16 17 16 15 14 13 14 15 15 16 18 19 19 18 18 17 16 17 19 22 26 29 33 37 40 41 42 43 44 45 47 48 46 44 44 44 42
1 1 2 2 6 9 11 12 13 15 15 16 12 13 14 15 16 10 16 15 15 14 13 13 15 16 16 15 15 15 15 15 16 19 22 26 29 32 35 38 39 40 42 44 45 45 43 41 40 41 39 38 37 37
2 2 2 7 9 10 14 14 12 14 16 14 13 15 17 7 7 11 14 14 12 12 12 11 10 10 12 12 12 14 17 19 22 26 29 32 35 38 39 40 40 42 43 42 40 38 37 37 38 38 37 37 38 36
2 5 8 9 11 9 8 9 11 7 5 7 10 9 5 4 5 6 5 5 7 8 9 9 10 13 15 17 19 23 25 28 30 32 35 36 36 36 38 40 41 39 37 36 36 35 35 37 37 36 36 36 36 36
8 9 6 5 4 6 7 8 7 7 9 9 9 9 8 9 8 7 6 6 8 10 12 14 16 19 23 26 29 30 30 32 33 32 32 32 34 37 37 35 34 35 34 33 33 33 35 36 34 33 35 35 35 35
5 5 6 5 5 6 6 8 8 8 8 9 9 9 10 10 11 12 12 13 15 17 19 22 24 26 27 28 28 28 28 26 27 29 32 35 33 32 34 35 35 33 32 30 30 32 33 31 31 32 32 32 31 30
7 9 12 13 13 12 12 11 12 13 14 14 14 15 16 17 18 18 19 20 22 23 25 26 25 25 24 24 23 24 25 27 30 33 31 31 33 34 33 32 30 28 28 28 30 29 29 31 31 30 29 28 27 26
15 15 16 16 16 14 15 15 15 15 15 16 18 19 18 19 21 24 22 22 21 20 21 21 20 22 23 24 23 27 30 32 30 29 31 32 32 31 29 27 26 27 27 26 27 29 30 30 28 28 27 26 25 24
17 16 15 15 14 14 13 14 17 20 20 20 21 21 21 20 22 20 18 16 17 18 19 21 23 23 24 27 28 30 30 29 30 31 31 30 29 27 27 26 26 24 24 26 28 29 29 28 27 26 26 25 24 23

GFSWCAN_700_spd_003.txt.gz
Wind_Speed
50 46 53 50 46 42 40 38 37 35 34 34 35 36 38 40 41 38 32 25 22 21 17 20 27 33 28 26 23 22 20 19 15 15 13 12 9 11 10 14 14 12 6 8 8 7 7 9 9 10 13 21 23 24
50 53 50 44 42 40 38 36 33 30 30 30 31 33 36 38 38 35 30 24 17 18 18 24 29 24 24 25 22 20 19 14 15 13 14 11 12 14 16 15 16 14 15 10 9 9 13 21 24 23 24 23 24 28
52 50 47 45 40 38 36 33 32 31 29 28 29 31 33 35 38 41 24 17 17 18 22 26 25 23 23 18 18 18 18 15 16 15 15 14 15 15 15 15 16 17 15 19 21 22 21 23 25 25 25 27 28 30
47 44 41 39 37 35 32 30 33 30 28 26 27 31 34 38 39 27 24 20 17 20 23 29 26 22 21 19 16 15 14 13 13 14 16 18 19 16 16 16 14 15 19 24 26 25 23 21 23 24 25 26 27 29
41 39 39 38 35 32 30 29 31 31 29 27 29 31 33 30 24 30 26 19 16 17 20 26 22 19 18 15 14 15 15 14 13 15 17 17 18 19 20 19 19 20 20 20 21 17 20 23 24 26 28 28 27 29
41 39 36 34 32 29 27 27 31 27 28 29 30 33 32 29 25 20 19 19 18 21 16 25 22 21 18 16 16 14 14 13 13 13 15 17 18 18 13 14 20 18 20 21 23 23 24 24 23 25 28 29 31 32
36 34 32 31 30 29 29 24 26 26 27 31 27 28 26 26 23 24 23 21 19 19 13 20 21 21 20 18 15 14 13 12 12 13 16 18 19 21 25 27 22 22 24 24 25 26 26 27 29 31 32 32 31 28
35 31 32 29 29 26 31 27 24 23 22 21 22 20 21 22 21 20 19 21 20 19 17 13 11 18 19 17 16 14 14 15 17 20 21 23 25 26 29 22 25 25 26 26 28 29 31 32 33 34 33 29 28 29
30 30 30 30 30 27 22 22 22 22 21 21 21 21 18 18 17 17 18 17 17 18 16 14 14 14 14 14 14 16 17 21 24 25 25 26 29 27 23 26 29 30 31 31 32 33 32 32 34 32 29 28 23 23
27 26 23 21 32 32 26 23 22 21 19 16 14 14 14 13 13 14 14 16 17 18 18 16 14 15 14 16 18 19 20 20 19 21 20 24 30 27 27 29 29 30 30 30 28 28 27 28 29 29 26 26 26 26
26 23 20 16 12 35 30 27 24 21 19 17 15 17 15 15 15 13 13 11 12 12 15 19 19 18 20 22 23 22 16 14 17 19 20 19 21 26 28 27 28 29 28 26 26 26 26 28 25 26 22 21 13 12
25 24 21 17 15 15 34 25 25 25 22 19 18 16 15 14 15 13 13 11 9 11 15 18 21 23 26 26 24 19 19 11 10 13 12 11 20 25 26 25 25 24 25 27 27 27 22 16 14 10 7 9 11 15
24 23 21 20 17 17 15 19 24 23 20 18 17 15 11 13 13 12 12 12 17 21 20 19 18 19 18 17 13 11 9 10 14 9 9 15 18 23 21 24 22 19 18 16 13 11 9 11 14 16 17 18 20 22
20 19 17 19 18 17 20 19 19 20 20 21 18 14 11 8 10 15 19 21 19 18 16 15 14 10 14 12 12 7 10 9 8 8 10 15 16 14 14 12 11 11 10 10 11 11 12 11 12 14 16 17 19 20
10 11 11 10 10 14 18 18 16 17 20 15 11 9 13 12 10 8 12 18 19 15 13 13 14 13 11 8 8 8 6 6 7 7 9 10 11 11 9 11 8 7 7 7 8 11 12 14 16 18 20 20 21 22
9 9 9 10 11 11 10 10 10 11 17 10 9 6 8 10 10 10 9 10 9 9 8 10 10 8 11 7 7 8 5 5 6 6 6 7 9 10 9 9 8 8 7 8 12 15 16 17 18 20 21 23 24 24
10 9 9 9 9 10 10 10 12 12 5 2 4 6 8 9 9 9 8 8 8 9 11 8 6 8 5 6 7 6 6 7 5 2 2 5 8 10 12 11 9 7 10 13 15 18 20 21 21 22 21 22 23 26
13 12 10 9 9 10 10 10 8 5 5 4 6 7 7 7 8 7 7 7 7 7 8 10 8 8 5 3 4 5 6 5 2 1 3 5 7 8 8 9 11 13 15 17 20 22 22 21 22 24 25 27 28 30
12 12 11 10 9 9 9 8 6 5 6 6 6 6 6 6 6 5 6 6 6 7 7 6 5 5 7 8 8 7 6 6 6 6 6 7 8 9 13 15 16 17 19 20 20 20 21 23 25 27 29 33 36 38
6 6 6 5 5 4 4 4 3 3 3 3 4 4 4 4 4 5 6 6 6 7 7 7 9 9 9 9 9 8 9 9 10 11 12 12 13 16 17 19 20 20 20 20 20 20 21 23 26 31 36 39 41 44
5 5 4 5 4 4 2 2 2 2 2 5 7 9 11 13 13 13 14 15 16 15 10 10 10 11 11 10 11 10 11 12 14 14 15 16 17 18 19 20 20 19 19 18 19 21 25 30 34 39 42 45 47 49
8 9 9 8 7 5 3 5 5 6 6 7 9 11 13 14 15 16 17 18 20 18 13 11 12 12 13 13 14 14 16 16 16 15 15 15 18 20 20 19 18 18 18 21 24 29 33 37 41 44 46 48 49 51
12 12 12 9 4 1 2 2 2 3 3 6 9 11 12 13 13 14 15 15 17 17 16 16 16 16 15 16 17 16 17 16 18 15 18 21 22 20 19 18 19 21 24 28 32 36 40 42 44 47 49 49 48 45
12 8 5 4 4 4 4 3 2 4 5 6 7 9 10 11 11 10 11 10 12 12 13 14 15 17 19 20 21 22 16 16 19 22 24 22 19 18 18 20 24 27 31 35 38 40 42 45 46 46 43 40 39 39
4 4 5 6 5 5 5 6 7 6 6 7 9 8 9 9 10 11 13 14 12 11 11 10 9 11 12 13 16 17 19 20 20 20 18 16 16 19 23 27 31 34 36 38 39 41 43 43 40 37 36 36 37 36
4 4 4 4 4 3 3 7 6 7 8 10 5 8 12 13 8 7 13 13 12 10 9 9 11 10 12 12 14 16 15 14 14 15 17 20 23 27 30 32 34 36 39 41 42 41 38 36 35 34 33 35 34 33
4 3 2 3 4 4 5 4 5 7 6 5 7 9 7 4 4 8 11 11 9 8 8 9 9 10 9 10 12 12 13 16 19 22 25 27 29 32 34 35 36 38 40 39 36 35 35 35 34 33 34 34 32 33
4 2 4 5 5 4 2 5 7 4 3 4 7 5 4 4 5 6 7 6 5 5 7 9 11 12 13 14 17 20 23 24 26 28 30 31 31 33 35 37 39 37 34 35 36 37 35 34 33 33 32 31 32 31
7 7 6 4 3 3 3 3 4 6 8 9 9 9 8 9 9 9 8 8 9 11 12 14 16 19 21 24 27 28 29 29 29 29 30 31 33 35 37 35 33 34 34 35 35 33 31 32 32 31 31 32 30 30
5 5 7 7 8 6 5 7 9 9 10 10 11 12 12 12 13 13 14 14 15 17 18 20 22 24 26 28 28 28 27 27 28 28 29 32 35 33 31 32 32 33 32 30 29 30 30 29 30 31 32 31 29 29
7 10 11 12 12 12 12 12 13 14 14 15 16 16 16 17 17 18 19 19 20 21 22 23 24 23 23 23 23 24 25 25 27 30 33 33 31 31 32 32 32 31 30 29 29 27 26 28 30 29 29 28 27 26
13 14 14 14 14 13 14 14 14 14 15 16 17 18 18 18 21 23 21 20 19 19 20 21 20 20 21 23 24 25 27 29 31 31 30 31 32 32 31 30 29 29 28 27 26 26 28 29 29 28 27 26 25 25
14 12 12 12 12 13 13 15 17 18 18 18 19 18 18 18 19 16 15 15 15 16 17 19 20 21 23 24 25 26 27 29 31 32 31 30 29 28 28 27 27 27 27 26 26 28 28 28 27 27 26 25 24 24

GFSWCAN_700_spd_006.txt.gz
Wind_Speed
37 35 32 50 44 57 51 52 48 48 49 48 49 49 49 47 45 43 39 33 25 22 19 18 29 30 37 33 29 24 21 21 18 15 13 10 9 10 10 11 8 7 5 6 7 6 6 7 5 5 10 20 26 23
38 51 64 62 51 53 51 49 45 43 43 43 44 45 46 45 43 41 36 31 27 23 17 19 25 23 32 34 29 25 23 16 20 15 14 9 10 9 11 8 11 10 12 8 7 6 12 18 19 19 21 24 25 26
49 54 55 52 48 44 40 39 39 39 39 39 40 42 43 43 42 40 34 27 26 22 20 21 24 24 31 29 29 26 24 23 18 18 15 13 13 11 13 13 14 15 13 15 17 17 16 20 23 23 23 23 23 25
56 52 48 45 44 42 38 37 36 35 35 35 37 39 41 42 40 38 36 31 26 21 19 25 27 27 25 28 27 25 22 20 16 15 16 16 17 14 15 15 14 15 17 19 21 20 20 20 20 21 22 25 27 28
48 46 42 40 38 37 37 35 34 33 33 34 35 38 40 41 41 40 36 33 19 21 20 28 30 26 27 27 20 19 17 17 15 15 16 17 18 16 16 15 16 16 15 15 16 14 19 21 22 24 24 25 26 29
43 40 37 37 36 34 34 33 32 32 34 35 36 37 39 40 41 36 34 24 21 16 19 30 29 28 24 23 21 18 16 15 15 13 14 14 14 13 9 11 13 13 15 19 22 22 21 23 23 23 25 28 30 32
39 37 35 33 33 35 31 31 31 30 32 35 37 36 36 34 33 33 19 20 20 16 14 24 24 25 25 23 19 16 15 14 14 14 14 13 13 14 17 18 18 20 21 22 23 23 23 23 25 26 29 31 32 33
36 36 33 29 34 29 35 31 30 30 30 32 33 34 35 36 30 33 23 20 19 16 16 17 18 27 25 22 18 16 15 15 16 16 16 17 18 19 19 18 21 22 21 23 25 26 26 27 29 28 30 33 29 28
30 29 29 31 31 24 31 31 32 35 33 30 27 29 31 25 21 18 18 21 23 19 15 11 18 17 23 20 18 17 17 18 18 21 21 22 24 22 20 21 23 24 25 26 27 29 30 30 28 25 26 28 26 24
27 26 24 22 24 27 28 26 23 23 31 33 29 30 27 24 21 19 23 26 23 20 17 16 17 16 15 18 19 18 18 16 17 19 20 24 29 26 25 26 26 27 26 24 23 24 23 24 25 26 28 25 26 23
21 20 21 16 16 30 28 27 25 26 28 22 24 21 21 24 23 21 14 17 13 13 18 18 16 15 17 18 18 18 15 12 16 18 19 20 23 23 24 24 24 22 21 20 20 21 22 23 22 19 17 14 10 10
17 17 17 14 11 27 26 20 21 20 18 17 15 15 18 15 9 8 11 11 8 12 12 16 19 20 19 20 21 18 18 11 10 18 14 13 23 24 24 22 21 21 19 19 16 14 14 13 12 9 9 10 11 12
14 15 15 14 12 18 26 27 24 24 21 21 15 13 9 9 8 8 11 12 13 12 14 17 23 26 27 26 20 12 9 12 15 9 9 19 20 19 18 15 17 15 12 10 7 8 9 9 9 9 10 11 12 14
13 15 15 13 14 15 24 27 24 24 21 23 18 12 10 6 9 13 17 18 17 18 19 20 21 19 19 16 12 7 10 8 7 9 15 18 15 13 13 14 12 10 10 10 9 8 8 10 11 13 15 16 16 16
17 17 16 16 16 16 15 15 16 19 17 9 6 7 11 11 10 14 17 18 18 18 17 17 18 18 14 10 7 9 7 7 8 10 11 10 9 10 11 11 10 8 8 8 9 9 10 12 14 15 16 16 17 19
12 13 11 11 10 12 14 15 15 17 23 13 11 8 11 15 15 15 15 18 18 18 17 17 15 8 13 9 9 9 5 6 5 5 5 3 5 7 8 8 8 9 10 11 11 13 14 16 17 18 19 19 20 22
12 8 10 10 9 8 9 12 11 11 4 6 8 8 9 12 14 15 13 13 12 12 13 8 7 7 5 6 7 6 5 4 2 1 2 5 7 8 9 10 11 11 11 12 14 17 19 20 20 19 20 20 22 24
10 11 10 10 10 11 12 12 12 6 7 11 12 11 11 10 9 8 8 8 8 9 12 9 6 7 3 3 3 3 4 4 3 3 6 8 10 11 11 10 12 13 14 17 19 20 21 21 21 21 23 24 26 30
17 17 16 13 11 10 12 9 6 8 11 10 12 10 9 8 8 7 7 6 5 5 6 6 4 5 6 6 5 5 5 4 5 5 6 8 10 12 13 15 17 18 19 20 22 22 21 21 22 24 26 30 34 37
11 11 11 10 9 8 8 9 11 8 10 11 9 8 6 6 6 6 6 5 5 4 5 5 6 7 7 7 7 8 9 8 8 9 11 12 14 16 17 18 19 20 20 21 21 21 22 22 24 28 32 36 40 43
8 7 6 6 5 6 6 6 6 7 6 5 3 2 3 4 6 6 8 9 10 10 10 11 12 13 12 11 10 11 12 12 14 15 16 18 17 18 19 19 20 22 22 21 21 21 23 26 30 35 38 41 44 47
7 7 6 5 4 3 3 2 2 2 3 2 1 3 5 5 7 8 9 9 9 9 9 9 10 12 13 11 11 13 15 17 18 18 18 18 19 18 18 19 21 21 21 21 23 25 29 33 37 40 43 45 46 46
9 9 7 5 1 3 4 2 3 3 3 3 5 5 5 6 6 7 4 4 6 7 9 11 13 13 13 14 15 18 19 21 18 15 16 16 15 17 19 19 20 20 21 24 27 31 35 38 40 42 43 43 41 40
9 5 4 4 5 6 5 5 4 4 4 4 5 5 6 6 6 6 5 5 7 8 8 10 13 15 15 15 18 21 16 13 11 12 15 16 15 14 15 17 19 22 26 30 34 36 38 40 41 40 39 37 37 36
3 5 6 7 6 8 8 8 6 6 4 3 3 3 3 6 5 5 7 8 9 9 9 9 9 8 11 12 10 10 8 10 13 16 16 16 16 18 20 23 26 29 32 34 36 37 38 38 36 35 35 36 35 34
4 5 5 6 6 4 3 2 1 2 1 1 1 2 5 6 2 3 8 10 10 9 9 8 7 7 6 7 10 12 12 13 14 15 15 17 20 23 27 29 31 33 34 35 36 36 33 33 34 35 35 34 32 33
5 6 5 3 2 1 1 1 2 2 3 3 5 6 5 3 2 4 7 8 7 6 5 5 7 8 9 9 10 13 14 15 16 19 22 25 27 29 30 30 31 33 35 36 34 32 32 33 34 33 31 31 31 30
5 3 2 1 1 1 2 2 2 2 2 2 5 4 2 3 5 8 8 8 7 6 6 7 9 10 12 14 16 17 19 22 26 27 28 28 28 28 29 31 34 35 34 32 31 32 32 32 31 30 30 28 29 30
10 9 8 7 6 3 2 2 2 3 5 7 8 8 8 9 10 11 10 10 11 12 13 14 15 17 19 21 23 24 27 28 27 25 25 27 29 30 33 36 35 32 31 31 32 32 31 31 30 28 27 29 30 30
5 4 4 4 4 4 5 6 8 9 11 12 12 13 14 14 15 15 16 16 16 16 17 19 21 23 24 25 25 24 24 23 24 27 28 30 32 34 34 32 31 31 31 30 30 30 30 29 28 27 29 30 30 28
5 6 7 7 8 9 11 12 13 15 15 15 16 16 17 18 18 18 18 18 19 20 21 21 22 22 22 22 22 23 24 26 27 29 30 32 32 32 32 32 31 30 29 29 28 28 27 26 26 27 29 28 27 26
10 10 11 10 9 10 10 10 11 13 15 16 16 17 18 19 21 22 19 18 18 18 19 19 19 19 19 20 22 24 26 27 28 29 31 32 31 30 30 30 29 29 28 28 27 26 26 26 26 27 27 26 25 24
13 13 12 10 11 10 11 12 14 15 14 15 16 16 15 16 16 14 14 15 15 15 16 17 17 18 19 21 23 24 26 29 30 30 30 31 31 31 31 30 30 29 28 28 27 26 26 26 26 25 25 24 23 23

GFSWCAN_700_spd_012.txt.gz
Wind_Speed
36 37 36 41 37 35 35 38 40 43 39 42 37 48 54 69 82 65 48 32 30 26 36 45 37 36 25 26 27 27 24 22 21 17 15 9 9 12 7 5 4 4 6 7 11 6 8 11 9 4 8 9 14 20
35 42 44 40 36 34 33 35 40 42 44 41 39 59 58 77 70 58 35 25 33 24 38 43 38 37 32 26 22 27 26 19 19 15 12 11 11 11 11 6 11 5 10 7 8 2 8 8 10 10 13 16 20 19
33 34 32 29 28 31 31 38 40 36 43 38 45 59 75 75 62 51 42 30 15 24 30 32 30 30 33 31 23 24 26 16 18 18 15 11 11 12 11 12 9 10 12 13 13 7 6 8 11 12 12 9 8 15
26 26 30 35 37 36 36 34 34 37 37 49 59 77 76 75 46 28 26 20 18 20 23 23 27 31 28 34 31 22 26 21 18 19 14 15 13 12 12 9 11 11 12 9 10 11 11 9 12 12 16 19 21 22
24 27 36 34 33 29 40 42 42 45 50 62 71 71 63 61 40 28 29 23 19 22 19 21 18 27 26 28 30 30 22 23 22 17 19 20 17 16 13 13 14 15 12 13 12 13 16 16 21 21 25 27 26 25
48 47 45 41 45 46 48 55 59 67 67 66 67 63 64 53 39 22 25 22 20 22 8 21 22 24 24 28 27 32 31 24 21 22 22 22 19 17 13 16 12 16 17 18 19 20 20 24 27 28 28 27 25 25
47 40 37 49 53 54 52 54 57 58 60 60 57 59 54 48 38 28 21 27 21 20 22 9 17 24 25 28 29 29 30 29 27 27 25 22 19 18 18 16 18 17 19 19 19 20 26 26 29 26 25 26 26 30
40 38 43 43 47 50 49 49 51 53 53 52 51 52 49 46 35 23 18 19 26 25 23 9 11 25 29 27 28 32 31 30 31 26 25 22 19 19 18 19 20 18 22 24 25 25 26 26 26 27 28 29 30 27
47 37 37 38 39 39 42 44 45 46 47 47 46 46 45 38 33 24 17 16 21 26 27 9 18 24 33 30 29 28 30 27 22 22 20 20 20 15 17 21 20 21 24 30 29 28 27 28 29 28 27 24 24 25
46 41 38 36 36 37 37 38 40 42 44 44 44 46 46 42 32 23 18 16 17 20 23 7 20 23 33 33 32 30 24 18 14 25 18 22 23 23 22 23 25 27 30 30 28 28 27 25 23 22 22 22 19 17
37 43 37 33 31 33 35 36 37 39 41 43 44 39 38 35 24 20 14 9 10 10 13 11 19 22 28 34 32 25 15 15 11 15 18 17 24 24 25 26 27 31 29 27 26 25 23 22 21 18 14 14 15 16
24 31 38 34 34 34 31 33 36 38 41 42 40 35 32 24 11 9 13 13 10 10 14 13 19 19 18 26 23 18 9 7 9 13 15 16 23 21 22 24 28 29 26 24 22 19 15 12 11 12 13 14 14 15
19 20 21 33 39 33 33 27 26 32 31 34 30 28 21 13 10 6 8 9 9 14 18 19 18 20 19 23 15 11 12 13 12 10 12 20 17 18 21 23 24 25 22 21 15 11 10 10 11 11 12 14 16 16
16 15 15 13 22 34 31 24 23 28 30 27 20 15 10 6 8 9 16 16 10 16 18 19 19 18 15 17 10 8 12 10 9 10 16 19 19 19 19 19 20 18 15 11 10 9 10 10 11 13 15 17 18 19
11 12 12 11 15 13 16 29 33 28 30 18 10 10 11 10 13 11 17 18 19 16 15 15 16 15 12 9 7 8 6 7 6 9 14 13 15 16 15 18 16 14 12 10 10 10 11 13 14 16 17 18 20 21
10 11 12 13 14 18 21 22 19 24 28 12 8 11 14 11 12 14 15 15 16 18 17 15 13 8 10 8 8 8 6 5 9 14 13 12 10 13 18 14 10 11 11 9 11 13 14 16 17 18 20 21 22 23
17 9 10 10 8 10 12 18 18 16 7 7 9 11 12 14 13 13 13 13 13 13 13 10 8 9 6 5 5 6 6 9 10 6 5 5 2 5 9 12 12 12 11 12 13 15 16 18 20 21 22 22 23 24
11 16 18 15 8 7 9 11 15 6 14 16 13 11 10 11 11 10 10 10 12 13 11 8 7 7 5 4 2 3 4 2 3 5 1 6 12 12 12 13 11 12 14 16 16 17 18 21 22 22 23 23 25 27
17 13 12 10 10 11 10 14 7 15 19 17 14 11 9 8 7 8 7 6 5 4 5 4 4 6 4 4 2 2 1 1 2 3 7 10 12 12 12 12 14 16 17 18 18 19 21 22 22 23 24 25 26 29
15 15 13 11 9 6 9 11 12 10 13 13 10 7 5 6 8 9 8 7 6 7 6 6 7 8 6 5 4 4 5 5 5 6 7 9 10 12 13 14 16 18 18 18 20 21 22 22 23 24 26 28 30 33
12 11 9 10 8 7 11 9 9 15 16 12 9 8 8 9 9 7 6 5 4 5 8 7 6 6 7 7 6 7 8 9 11 12 12 12 13 15 17 19 19 20 19 19 21 22 23 24 25 26 29 32 36 40
8 7 6 6 5 6 7 7 11 13 11 12 9 6 6 5 5 4 4 4 4 3 2 3 6 6 8 10 11 12 13 13 14 16 19 18 19 21 25 28 24 22 22 20 21 21 22 23 26 30 34 38 41 43
9 7 5 4 3 4 8 9 11 8 7 9 8 6 4 4 3 3 3 4 3 1 2 5 7 9 10 11 12 14 15 14 15 17 22 24 25 24 21 14 11 14 17 19 20 22 25 29 33 36 38 40 40 40
8 6 6 4 5 6 5 4 5 6 6 6 5 7 6 5 4 6 8 5 3 1 2 4 6 7 8 10 11 12 13 15 16 15 14 11 9 10 12 13 14 16 17 20 24 28 31 34 36 37 38 38 38 38
6 6 5 7 7 8 9 10 9 9 9 8 7 6 4 3 3 4 4 2 1 3 4 6 8 9 10 10 8 6 4 5 6 9 9 9 11 12 13 15 18 21 25 28 30 32 33 35 36 37 37 37 36 35
7 6 5 6 9 7 6 7 6 6 5 4 3 2 2 2 1 2 1 2 3 4 5 6 7 7 6 6 6 7 10 11 11 12 13 15 16 18 20 23 26 25 27 28 30 32 35 37 37 36 35 34 34 34
9 10 11 9 8 7 7 6 4 4 4 3 2 2 3 2 2 2 1 4 6 7 8 8 8 9 9 10 11 11 12 14 16 17 18 20 22 24 26 27 27 29 31 32 34 35 36 36 35 34 34 33 33 33
12 12 10 9 7 6 6 5 4 3 2 2 3 3 1 2 3 5 8 10 11 11 11 12 13 14 15 16 17 18 19 20 21 22 24 26 27 26 25 27 28 30 33 34 34 35 34 34 34 33 33 33 32 32
15 12 9 8 7 6 5 5 3 2 2 4 5 8 9 10 11 12 13 14 15 16 16 17 18 19 20 21 22 22 23 24 25 25 25 26 28 28 28 30 31 32 33 34 34 34 34 34 34 33 33 32 31 30
9 8 7 6 6 5 5 6 8 9 11 12 13 13 13 14 14 15 16 17 18 20 20 20 21 22 24 24 23 24 23 23 23 23 24 25 27 29 31 33 34 34 34 35 35 35 34 34 33 32 32 30 29 28
8 9 9 10 10 10 11 12 12 12 12 12 13 15 14 15 16 16 18 19 19 21 22 22 21 21 20 20 20 21 20 20 22 23 25 27 30 33 35 36 36 37 37 37 36 35 34 33 32 30 29 29 28 27
9 10 10 10 12 10 11 12 12 13 15 16 15 15 17 18 17 18 17 16 15 15 16 15 15 16 17 18 19 19 21 23 25 28 31 34 36 37 38 38 38 38 37 36 35 33 32 31 29 29 28 27 26 26
9 10 11 12 13 13 12 13 15 16 16 16 17 17 15 14 12 11 12 12 13 14 15 15 16 17 18 19 21 23 26 30 35 37 38 38 38 38 38 37 36 36 35 33 32 31 30 29 28 27 27 26 25 25

GFSWCAN_700_spd_015.txt.gz
Wind_Speed
32 37 37 34 37 33 31 30 27 36 34 52 48 53 57 82 50 70 49 48 40 18 30 37 48 51 43 35 37 37 35 32 27 19 19 14 11 17 9 8 7 8 11 13 14 7 8 12 13 12 12 15 13 12
32 37 36 40 39 34 36 32 31 34 43 47 52 52 61 86 53 67 56 50 42 23 40 36 54 34 36 34 36 33 33 32 23 20 14 18 12 19 14 12 9 9 8 9 7 3 5 6 10 9 13 13 18 22
29 32 37 42 37 35 32 33 33 31 39 45 51 44 63 73 62 64 45 42 34 29 44 38 50 40 43 33 29 35 33 25 24 24 21 17 17 16 16 16 14 14 10 11 9 6 9 5 7 14 16 20 24 19
30 35 38 37 35 32 30 32 34 36 37 36 41 39 64 75 68 57 37 29 34 25 12 44 47 46 40 27 44 33 32 26 21 20 18 18 14 13 15 11 14 16 15 13 12 12 15 14 16 19 18 21 24 21
34 37 34 31 28 26 29 30 33 36 33 34 38 42 65 64 74 46 43 48 26 34 22 34 39 40 36 29 28 21 26 22 22 21 24 20 14 13 13 15 13 14 16 17 17 16 20 22 22 22 22 23 26 26
23 25 26 28 34 33 33 31 32 30 33 35 46 65 58 73 56 49 40 17 7 19 18 31 37 33 33 31 29 23 23 25 23 22 25 21 17 17 13 19 18 17 17 18 18 18 20 21 22 23 24 25 27 25
27 27 25 26 29 33 37 36 33 36 37 49 67 53 72 48 31 39 13 28 31 25 20 24 23 29 31 32 35 35 32 29 29 25 23 20 19 19 22 21 18 17 16 18 20 21 22 23 23 24 24 25 26 27
31 30 30 34 36 37 39 42 45 55 51 61 59 68 60 44 38 21 16 15 17 17 22 15 18 26 32 34 34 35 37 37 32 28 26 23 21 24 22 23 18 18 19 20 20 22 25 25 24 24 25 26 27 28
39 39 40 43 45 46 47 48 50 48 50 49 60 61 46 39 36 17 23 15 14 14 14 10 20 21 28 30 31 31 32 33 29 26 27 23 26 23 22 20 17 20 21 23 21 23 25 25 25 25 26 27 25 22
35 37 45 44 47 49 49 51 55 52 62 62 52 41 24 19 17 18 12 9 8 12 10 7 16 13 26 28 29 30 26 19 19 23 24 25 27 27 22 19 17 21 25 25 26 26 25 25 25 25 24 22 20 17
33 34 37 39 41 41 44 49 49 47 50 48 40 32 32 25 17 13 7 3 0 0 6 14 20 10 24 27 25 23 13 14 12 18 22 19 27 23 22 25 25 26 27 28 27 26 25 23 22 21 19 16 13 13
35 35 34 37 36 37 36 36 41 46 49 43 36 28 31 21 6 5 2 2 2 2 6 15 14 16 22 28 17 14 14 10 7 12 17 16 20 20 25 27 25 28 28 27 27 24 21 18 14 11 9 9 11 13
31 33 35 35 37 36 36 38 37 36 33 33 31 24 14 14 7 7 8 6 5 3 13 12 18 21 23 23 14 11 8 7 5 5 6 13 13 16 18 22 25 26 26 24 20 17 12 10 10 10 9 10 12 12
30 34 36 42 42 40 40 36 30 31 32 23 17 16 10 7 6 5 9 14 13 17 17 14 14 13 15 17 6 6 9 9 11 11 17 17 15 16 19 22 25 27 21 17 13 10 10 8 7 8 9 11 12 13
21 20 27 31 31 30 27 23 20 24 29 17 11 8 8 5 9 6 9 16 11 13 16 19 21 12 15 9 9 7 10 8 9 9 12 9 12 14 19 22 21 16 14 12 8 7 8 8 9 10 11 13 15 17
12 16 21 20 18 27 28 26 24 27 24 12 8 10 13 12 11 13 15 19 18 15 14 16 12 9 9 7 7 6 5 5 4 5 6 8 10 12 11 11 13 12 10 11 9 9 10 11 12 12 15 17 19 20
10 10 13 14 16 17 18 23 23 21 8 10 12 13 15 15 14 14 10 11 14 18 19 14 9 8 7 6 5 5 3 4 6 6 2 4 6 3 4 12 15 13 11 10 10 10 13 13 14 16 18 20 19 21
18 19 16 13 11 11 15 15 14 6 13 16 14 12 12 13 15 15 14 13 13 13 14 10 9 8 6 6 8 8 7 7 4 1 7 1 6 11 13 12 9 8 9 10 12 14 16 17 18 19 20 21 22 23
20 19 19 18 16 11 18 11 9 14 21 19 16 12 10 11 11 10 8 7 7 7 10 10 5 9 11 12 11 7 3 2 2 4 6 8 9 11 11 9 8 10 13 16 17 19 20 20 21 21 21 22 24 26
21 19 15 13 11 9 13 18 23 16 20 16 11 10 10 10 10 9 9 7 4 2 3 7 11 10 8 7 6 6 5 5 5 5 6 8 10 10 10 12 13 15 18 20 21 20 21 21 21 22 23 23 25 28
15 15 15 17 16 18 19 14 18 15 15 10 7 6 6 6 7 6 5 5 4 5 15 14 10 8 7 7 6 6 5 5 7 8 10 11 12 14 16 18 20 20 21 25 25 24 21 19 20 22 23 25 29 33
13 12 10 11 12 17 14 13 14 14 11 11 8 8 9 8 6 4 3 3 5 9 8 6 4 4 5 7 8 10 11 12 13 14 16 18 16 18 20 20 23 27 26 22 17 16 19 20 21 24 28 31 35 38
11 11 10 12 10 8 13 14 12 9 8 10 10 8 7 5 4 3 5 7 8 6 4 2 1 0 2 3 5 6 9 12 15 16 17 18 19 20 20 19 16 13 12 15 18 19 21 24 28 31 33 35 36 37
10 9 9 6 7 8 8 7 7 7 8 7 5 7 7 6 5 7 9 8 6 4 3 3 3 2 4 5 6 5 5 6 8 10 11 10 9 9 9 10 12 14 16 18 21 24 28 31 32 33 34 35 36 37
6 7 6 9 8 9 10 10 10 9 11 10 9 8 6 5 4 6 6 5 2 2 2 4 6 6 6 6 6 5 5 5 5 7 8 9 10 12 13 15 17 19 22 25 28 30 31 31 32 34 34 35 35 35
7 7 6 7 9 7 8 9 9 10 8 7 6 5 5 5 2 4 4 4 3 3 4 5 5 6 6 6 7 9 9 10 11 12 13 15 17 19 20 21 23 26 28 29 29 29 31 32 33 34 34 33 33 33
11 12 15 14 11 10 11 10 8 7 6 5 7 6 6 0 1 2 1 1 4 6 7 8 9 9 10 11 12 13 15 16 17 18 19 20 21 23 25 27 28 28 28 29 31 32 33 33 33 33 33 33 33 33
20 17 15 13 11 10 9 8 7 6 5 4 4 2 1 1 1 3 5 8 9 10 11 12 13 14 15 16 18 19 20 20 21 22 23 24 25 24 25 26 26 28 30 31 32 33 33 33 34 34 34 34 32 32
18 15 13 11 9 9 9 8 6 4 3 3 4 6 7 8 9 10 11 12 15 15 14 16 18 19 20 21 21 22 22 23 24 25 25 26 25 23 25 27 29 31 32 34 35 36 36 36 35 34 34 33 31 30
13 11 10 9 9 9 7 7 7 8 9 9 8 8 9 9 10 12 14 15 16 18 19 19 20 21 22 21 20 21 20 20 20 21 21 23 25 27 29 31 34 36 36 37 37 36 36 36 34 33 33 32 30 28
10 10 11 11 11 10 10 10 10 10 10 11 12 12 12 12 13 14 14 15 17 18 17 16 16 16 16 17 18 18 18 19 20 22 24 27 30 34 37 39 39 39 39 38 37 36 35 33 32 31 29 29 28 27
9 10 11 11 11 10 11 11 10 10 14 13 12 12 14 13 11 12 10 10 11 12 12 13 14 15 16 18 19 20 22 24 26 28 32 37 39 39 39 39 38 38 37 36 35 34 33 32 31 30 28 27 27 25
9 10 11 12 12 13 12 13 13 13 12 12 13 12 10 8 8 9 10 11 12 13 13 14 15 17 19 21 23 24 28 33 38 39 39 38 37 37 36 36 35 34 34 33 32 31 30 29 28 27 26 26 25 24

GFSWCAN_700_spd_018.txt.gz
Wind_Speed
30 33 36 35 36 36 35 36 41 46 45 42 43 49 58 68 73 75 68 53 36 13 33 36 48 37 47 51 54 46 35 40 41 32 30 20 14 17 16 17 18 17 15 18 18 11 11 15 19 20 16 13 14 14
32 36 37 36 34 33 32 33 34 34 36 41 46 46 58 65 64 73 67 46 34 10 23 34 43 46 40 51 46 39 39 38 33 30 21 23 17 19 19 17 16 15 15 13 13 8 9 8 14 13 12 11 11 12
34 35 34 34 31 29 29 28 27 34 40 41 42 50 65 65 58 71 69 45 50 27 17 33 34 41 39 48 45 37 36 39 42 20 25 22 21 21 25 22 19 18 15 13 12 12 10 10 12 15 15 15 16 16
29 31 35 34 32 32 31 29 30 31 30 42 45 53 54 59 68 78 63 54 42 25 18 32 32 38 43 45 40 35 32 32 38 23 28 24 20 22 26 19 23 20 18 16 17 13 15 16 17 18 18 18 18 18
27 32 35 32 33 30 27 27 33 34 42 38 47 49 45 44 69 65 54 48 34 32 20 31 29 33 40 40 31 29 27 29 37 31 27 25 26 21 21 20 20 21 19 19 22 19 18 19 20 20 21 19 19 20
26 33 34 32 31 29 27 26 29 38 40 42 44 36 44 61 61 63 64 31 25 38 5 26 35 33 39 33 34 25 39 36 34 34 30 27 26 22 18 23 20 19 15 13 15 16 16 17 19 21 22 23 24 26
30 32 30 27 25 26 25 27 29 32 31 37 29 26 39 62 61 58 42 44 32 27 16 20 9 40 40 35 39 39 46 37 31 33 32 29 26 22 21 20 18 20 18 16 15 15 18 18 19 21 22 24 26 27
25 25 25 25 25 26 28 31 31 29 35 35 26 33 46 59 58 50 31 40 36 32 27 21 14 27 31 33 31 30 34 36 33 31 28 26 25 25 26 26 20 19 18 17 17 18 22 21 22 24 24 26 27 27
25 24 24 26 28 32 33 34 33 34 33 36 44 43 44 64 46 37 22 10 24 8 12 19 29 25 31 33 35 31 30 29 28 26 27 25 28 28 27 25 22 22 20 18 19 23 24 24 25 25 26 26 27 27
28 24 26 29 29 29 30 31 30 27 43 45 40 37 53 71 53 15 12 18 14 7 7 17 29 23 28 32 29 25 27 18 22 27 27 29 28 31 27 24 20 20 20 20 23 24 25 26 26 25 25 26 25 23
39 40 36 34 34 36 41 44 48 47 45 41 36 29 44 39 16 20 8 9 10 8 13 14 12 16 22 25 25 21 16 15 12 18 22 23 28 29 27 23 21 21 21 24 26 26 26 27 25 24 23 22 21 17
39 38 44 42 40 43 48 48 48 44 37 40 41 40 25 9 6 6 10 10 5 6 13 18 18 16 20 23 17 19 15 11 8 16 21 17 22 24 25 25 23 22 25 28 29 26 26 25 22 20 18 17 14 13
34 36 39 41 41 43 41 36 37 33 29 23 31 15 10 5 4 5 7 12 9 8 10 16 19 20 16 22 11 13 12 11 7 13 8 15 20 24 24 25 21 21 26 29 27 25 22 19 16 14 14 13 12 10
29 32 35 36 34 37 35 31 25 18 16 7 9 10 5 5 5 6 13 13 8 12 14 14 18 19 20 24 8 11 8 10 10 11 11 11 10 12 15 19 26 26 23 22 24 21 15 11 11 12 11 9 8 10
34 31 37 35 33 32 30 30 27 22 16 8 6 5 6 9 8 6 8 10 11 17 19 18 16 10 11 6 7 6 10 8 8 9 9 17 21 23 27 24 19 18 17 16 12 14 13 10 9 8 8 9 10 11
16 26 36 33 29 27 28 27 25 21 11 6 5 9 8 7 8 9 11 11 8 16 19 15 10 6 5 4 7 6 7 7 8 9 7 8 11 13 14 13 9 7 9 9 10 12 10 9 8 9 10 11 13 14
14 18 21 21 23 23 22 19 18 14 5 6 11 10 9 10 12 13 14 17 14 15 17 9 8 6 6 6 7 7 6 8 10 10 10 10 6 7 6 5 10 12 12 13 13 11 9 9 10 11 13 15 16 17
14 15 15 13 13 17 18 15 12 4 9 11 7 5 5 5 6 8 8 9 13 15 15 11 8 9 6 6 8 13 13 12 10 8 3 7 10 11 12 15 15 12 11 10 9 9 10 11 13 16 17 18 20 21
16 14 14 13 15 17 15 10 9 12 18 16 12 8 7 8 8 7 6 7 8 10 14 11 5 9 12 16 16 12 8 4 3 4 5 7 8 11 11 10 10 10 10 10 11 13 15 17 19 21 23 22 22 23
19 16 12 10 11 16 8 14 20 15 19 16 11 11 12 14 14 14 11 9 9 8 11 18 19 16 13 12 8 3 2 3 4 4 5 8 10 10 10 9 9 10 12 13 16 19 21 24 25 23 21 21 23 25
17 19 21 17 13 13 14 15 20 19 18 14 11 9 11 10 9 8 7 7 4 8 14 14 10 8 6 5 5 5 5 5 5 6 7 10 10 12 13 14 15 17 19 22 22 24 26 25 20 19 22 24 26 27
15 16 13 15 23 26 20 19 18 17 14 13 9 7 9 7 5 4 5 2 8 13 11 9 6 5 4 5 6 7 7 8 10 11 12 14 15 17 17 18 19 20 21 21 21 21 19 19 21 23 24 27 30 33
15 13 12 15 14 11 18 18 14 12 8 11 12 9 8 6 5 4 4 10 12 9 6 3 2 1 0 2 3 5 7 9 11 11 11 11 13 15 17 17 18 18 18 17 16 17 20 22 24 26 30 33 36 37
11 11 11 7 8 9 9 9 9 9 10 9 7 8 8 7 5 7 11 11 9 7 5 4 2 1 2 2 3 3 4 5 6 8 10 11 12 12 13 13 14 15 16 17 19 22 25 28 31 33 35 36 36 37
4 7 8 9 8 9 9 10 10 10 11 10 9 9 6 4 4 9 8 7 6 5 4 3 3 4 4 4 4 4 4 5 6 8 9 10 11 13 15 17 18 19 22 24 27 30 32 33 34 34 34 36 36 36
7 7 6 7 9 8 9 11 12 13 11 9 8 7 7 5 4 6 6 5 4 3 3 3 4 5 5 6 7 7 9 10 11 12 13 14 16 18 20 22 24 25 27 29 31 31 32 33 34 35 35 35 36 35
12 13 17 15 14 12 13 12 9 8 8 7 8 7 3 1 2 5 5 2 1 3 5 6 7 8 10 11 13 14 15 16 17 18 19 21 22 23 25 27 28 30 31 31 31 31 32 33 34 35 36 37 37 38
24 21 18 16 13 12 11 10 9 7 6 5 4 3 1 1 2 3 4 5 7 7 10 11 12 14 15 16 18 19 20 21 21 21 22 23 25 26 26 26 27 28 28 30 31 33 35 37 38 39 39 39 38 38
22 18 15 13 10 9 10 9 7 5 2 2 3 3 4 5 6 6 8 10 10 11 13 14 15 17 19 20 20 21 22 22 22 22 22 21 22 23 24 26 28 31 33 35 38 41 42 42 41 40 39 38 36 35
16 12 11 10 10 11 9 7 5 5 5 5 5 5 5 6 6 8 9 11 12 13 15 17 18 18 17 16 16 16 17 18 20 21 22 24 26 28 30 33 36 39 41 42 41 40 39 39 38 37 36 35 33 32
13 12 11 11 10 9 8 8 8 8 7 7 7 7 8 8 9 9 11 12 12 12 13 13 13 13 14 15 15 16 17 19 21 24 26 29 33 38 41 41 40 40 39 39 38 37 36 35 34 32 31 30 30 29
9 9 9 9 8 7 7 7 9 11 10 9 10 10 11 9 8 7 6 7 8 9 10 12 13 14 15 16 19 22 23 25 28 32 34 34 34 35 36 36 36 36 36 35 35 34 33 32 31 30 28 27 26 26
7 8 8 9 9 9 9 10 10 10 10 10 12 8 4 3 5 6 7 8 9 10 11 13 16 18 20 22 25 28 29 30 31 32 32 32 32 32 33 33 33 33 33 32 32 31 31 30 28 27 26 25 24 24

GFSWCAN_700_spd_021.txt.gz
Wind_Speed
19 24 27 27 38 36 41 41 39 39 43 43 49 51 56 76 78 60 73 65 57 27 29 31 33 36 42 32 53 46 40 42 42 33 35 22 13 25 24 24 28 28 24 21 22 19 14 16 18 22 17 19 10 15
18 21 29 34 34 35 33 33 36 39 42 45 44 49 70 74 55 64 74 66 56 33 31 30 33 43 44 38 33 46 44 38 38 32 30 25 18 24 25 24 24 22 26 23 17 18 15 11 16 21 22 17 12 10
27 27 30 32 32 30 31 31 34 40 47 47 46 55 65 53 46 71 65 66 53 30 26 32 38 31 47 42 34 46 37 39 38 35 34 23 24 24 26 29 24 26 19 22 17 17 14 15 13 15 15 14 12 11
30 32 32 31 29 27 28 29 31 45 41 43 47 50 57 50 53 67 63 63 48 28 15 22 24 36 46 45 36 40 37 33 34 35 35 27 23 28 26 24 29 27 25 22 22 19 17 18 17 16 15 14 14 16
28 31 31 30 28 26 25 26 31 36 37 38 43 46 42 45 51 60 66 49 45 35 7 19 22 26 34 45 37 38 36 34 38 37 35 24 18 21 28 27 27 27 27 26 24 20 18 13 14 16 18 19 20 21
28 28 28 29 27 24 20 22 27 25 35 35 40 42 37 43 60 53 62 49 25 30 7 6 20 17 25 37 37 34 37 37 36 37 35 37 34 32 26 32 29 25 21 19 17 15 15 17 17 19 21 22 23 23
27 27 28 26 26 25 23 22 31 27 30 38 38 37 45 53 50 51 45 49 30 19 11 15 6 21 24 31 39 38 39 44 38 39 32 32 31 29 31 32 28 24 20 19 18 17 19 20 20 19 20 21 22 24
27 26 25 26 24 26 26 26 30 30 30 43 40 33 38 44 43 40 42 36 37 26 9 12 15 13 37 38 39 40 45 37 43 40 35 34 31 33 27 31 24 19 18 21 22 21 21 21 21 22 23 24 25 27
24 24 22 25 26 25 29 33 31 30 34 27 26 28 37 37 33 44 38 19 28 26 8 15 28 29 26 26 32 29 43 35 31 39 33 32 24 22 25 20 23 22 20 21 24 24 25 25 26 27 27 27 27 27
24 21 22 24 25 30 33 34 35 36 31 27 25 34 27 36 41 43 33 11 24 26 20 21 25 27 23 28 23 24 21 19 19 22 22 26 32 35 28 24 26 23 22 24 27 26 25 29 28 28 28 27 26 26
24 24 23 25 30 33 30 32 33 31 30 39 34 25 24 43 29 48 14 8 18 13 13 16 20 30 33 25 17 15 13 8 10 16 21 14 25 32 31 27 25 24 25 29 31 28 28 29 26 26 25 24 25 25
25 25 27 25 27 31 33 34 50 43 38 33 22 32 24 31 12 10 8 10 7 5 11 10 8 22 25 25 16 10 11 9 7 15 15 15 20 18 22 26 28 28 31 31 29 26 25 26 26 23 23 23 23 24
39 33 31 38 45 46 47 44 27 37 29 26 20 34 27 17 8 6 8 10 10 15 22 26 25 18 17 18 10 10 10 11 7 12 8 14 15 22 24 26 29 31 31 30 26 28 26 24 23 21 18 17 16 15
48 47 52 53 42 39 37 35 22 28 31 20 10 10 6 5 5 7 12 14 14 14 17 20 21 15 13 20 8 8 8 8 10 8 8 12 19 21 21 24 27 25 26 27 23 22 22 21 19 16 14 14 13 12
45 44 39 34 42 38 33 27 23 20 19 8 7 7 11 15 14 12 8 6 9 11 12 13 14 8 11 6 8 5 8 7 7 6 9 14 17 16 14 14 17 19 21 22 20 19 18 15 14 13 11 10 9 9
29 26 27 23 29 23 21 11 11 17 19 9 10 15 14 11 12 11 10 9 12 16 15 12 9 6 5 9 6 5 7 4 5 7 8 10 15 16 16 17 17 15 14 13 13 10 9 10 10 10 9 8 9 11
29 32 29 27 24 19 15 8 6 5 8 8 11 10 9 7 8 9 9 10 13 20 15 6 5 4 7 5 5 6 4 5 8 8 7 7 6 6 8 7 8 9 11 9 9 10 11 10 8 8 9 11 13 16
15 13 19 25 26 26 20 17 11 6 19 17 12 9 6 5 3 4 7 9 14 18 16 8 6 6 5 6 7 9 8 6 7 8 9 11 11 8 4 5 9 12 10 9 10 10 9 8 9 12 15 17 19 21
9 10 10 11 14 14 11 9 8 13 20 18 12 9 7 10 12 11 6 8 11 13 15 11 5 10 12 17 17 15 12 8 6 6 7 7 5 4 5 8 9 10 11 11 9 8 10 12 14 16 19 22 25 25
12 10 8 8 13 13 7 15 22 17 20 18 13 12 16 19 17 15 12 10 5 11 8 15 22 19 17 16 13 10 7 5 5 4 5 7 8 9 9 10 10 10 9 10 12 13 16 19 21 23 24 26 27 26
16 16 11 10 13 8 15 16 24 22 22 20 14 12 15 12 10 9 9 11 7 22 25 20 15 13 11 10 8 7 7 5 4 3 4 7 9 11 12 13 13 13 15 16 19 21 23 23 24 24 25 23 23 26
21 19 17 16 18 23 20 22 22 19 17 16 15 14 15 13 11 11 8 4 17 20 15 11 8 6 4 4 4 4 4 6 9 11 12 10 10 12 14 15 16 15 16 17 18 19 21 22 23 22 22 25 28 30
17 13 15 19 17 13 19 18 14 12 8 13 11 10 10 9 9 7 10 18 18 15 11 7 6 4 3 1 1 2 5 7 7 6 5 6 8 10 11 13 14 15 16 16 17 17 18 19 22 25 28 30 33 35
8 11 13 10 10 11 10 10 9 9 10 9 7 10 9 9 8 10 15 14 13 11 8 6 5 4 3 3 2 2 2 2 3 4 6 7 9 11 12 13 14 15 16 17 19 21 23 26 28 31 34 36 37 37
3 8 9 10 9 10 10 10 9 9 11 8 7 8 7 5 5 11 11 10 9 7 6 5 5 4 2 2 2 3 4 5 6 7 9 11 12 14 16 18 20 22 23 25 27 29 31 33 35 37 38 38 38 38
6 8 6 8 10 8 9 12 12 13 10 7 8 7 6 4 3 5 7 7 6 4 3 2 2 3 4 5 6 7 8 10 11 12 14 16 18 19 21 23 25 27 29 30 32 34 35 36 36 36 37 38 39 39
12 14 20 19 16 15 16 14 11 9 8 6 7 5 3 2 2 5 6 4 1 1 3 5 7 8 9 11 12 14 15 16 18 19 20 20 21 23 24 25 27 29 30 31 32 33 34 35 37 38 40 41 43 44
24 21 19 16 14 13 12 11 8 6 5 4 2 2 0 0 2 4 5 4 5 6 8 9 11 13 14 15 17 19 19 20 21 21 22 23 23 24 25 26 27 29 30 32 35 37 40 42 44 45 44 44 42 40
22 19 16 12 10 9 10 9 8 5 4 3 4 4 4 5 5 7 8 8 9 11 12 13 14 16 18 18 19 19 18 17 17 18 19 21 23 25 27 29 31 34 37 40 43 44 43 43 43 42 41 40 39 38
18 14 12 10 9 11 9 8 6 5 4 4 5 6 5 6 6 8 9 11 12 13 13 14 14 14 14 14 14 16 17 19 20 22 24 26 28 31 34 36 37 38 38 38 38 38 38 38 38 38 37 36 35 34
15 11 9 8 7 7 6 5 5 5 5 6 7 6 7 8 8 9 10 11 11 10 10 10 10 11 12 14 15 17 19 22 24 26 29 31 32 33 33 33 33 33 33 34 36 37 36 36 35 34 32 32 31 30
9 7 7 6 5 5 7 8 9 8 9 9 8 9 10 8 7 6 5 6 7 8 10 11 12 14 16 18 20 22 24 25 25 26 27 27 28 28 28 29 30 31 33 35 36 36 35 33 31 30 29 28 27 26
4 5 5 5 5 5 6 8 9 11 11 11 11 7 3 3 4 5 6 7 8 9 12 14 16 18 20 20 21 22 23 24 24 24 24 25 25 26 26 27 28 30 33 34 32 31 30 29 28 27 26 25 24 23

GFSWCAN_700_spd_024.txt.gz
Wind_Speed
6 13 18 24 29 34 37 42 42 44 46 46 43 43 47 54 56 61 60 68 54 33 23 21 34 44 42 39 38 35 35 42 43 35 23 20 21 27 26 28 33 32 28 26 26 16 16 23 22 26 27 19 17 13
30 23 22 24 28 30 35 34 39 38 46 39 41 43 50 48 58 48 58 60 56 23 31 16 36 36 39 40 43 33 36 36 36 32 29 24 18 19 27 31 33 34 35 29 27 27 27 18 14 21 22 21 11 9
19 22 29 32 34 35 36 36 36 37 36 36 44 48 51 51 50 51 58 55 40 21 28 27 25 22 24 29 38 35 23 22 26 35 29 26 19 28 22 29 28 33 28 35 28 29 28 25 21 18 16 17 16 11
20 23 27 27 29 31 33 33 33 34 35 40 45 45 46 47 47 42 66 42 19 30 32 13 25 27 25 29 36 40 27 24 25 25 37 33 25 21 27 27 31 32 30 33 34 30 23 19 18 17 15 15 15 14
26 27 27 26 25 27 29 31 33 35 36 38 37 42 38 42 40 47 66 33 33 38 25 17 21 24 24 29 28 37 29 27 30 30 36 36 32 26 22 24 33 30 29 31 32 23 22 16 13 16 18 16 16 15
25 26 26 26 25 24 25 30 32 35 34 32 31 32 31 34 49 29 42 41 47 27 19 11 14 22 18 19 26 33 33 34 33 27 32 36 31 30 25 25 32 30 29 21 19 18 16 16 19 17 17 17 18 20
23 25 27 27 26 28 30 33 32 34 33 32 32 33 38 44 36 37 45 28 40 53 41 14 7 12 24 25 23 34 35 32 38 33 32 36 39 28 31 35 34 28 24 23 22 21 21 20 19 19 20 20 21 24
23 22 23 24 26 27 27 26 30 31 33 33 29 28 27 25 22 33 38 41 28 30 33 7 5 4 16 18 26 35 36 35 39 39 34 34 34 35 36 38 36 30 23 26 25 24 22 19 19 20 22 24 23 24
25 25 24 25 27 30 28 23 25 35 32 35 32 28 23 29 37 28 37 44 38 29 15 12 11 8 10 15 27 34 36 38 35 38 36 32 30 28 26 25 25 24 23 24 24 24 24 23 24 25 25 25 26 27
22 23 24 26 27 28 33 32 41 42 40 39 37 34 33 29 37 24 29 16 16 28 24 7 10 16 19 28 10 32 32 27 28 30 28 29 36 40 29 28 24 23 25 20 21 23 26 29 30 30 27 27 29 30
19 21 25 28 30 28 31 33 39 40 37 41 39 29 35 36 31 31 7 10 11 11 23 25 17 18 16 15 16 12 21 22 19 19 32 25 40 35 37 30 29 26 21 21 24 28 31 29 28 26 25 26 29 29
21 23 30 33 31 30 30 30 30 31 34 28 27 30 32 24 16 16 8 7 10 10 9 10 14 18 16 26 17 8 7 13 8 18 23 19 27 30 31 31 27 25 31 31 32 32 31 29 27 25 24 26 26 25
25 23 28 28 33 37 33 32 34 33 41 30 29 33 15 7 11 10 8 6 8 14 17 16 10 1 20 17 16 7 5 6 13 13 7 8 17 18 20 23 28 32 31 30 29 29 29 28 25 24 22 22 23 26
26 26 25 32 35 40 43 44 27 14 19 24 22 16 5 5 5 5 6 8 8 11 14 12 12 7 4 7 6 5 7 10 9 6 6 11 17 21 23 26 26 25 26 26 25 23 18 18 19 19 20 22 21 19
31 35 40 41 44 45 31 18 16 22 25 19 12 5 7 11 12 11 10 9 8 11 18 15 10 10 9 4 6 5 6 4 4 3 3 8 14 16 17 16 17 16 15 15 14 15 16 17 17 16 16 15 12 10
36 36 34 29 30 24 17 16 16 11 22 6 10 17 16 13 14 12 11 11 14 15 15 13 7 6 5 1 2 4 4 5 4 2 2 6 9 9 8 8 7 7 8 11 12 12 11 10 9 10 11 12 9 7
24 26 25 21 18 22 18 17 14 16 11 12 17 16 13 12 11 9 9 15 17 15 11 4 4 3 6 4 4 5 6 6 5 6 6 7 7 5 6 5 5 6 7 7 6 7 8 10 11 10 7 5 6 8
19 22 23 21 15 11 13 11 16 17 27 21 18 13 8 8 5 5 5 6 12 12 8 5 5 4 5 5 10 13 12 11 8 5 4 7 7 7 6 4 5 5 5 4 4 7 9 8 5 4 7 9 12 14
11 14 14 14 12 7 11 18 23 21 23 20 15 12 9 11 8 6 4 6 9 10 7 4 6 13 16 16 15 14 13 11 9 8 5 6 6 5 4 5 5 4 5 5 5 5 4 5 8 10 14 17 20 23
11 9 7 4 5 6 9 18 24 17 23 23 19 17 15 17 16 14 11 6 2 4 5 14 22 19 16 15 14 13 11 9 7 4 3 2 1 1 1 3 5 5 5 5 6 8 10 13 16 19 21 23 24 26
10 10 8 9 9 3 12 16 25 23 25 23 17 14 16 13 12 12 12 12 4 20 29 23 18 16 14 11 8 8 8 8 6 3 1 3 5 6 6 7 8 9 11 12 13 15 17 18 21 23 24 26 28 29
20 13 12 8 11 20 19 25 23 19 20 20 17 17 17 15 14 16 13 10 26 26 21 15 12 10 7 5 4 3 4 5 7 8 9 10 10 11 10 11 11 12 12 14 16 18 19 21 22 24 26 27 27 28
19 21 23 26 25 18 23 21 18 15 10 14 11 12 10 10 10 7 11 20 20 18 14 10 9 7 4 3 2 3 3 4 5 5 6 6 7 8 9 11 12 14 15 16 17 18 19 21 23 25 27 29 31 33
7 14 16 10 11 15 15 16 16 15 15 13 9 11 10 9 8 11 14 13 12 12 8 7 6 4 3 3 3 3 3 4 4 5 6 7 8 10 11 12 14 15 17 19 20 22 24 26 28 30 33 36 38 40
6 11 11 13 11 13 17 16 16 17 16 12 11 9 6 5 5 10 10 11 11 8 6 5 4 3 2 1 2 4 5 6 7 9 10 12 13 15 17 19 20 22 24 26 28 30 32 34 36 37 38 39 39 39
9 9 8 9 12 12 12 16 15 16 11 10 9 9 8 5 3 5 9 9 8 6 4 2 1 2 3 5 6 8 9 11 13 14 16 18 19 20 22 23 25 26 28 30 31 32 34 35 36 37 39 41 43 45
14 16 22 21 20 18 19 17 13 10 10 8 8 5 3 2 2 7 10 9 6 5 4 4 4 6 8 10 11 13 14 15 16 17 18 19 20 21 22 23 24 25 27 29 31 34 36 38 41 43 44 45 45 45
22 23 20 19 17 16 14 12 11 9 8 7 5 4 2 2 1 5 6 6 6 7 7 9 10 11 12 13 14 15 16 16 16 16 16 18 20 21 23 25 27 29 32 34 36 38 39 39 40 40 41 42 41 41
24 21 18 14 12 12 13 14 11 10 8 7 7 6 6 5 3 4 6 8 9 9 10 11 12 13 14 15 14 13 13 14 16 18 19 21 23 25 27 29 30 31 32 33 33 34 35 37 39 40 40 40 39 38
20 17 14 12 12 13 11 9 8 8 7 8 8 9 8 7 7 7 8 8 9 9 10 11 12 12 11 12 13 14 16 18 20 23 24 25 26 27 28 28 29 29 29 29 31 33 36 37 36 35 34 34 34 33
17 13 10 11 11 9 7 6 7 8 9 9 10 10 10 10 10 10 9 10 9 8 7 8 9 11 12 14 16 19 21 22 23 24 24 25 26 26 26 26 26 26 27 29 31 34 33 30 29 29 29 29 29 28
11 10 9 8 7 6 6 7 8 9 11 11 11 12 12 9 6 5 5 6 7 8 8 9 11 14 16 18 19 19 20 21 22 22 22 23 23 23 23 23 23 24 25 28 30 30 29 28 27 28 28 28 27 26
7 6 5 6 6 7 9 11 12 13 13 13 12 9 6 4 5 5 7 7 7 9 12 13 15 16 16 16 17 18 18 18 18 18 18 18 19 20 20 21 21 22 24 26 27 28 28 27 27 27 27 27 26 25

GFSWCAN_700_spd_030.txt.gz
Wind_Speed
16 15 13 7 2 11 18 26 33 41 45 44 43 45 49 46 52 59 46 56 64 41 29 28 30 28 33 36 41 34 31 34 33 32 21 15 13 18 17 26 18 21 23 21 19 14 15 19 20 22 27 22 20 22
13 13 10 12 14 18 26 33 35 40 41 41 43 46 38 48 52 53 42 51 58 43 28 32 32 32 36 32 33 36 45 39 38 26 22 20 18 16 18 18 29 23 20 20 26 24 28 23 20 20 19 24 23 21
11 14 15 16 19 24 27 28 33 37 37 42 42 44 46 49 53 47 42 44 51 49 41 23 26 36 34 37 41 36 40 41 38 39 28 29 18 29 25 30 29 37 25 26 26 29 29 26 24 26 28 27 25 21
11 14 18 22 24 27 29 30 32 32 35 39 45 39 40 49 45 40 39 33 44 45 35 29 6 38 37 41 41 42 28 32 27 23 36 30 26 26 24 24 27 32 35 29 33 30 26 26 27 26 27 26 26 21
18 28 19 19 24 26 28 29 36 36 36 36 37 36 41 43 42 38 31 35 41 40 19 37 19 15 38 44 44 43 39 27 30 23 31 35 28 24 30 28 35 35 28 32 37 29 29 23 23 24 24 24 22 21
15 19 26 29 27 28 36 39 39 42 36 34 40 41 46 43 40 34 35 32 34 37 26 10 14 14 36 31 41 45 44 32 34 31 24 27 32 28 19 34 35 38 33 29 31 29 26 24 23 22 21 21 20 21
17 20 21 23 29 37 38 37 36 37 40 37 34 37 39 34 29 35 36 38 34 38 29 13 5 15 18 27 31 33 37 38 35 28 29 30 29 30 36 39 28 28 26 25 23 22 26 25 23 24 19 22 22 23
19 21 22 23 26 29 31 34 35 34 33 33 33 31 31 28 27 31 28 27 35 33 31 11 4 17 24 15 38 34 35 36 36 39 32 29 27 32 33 34 27 24 27 29 24 24 25 24 26 25 22 23 25 26
27 23 25 25 26 27 29 30 34 35 35 35 34 33 29 25 24 27 26 18 23 33 11 10 2 9 12 16 12 14 25 36 29 42 39 31 34 28 22 24 21 23 27 27 30 32 30 27 26 30 28 25 28 30
27 30 30 31 32 32 33 33 34 33 33 35 33 30 30 28 30 23 26 34 37 26 13 11 9 9 10 11 12 12 18 20 32 30 31 38 37 35 31 21 13 20 26 29 37 37 35 33 34 31 30 31 31 31
25 27 31 33 37 40 40 41 40 41 40 40 36 31 28 28 29 16 16 14 13 9 14 21 14 12 11 7 7 11 5 11 11 13 23 16 24 32 33 30 29 28 19 19 26 30 33 30 30 32 31 30 29 30
22 18 26 32 35 33 33 33 39 41 31 33 29 29 24 20 15 5 11 10 5 10 11 20 16 12 13 10 4 5 5 6 6 11 13 11 18 21 24 27 36 36 35 30 29 32 33 32 28 33 37 29 24 26
19 25 28 35 37 35 35 39 40 26 29 29 27 14 13 8 7 6 7 9 10 14 15 15 19 15 11 11 8 8 6 6 6 11 6 2 14 19 24 25 26 31 33 31 32 34 28 29 27 26 36 41 43 30
25 33 38 37 37 40 36 33 31 36 30 19 9 9 5 5 9 7 12 12 17 15 16 10 13 13 13 15 7 6 7 7 5 3 3 6 2 12 18 21 24 24 26 24 19 20 20 21 25 32 28 27 19 22
28 30 35 36 30 20 18 17 29 25 12 4 5 5 2 6 12 20 25 19 20 18 16 20 18 10 10 5 6 5 5 6 6 6 8 5 3 2 2 2 3 4 5 6 8 11 12 10 13 14 15 13 13 14
23 24 23 17 14 14 23 27 21 17 8 4 2 5 5 8 12 14 17 22 27 29 26 18 7 6 4 5 3 5 5 6 5 8 8 6 5 5 4 3 2 2 4 6 6 5 6 6 5 4 5 8 10 11
23 26 25 21 15 11 14 14 8 7 7 5 5 8 11 14 16 20 21 22 24 23 19 9 6 4 6 5 6 6 11 11 9 9 8 7 8 9 9 8 9 7 6 6 5 5 3 3 2 3 4 5 5 6
23 27 23 21 16 8 6 9 16 10 16 13 16 17 18 20 20 16 15 14 10 11 10 9 8 6 7 8 16 18 15 14 12 10 9 10 11 12 10 9 9 9 8 7 5 3 1 1 1 1 2 4 6 9
14 14 14 10 7 12 17 26 28 22 22 22 20 20 19 17 16 15 12 12 11 10 12 11 10 22 25 23 21 19 17 16 15 14 13 14 13 11 10 8 6 4 3 2 1 0 1 2 4 5 8 11 13 14
12 12 13 11 22 24 19 19 19 16 24 24 23 23 22 21 19 15 11 9 8 5 17 29 30 26 23 21 19 18 16 15 13 11 11 9 7 6 3 2 2 2 1 1 2 4 6 7 9 10 12 14 15 17
15 13 9 16 15 15 17 16 24 24 26 28 28 27 26 20 18 17 18 15 12 29 38 32 27 24 20 17 14 11 10 9 6 5 4 2 2 2 3 4 4 5 6 7 8 9 10 11 13 14 16 17 19 21
14 15 19 22 26 24 19 22 20 22 25 24 24 25 26 28 27 26 27 28 35 36 31 26 23 20 17 14 12 9 9 7 3 2 1 1 2 3 4 5 5 6 7 8 10 11 12 14 16 18 20 22 24 27
28 26 27 29 20 16 26 27 21 20 12 16 16 20 18 18 18 14 24 29 29 26 23 19 16 13 9 8 7 5 3 3 3 3 3 3 3 4 5 7 8 9 11 12 14 16 18 20 22 23 25 26 28 30
12 14 13 7 10 16 18 19 20 17 16 16 18 19 19 19 16 18 22 21 20 18 15 12 11 8 7 6 5 3 2 2 2 3 4 6 7 9 10 12 13 15 16 17 18 19 20 22 24 26 28 30 32 33
6 9 13 16 14 18 17 17 17 20 18 15 15 12 10 9 11 13 14 14 13 11 8 7 6 5 4 2 0 2 3 5 7 9 10 11 12 13 13 14 15 16 17 19 21 23 25 27 28 29 29 30 31 32
6 5 9 13 18 14 16 18 15 15 12 12 10 9 9 7 5 6 8 7 7 7 5 4 2 1 2 3 5 7 9 10 12 12 12 12 13 13 14 15 17 19 21 22 24 24 25 25 26 26 28 30 31 31
10 12 15 16 19 18 20 18 16 13 13 9 9 7 5 3 3 3 3 4 4 4 4 3 4 5 7 9 11 11 12 12 12 12 12 13 15 16 18 20 21 22 22 22 22 22 23 24 24 26 28 29 28 28
25 25 22 20 19 16 17 16 15 12 10 8 5 4 2 1 1 3 4 4 5 6 7 8 9 10 11 11 12 12 11 11 11 13 15 17 19 20 20 21 22 22 21 22 22 22 22 23 24 25 25 25 26 26
27 24 20 19 18 17 16 16 15 13 10 8 6 5 3 3 2 3 5 6 8 9 9 10 10 10 11 11 9 9 11 13 15 17 19 20 20 20 20 20 20 20 20 20 20 20 21 22 23 23 23 23 24 24
25 22 20 19 18 19 16 14 12 10 7 5 4 3 1 0 2 4 6 8 8 8 9 9 8 7 7 8 9 11 13 15 15 16 16 17 16 16 16 16 16 16 16 17 18 19 20 21 22 22 23 24 24 25
23 19 17 16 18 16 13 10 7 6 4 3 3 2 2 2 3 4 5 5 5 5 5 5 6 6 8 10 13 13 13 14 14 14 13 13 13 13 13 13 14 14 15 16 17 18 19 19 21 21 22 23 23 24
19 15 13 13 14 11 8 6 4 3 3 3 4 3 3 2 1 1 2 2 3 4 4 5 7 10 11 11 12 12 12 12 11 11 11 11 12 12 13 14 14 15 15 16 17 18 19 20 21 22 22 23 24 24
16 14 11 9 8 6 5 3 4 4 5 4 3 4 4 3 3 3 3 4 3 5 7 8 9 9 10 10 10 10 9 9 10 10 11 11 12 12 13 14 15 17 18 19 20 21 21 22 22 23 23 23 24 24

GFSWCAN_700_spd_033.txt.gz
Wind_Speed
22 22 22 20 20 13 15 14 22 30 38 43 47 53 46 49 49 57 55 57 60 46 35 25 29 32 39 39 45 41 35 26 28 24 22 16 18 21 19 24 24 15 18 18 22 23 20 15 19 21 24 18 15 17
16 17 12 15 10 2 3 11 17 32 42 43 46 45 47 47 45 56 54 54 52 29 22 35 21 35 36 42 40 33 52 45 28 24 23 18 20 20 23 20 28 26 16 18 18 20 25 21 23 22 17 18 19 17
11 11 11 9 12 13 16 22 29 35 39 42 42 41 38 41 50 53 53 52 48 39 24 21 24 24 34 50 39 32 34 22 28 23 18 19 17 24 21 23 16 21 26 25 15 17 18 17 19 17 20 19 21 25
5 9 10 11 15 17 21 28 29 35 35 36 37 37 38 40 54 51 53 48 36 42 19 22 25 27 28 48 47 46 36 31 20 25 22 23 27 20 21 26 27 27 21 27 31 29 26 20 22 20 22 22 23 22
10 9 12 16 20 24 28 28 31 35 35 35 35 37 40 39 46 47 47 39 26 33 19 29 24 31 34 42 47 43 33 32 26 25 27 27 22 22 19 25 31 25 30 30 32 28 25 20 20 20 24 22 22 24
18 12 13 15 19 24 28 30 33 36 33 38 41 38 42 39 40 39 36 27 35 34 10 14 30 25 38 46 49 48 37 30 27 23 23 24 30 23 20 33 33 28 26 26 29 21 22 25 30 23 24 23 26 25
20 17 18 21 25 28 29 32 32 35 39 38 38 35 32 33 35 37 26 25 33 31 18 8 9 24 24 35 47 48 46 33 24 29 24 17 19 28 32 33 22 13 19 28 29 33 31 28 27 30 26 22 24 21
21 25 26 26 33 36 32 34 35 43 37 33 31 32 32 30 26 23 17 12 22 25 26 11 11 9 20 38 39 44 42 38 33 26 20 22 22 28 21 23 30 30 20 21 27 28 28 28 27 27 27 28 23 21
20 22 23 23 27 31 29 33 34 32 29 28 28 29 26 24 24 22 14 14 21 22 22 19 22 1 22 33 35 36 36 35 31 35 32 18 24 16 17 19 20 19 23 27 28 27 31 30 29 27 26 25 25 25
20 22 24 25 27 29 30 28 29 27 26 28 32 32 30 26 20 21 19 11 18 23 24 22 18 10 11 37 30 34 30 26 28 25 30 31 25 23 25 21 15 20 24 24 28 31 33 34 34 32 30 34 26 31
21 24 26 27 26 27 28 29 30 30 30 31 29 20 25 21 24 22 16 10 10 9 13 19 16 9 20 19 29 25 19 23 16 21 25 17 23 32 31 28 29 26 24 26 24 20 24 34 39 40 41 41 37 38
22 25 24 25 28 30 30 31 31 30 28 28 26 36 33 22 6 7 14 8 9 9 7 7 6 4 14 13 8 12 3 11 8 17 18 7 12 21 32 35 36 35 36 38 39 33 32 26 26 26 28 29 30 30
24 27 32 34 33 33 32 33 25 24 32 27 14 10 7 4 5 6 6 5 5 7 6 7 8 8 10 5 5 5 5 4 18 11 7 1 8 18 22 26 30 33 35 37 39 40 37 36 31 25 25 26 25 25
29 29 30 30 32 37 25 23 31 24 20 12 6 5 4 4 4 7 11 7 7 5 9 5 10 6 5 5 4 3 6 8 4 5 3 7 5 6 12 18 22 24 26 29 30 30 31 30 26 26 22 21 21 20
32 31 30 32 32 26 21 26 27 22 7 6 4 0 2 4 6 10 13 11 9 7 10 7 7 4 8 3 5 5 3 6 6 4 4 5 5 4 2 2 3 5 7 10 11 11 11 10 11 12 10 7 5 6
33 32 28 17 12 17 25 25 24 9 6 3 1 3 6 5 6 11 14 13 6 13 17 16 7 5 5 5 4 6 5 6 4 7 7 7 7 7 7 7 7 7 6 5 6 7 8 9 8 7 7 5 3 2
21 13 9 8 9 6 9 11 4 6 3 3 6 3 5 9 9 12 15 14 12 22 20 9 4 4 6 6 7 7 7 9 8 9 10 12 12 13 13 13 14 13 12 12 12 11 8 7 7 6 5 4 3 2
15 12 8 5 2 2 5 5 2 7 14 12 9 12 14 17 18 18 19 21 22 21 19 6 8 6 8 8 16 17 14 13 13 14 16 18 17 16 14 13 13 10 9 8 6 5 4 4 3 1 1 1 1 4
21 18 12 8 6 1 1 9 11 11 16 11 14 15 19 21 24 24 22 19 19 18 15 11 8 20 25 26 22 19 18 17 16 16 16 15 14 11 9 7 6 5 5 4 4 3 2 1 2 3 5 7 10 13
9 11 9 6 4 9 9 14 20 14 21 22 25 26 21 18 16 16 15 15 14 10 13 28 31 29 26 23 21 18 18 16 13 12 11 9 7 5 3 2 1 2 2 2 3 5 6 7 8 10 12 14 15 17
11 13 11 10 17 22 19 15 21 18 22 21 25 26 27 20 16 15 17 18 17 28 38 32 27 25 22 19 17 14 13 11 7 6 5 4 3 1 1 3 4 4 5 7 8 9 10 11 12 14 15 17 19 21
7 9 8 11 11 16 16 21 18 22 25 27 28 29 29 28 28 28 29 31 36 34 31 26 24 20 17 14 12 10 9 7 5 2 1 1 3 3 5 6 6 7 8 9 10 11 13 14 16 18 20 22 23 24
18 20 22 26 20 14 25 25 18 19 12 16 17 20 19 21 21 17 23 27 28 27 23 19 17 14 10 9 7 5 3 3 1 1 2 2 4 5 7 8 10 11 13 15 16 17 18 19 20 22 23 25 27 29
18 18 14 8 9 15 17 17 19 17 17 18 18 19 18 18 15 19 23 22 20 18 16 13 12 9 7 5 4 2 0 1 2 4 5 7 9 10 12 13 14 15 16 17 18 19 21 22 24 25 26 27 28 29
9 9 11 19 15 17 16 16 17 19 19 16 15 12 9 9 11 14 15 14 13 12 10 8 7 6 5 4 2 2 3 5 6 8 10 11 11 12 12 13 14 15 17 19 20 22 23 24 25 25 25 26 26 26
5 5 8 13 19 16 16 20 18 19 15 11 9 10 9 7 4 5 9 8 8 8 7 6 5 4 4 4 5 6 8 9 10 10 11 11 11 12 13 15 17 18 19 20 20 21 21 21 21 21 20 21 21 22
8 10 16 15 17 19 20 20 17 14 11 8 10 7 5 3 2 4 5 5 4 4 4 5 5 5 6 7 9 10 10 10 10 10 10 11 13 15 16 17 18 18 18 18 18 18 17 17 17 18 19 19 20 21
19 22 23 21 21 19 19 17 13 9 8 7 5 4 2 1 1 1 2 3 5 6 7 7 8 9 10 10 10 10 9 9 10 12 14 15 16 16 17 17 17 16 16 15 15 14 14 15 16 17 19 20 21 21
28 24 21 20 18 16 13 11 11 10 7 5 4 2 1 1 2 4 5 6 8 9 9 11 11 12 12 11 9 9 10 12 14 15 16 16 16 15 15 15 14 13 12 12 13 13 15 16 17 19 20 20 21 22
24 21 19 16 15 15 12 10 9 6 4 2 0 1 2 3 5 6 8 10 11 11 12 11 11 10 8 8 9 11 13 15 15 15 15 15 14 13 12 12 12 13 13 14 15 16 17 18 19 20 20 21 22 22
22 18 15 14 15 14 11 8 5 3 1 1 2 4 5 5 6 8 9 10 10 10 9 9 9 9 9 10 12 12 12 13 13 12 11 10 10 10 11 11 12 13 14 16 17 18 20 20 21 22 22 22 22 23
18 15 13 14 13 10 7 4 2 2 3 4 5 5 4 6 7 9 8 8 8 8 9 9 9 10 11 11 11 11 10 9 9 8 8 9 9 10 10 11 13 14 16 17 18 19 20 21 22 23 23 23 24 24
17 15 12 10 9 6 3 3 2 4 5 6 5 5 6 7 7 8 8 8 8 8 8 9 9 9 10 9 8 8 7 7 8 8 8 9 10 11 12 13 14 15 16 16 17 18 20 21 22 22 23 24 24 24

GFSWCAN_700_spd_036.txt.gz
Wind_Speed
26 28 26 27 27 29 30 25 27 31 29 37 38 48 47 52 49 50 45 43 55 48 35 42 35 36 39 39 39 32 36 43 43 36 43 25 17 21 22 18 16 17 9 13 21 22 18 10 25 29 28 35 24 15
22 20 18 17 17 18 15 18 19 22 24 35 36 43 42 48 49 42 37 48 49 51 16 39 38 38 36 32 37 36 46 32 47 44 22 28 15 19 24 18 13 16 27 16 8 18 17 19 25 16 23 18 17 18
18 11 12 12 12 11 8 6 7 19 26 35 38 40 38 43 45 46 42 41 44 40 40 28 30 28 26 34 37 33 42 41 31 28 20 18 14 20 19 23 22 20 20 24 19 17 10 19 27 27 22 19 20 17
9 7 8 9 6 6 9 15 20 25 29 32 35 38 37 42 39 44 34 40 43 33 19 22 28 23 36 33 42 50 38 30 39 23 27 23 22 15 21 25 29 28 29 17 20 19 18 19 11 12 21 21 22 23
4 6 9 8 9 11 17 21 25 29 30 37 38 37 37 38 38 33 35 34 38 42 25 10 19 22 26 39 44 36 39 28 42 42 27 27 23 17 12 20 26 24 30 29 29 27 21 24 22 15 19 20 19 24
7 7 6 10 10 15 22 25 26 31 33 34 36 31 37 32 35 36 42 35 38 41 10 17 21 24 25 24 40 32 35 32 38 14 31 21 18 16 13 25 27 22 22 23 27 22 24 24 17 25 30 28 16 23
16 11 13 14 15 22 26 25 28 30 32 34 37 38 35 38 39 36 35 28 29 26 14 7 7 21 26 27 28 40 40 34 29 29 28 21 19 18 21 23 15 13 18 23 26 26 29 34 27 23 25 24 26 26
19 24 23 18 18 21 25 27 28 31 38 38 35 31 30 35 36 28 22 28 24 24 17 5 5 7 21 26 27 45 40 30 28 17 18 20 16 12 13 9 8 14 26 23 19 18 22 29 26 26 24 26 31 27
20 19 24 24 27 27 30 29 32 32 34 33 30 29 27 24 24 22 15 16 25 24 14 7 9 7 17 21 28 29 42 30 20 27 17 12 17 13 18 17 18 19 19 21 32 29 27 26 30 29 28 26 24 27
16 20 21 25 27 29 30 32 31 31 29 27 27 27 24 22 19 16 14 17 18 18 12 18 19 13 5 22 30 28 31 27 22 33 22 27 15 15 22 19 21 21 25 22 20 22 23 25 31 33 31 29 29 26
21 22 23 26 26 28 29 25 27 30 28 25 22 20 20 18 14 8 6 6 5 4 7 20 21 12 10 23 30 26 27 25 13 17 22 11 23 27 28 26 29 28 23 23 26 28 27 22 21 25 30 33 35 36
18 20 22 21 24 25 26 27 27 24 21 19 19 18 18 10 5 3 6 5 5 3 2 9 16 15 15 21 31 38 9 15 10 19 20 7 4 17 28 33 34 29 32 33 34 32 32 32 27 29 30 27 25 26
17 20 22 23 24 24 23 23 21 21 17 15 20 20 6 3 4 4 4 4 3 4 5 8 8 2 17 23 15 19 12 11 18 11 8 2 7 7 12 24 33 39 39 39 40 38 38 38 38 37 35 32 30 28
24 25 23 21 22 23 22 21 21 23 26 12 8 5 4 4 3 9 11 10 5 6 4 3 1 3 7 7 11 6 5 6 6 6 5 7 5 4 5 10 17 22 25 27 29 28 29 31 31 30 31 29 27 25
25 31 30 28 22 21 25 24 17 7 4 5 5 5 6 8 8 13 10 8 6 6 3 1 1 5 4 8 6 5 4 8 7 6 3 5 6 6 5 4 3 2 2 2 3 3 5 6 6 7 7 4 3 3
27 26 22 13 13 18 18 17 14 6 6 4 5 6 4 4 5 9 11 10 7 5 6 4 3 3 5 6 5 6 5 6 4 5 5 7 9 11 12 12 13 13 13 13 13 13 14 14 13 12 11 10 9 8
20 16 17 15 14 6 11 9 8 10 7 5 8 3 3 3 6 9 12 10 5 8 7 2 3 5 4 6 7 7 8 12 9 9 11 13 14 17 17 17 16 15 14 13 12 11 10 11 10 9 6 7 6 4
7 8 10 12 7 8 8 9 4 6 13 11 9 7 5 7 9 12 12 10 8 9 7 2 4 4 8 8 16 11 13 14 14 15 18 20 18 17 14 12 11 10 9 9 8 8 8 7 5 4 4 3 2 2
6 4 5 7 6 3 4 10 11 13 24 24 15 13 13 13 11 11 11 9 8 6 8 3 4 15 24 24 17 16 17 17 18 18 17 15 12 10 8 7 6 6 5 5 6 5 4 4 4 5 6 7 9 11
7 5 1 4 3 2 9 13 20 16 22 21 22 22 20 19 17 13 11 13 12 11 8 22 30 28 24 23 20 22 20 17 15 14 12 10 7 5 3 2 2 2 3 4 5 6 7 8 9 10 12 13 14 16
5 5 7 8 9 10 12 15 16 15 17 16 20 25 27 18 14 12 13 10 10 26 37 31 27 25 23 21 19 17 14 12 9 7 6 4 3 2 1 2 4 4 5 7 8 9 10 11 12 13 15 16 18 20
11 10 8 9 15 19 17 17 16 19 23 20 22 27 29 29 29 28 32 34 37 33 30 25 22 19 16 14 13 11 10 8 6 4 3 1 0 2 4 5 6 7 8 9 11 12 14 15 16 17 18 20 21 23
7 7 9 11 17 13 22 23 17 19 12 16 19 22 21 21 21 16 26 30 31 26 22 19 16 14 11 10 9 6 5 4 2 1 2 3 4 6 7 9 11 13 14 14 15 16 17 18 20 21 22 23 25 26
19 18 15 7 8 12 14 15 18 17 19 18 19 19 19 19 17 21 25 23 19 17 15 13 11 8 6 4 3 2 1 1 3 4 6 8 9 11 12 12 13 14 15 16 17 19 20 21 22 22 23 23 24 24
9 8 10 17 13 16 14 14 16 19 19 16 16 12 9 9 10 13 13 12 11 9 7 4 2 1 1 2 2 3 4 6 8 10 12 13 14 14 14 13 15 17 19 21 22 22 23 23 23 23 23 21 21 21
5 5 6 10 15 13 13 15 13 16 14 10 9 10 10 6 4 5 9 7 6 5 4 3 3 4 4 5 6 7 9 11 13 13 13 13 13 14 15 17 18 18 19 20 20 20 20 19 17 16 17 17 17 18
7 8 14 13 15 16 16 17 14 12 11 9 9 6 5 4 3 4 4 6 5 5 5 5 5 5 6 8 9 11 12 12 12 12 12 12 14 15 16 17 18 18 18 17 16 15 14 13 13 14 15 16 17 18
15 18 16 16 17 16 18 17 13 8 8 7 6 4 3 3 3 3 2 1 3 4 5 6 7 8 10 10 11 11 10 10 10 11 13 15 16 16 16 16 15 14 13 12 11 11 12 12 14 15 16 17 18 19
23 22 20 21 19 18 12 11 12 12 10 7 8 6 5 5 5 4 4 4 6 8 9 10 11 12 12 12 10 9 10 11 13 14 15 15 14 13 12 11 10 9 10 10 11 11 13 14 15 17 18 19 20 20
24 23 20 17 16 17 14 13 11 9 7 6 5 5 5 6 7 8 9 10 11 12 13 12 12 12 10 10 10 12 14 15 15 15 14 13 11 10 10 9 9 9 10 11 13 14 15 16 18 19 20 20 21 22
22 19 17 16 17 17 14 11 8 6 5 5 5 6 7 8 8 10 11 12 13 13 12 11 11 11 11 12 14 14 13 14 13 12 11 11 10 10 9 9 10 11 13 14 15 16 16 18 19 20 21 22 23 24
19 16 14 15 15 12 9 7 5 3 4 5 6 8 7 8 10 12 12 12 12 11 11 11 10 12 13 13 13 13 12 11 10 10 10 9 9 9 10 11 13 13 14 15 15 16 17 18 20 21 22 23 24 25
19 16 12 12 10 8 5 2 2 3 5 7 8 7 8 11 12 13 13 11 11 10 10 11 12 12 12 11 10 10 10 9 10 9 9 10 10 11 13 14 14 14 14 15 16 17 18 19 21 22 23 24 25 25

GFSWCAN_700_spd_039.txt.gz
Wind_Speed
23 24 25 28 28 27 26 28 32 36 40 40 41 43 46 46 45 53 56 62 61 47 24 47 50 38 37 35 43 42 35 38 34 30 30 20 26 25 21 25 21 19 11 16 10 15 11 10 20 28 30 23 23 17
17 20 24 21 24 25 25 24 26 28 29 33 37 41 44 47 49 50 55 53 46 45 38 31 43 42 35 34 34 36 37 38 27 31 34 32 24 23 39 31 23 23 18 13 14 12 9 17 16 21 24 23 12 20
16 17 15 17 19 18 18 21 24 24 27 27 31 33 40 45 49 53 55 42 40 43 21 27 38 34 32 36 38 37 35 32 30 35 27 29 21 31 11 26 25 17 15 10 14 17 21 17 18 27 25 22 15 18
16 9 11 12 11 11 10 9 2 7 17 23 26 27 36 39 45 48 43 38 38 41 16 39 20 36 36 26 31 34 33 20 26 33 31 28 21 13 31 25 19 22 20 23 24 20 13 14 21 23 27 27 18 20
6 8 8 9 8 5 8 8 10 17 23 25 29 33 37 42 44 42 37 35 38 34 29 29 19 26 33 34 34 28 33 30 25 33 40 52 39 19 22 28 26 25 22 22 27 20 19 23 29 24 20 36 22 19
5 5 7 7 9 11 15 15 19 25 27 28 31 33 40 43 38 34 34 34 33 24 20 19 20 24 25 21 27 30 27 41 35 33 33 30 40 23 17 15 19 18 18 15 19 17 21 27 20 18 19 18 13 22
9 8 12 13 17 15 19 24 27 30 30 32 34 38 36 35 34 33 31 38 30 20 12 13 15 20 22 19 26 30 28 35 27 28 43 36 29 28 21 13 15 18 22 25 26 27 26 29 24 25 25 25 24 22
17 14 18 17 13 16 19 22 28 34 32 35 39 40 39 33 27 24 22 29 24 28 13 8 8 15 24 22 21 19 18 32 25 24 29 34 38 22 21 32 30 24 20 24 26 27 29 30 25 27 28 23 25 22
21 22 20 17 14 24 26 27 31 34 37 42 40 40 34 30 26 23 20 26 22 21 10 9 10 7 18 24 21 15 15 25 27 23 14 18 23 16 11 23 21 20 21 24 28 34 30 26 24 26 26 26 25 23
19 26 25 25 26 31 32 31 30 28 28 35 36 30 24 21 20 21 22 21 18 15 10 10 8 5 19 20 16 14 11 20 16 31 9 15 7 19 21 21 21 18 19 21 20 20 21 22 26 25 26 29 29 26
25 25 28 30 27 29 27 25 26 28 28 25 21 29 29 27 21 14 9 6 6 4 6 14 13 15 6 18 19 16 9 11 13 10 10 11 16 19 19 18 22 23 21 18 19 20 23 21 22 21 19 16 16 17
22 26 28 28 29 26 23 24 20 21 23 22 27 27 23 11 8 7 8 8 5 5 5 1 10 21 7 16 16 14 13 10 6 12 11 7 9 12 20 27 32 29 26 29 29 27 24 25 28 28 26 25 22 24
17 19 21 22 22 22 22 19 17 19 18 22 22 12 6 5 6 5 4 6 5 8 4 6 7 9 12 13 11 12 8 7 9 13 5 1 5 8 12 14 19 24 27 31 33 36 35 33 35 34 32 32 32 26
19 20 19 20 20 19 17 15 14 15 16 14 7 7 5 5 5 6 10 11 8 10 6 5 7 4 15 13 8 9 8 7 6 6 3 2 2 2 3 3 4 6 8 9 11 14 14 16 17 19 20 19 18 18
20 20 18 16 16 15 15 18 18 8 12 8 4 6 8 12 14 12 12 10 8 8 6 11 5 8 12 9 8 7 5 6 6 7 4 4 7 7 7 9 8 9 9 8 9 8 8 9 8 5 8 10 9 8
26 18 17 12 12 15 19 16 9 10 8 5 5 11 12 11 13 12 9 6 6 6 3 2 3 4 7 6 6 7 6 5 9 7 7 11 13 14 16 18 19 18 18 18 17 17 16 15 14 15 13 11 11 10
16 18 16 13 9 10 12 13 8 4 3 5 6 7 9 7 8 9 8 6 5 5 4 6 5 7 5 7 8 7 10 15 12 13 16 17 20 21 19 18 17 16 15 15 14 13 12 14 14 12 9 9 8 7
13 12 13 9 4 3 4 7 2 7 14 10 6 7 11 9 9 11 11 8 7 4 1 5 5 8 9 11 17 17 14 15 16 20 23 21 18 16 13 12 12 11 10 9 9 9 10 10 8 7 7 6 5 6
7 5 3 2 5 8 11 21 23 21 23 17 10 7 10 11 11 11 10 8 7 6 3 5 10 25 25 22 17 19 20 21 22 21 19 16 13 11 9 7 7 6 5 5 6 5 5 4 5 6 6 7 8 10
2 2 4 6 5 15 19 23 26 18 20 18 16 15 13 12 12 11 9 10 11 9 15 34 35 26 22 21 21 21 20 19 17 15 13 11 8 6 5 5 4 4 5 5 5 7 8 8 9 10 11 13 14 16
8 6 7 11 10 21 20 16 16 15 19 19 22 28 26 16 15 15 17 20 27 41 41 32 27 23 20 19 18 15 14 12 9 6 5 4 4 4 3 3 4 6 7 8 9 10 11 12 13 14 15 16 17 18
13 16 13 12 21 26 17 16 19 23 27 26 30 35 36 35 35 35 34 37 43 34 29 23 21 19 17 15 13 12 10 8 6 5 4 3 3 4 6 7 7 8 9 11 12 12 13 13 14 16 17 17 19 21
7 9 18 19 16 16 23 21 23 23 16 21 23 26 24 25 23 15 26 33 31 24 20 18 16 15 12 11 10 8 6 4 2 2 3 4 5 6 8 9 10 11 12 13 13 14 15 16 17 18 19 20 20 20
18 16 12 7 9 13 17 19 22 21 22 23 24 24 23 23 19 27 29 24 21 18 16 14 12 9 7 6 4 2 2 1 2 3 5 7 9 10 10 11 11 12 13 14 15 16 17 18 17 17 17 17 16 15
10 8 11 15 13 17 17 19 20 23 22 18 18 14 13 14 18 19 19 17 14 11 9 8 6 5 4 3 3 3 4 5 7 9 11 12 11 10 10 12 14 16 17 18 17 18 18 18 17 15 13 14 14 15
5 5 6 11 15 14 16 18 18 18 15 15 12 12 12 10 7 7 10 9 7 5 4 4 4 4 4 5 7 8 9 11 13 13 13 13 14 15 16 17 17 17 18 18 18 17 15 13 12 12 12 13 15 16
8 10 15 14 15 17 19 19 15 12 13 10 11 8 6 4 5 6 6 5 3 2 2 3 4 5 6 8 9 11 11 11 11 11 11 12 14 15 16 17 16 16 16 14 12 11 10 11 11 12 14 15 16 17
16 17 17 17 16 15 17 16 13 9 10 8 7 6 4 4 7 7 5 3 1 1 3 4 5 7 8 9 10 10 10 9 9 10 12 14 15 14 14 14 13 11 10 9 9 9 10 11 13 14 15 16 17 18
21 20 19 18 16 15 12 11 13 14 13 10 11 12 11 10 8 7 5 3 2 3 5 7 9 10 10 10 9 9 10 11 13 14 14 12 11 11 11 9 9 9 9 9 10 11 13 14 14 15 16 17 18 19
22 21 20 17 15 17 16 15 15 13 11 11 10 9 9 9 8 8 7 7 8 9 9 10 10 10 9 9 10 11 12 13 13 12 11 10 9 9 8 8 8 9 10 12 13 13 13 14 14 15 16 17 18 19
21 18 15 15 17 18 17 14 12 10 10 8 8 9 8 9 9 10 10 10 10 10 10 10 10 11 11 12 12 11 12 13 11 10 9 9 8 8 8 9 10 11 12 13 13 13 13 14 15 16 18 20 21 22
18 15 13 15 17 15 12 10 9 7 7 7 8 7 7 8 10 11 11 11 10 10 9 9 10 11 11 12 12 11 10 10 10 10 9 9 9 9 10 11 12 13 13 13 13 14 15 16 17 19 21 22 24 25
21 18 14 14 13 10 8 6 6 5 5 6 6 6 7 8 9 11 10 9 9 9 9 10 10 10 10 10 10 10 11 10 10 10 10 9 10 11 12 13 13 13 13 14 15 16 18 19 21 22 24 25 26 27

GFSWCAN_700_spd_042.txt.gz
Wind_Speed
18 18 19 20 22 25 28 30 30 32 34 35 36 39 39 40 44 53 53 53 52 51 35 32 53 48 48 42 40 41 34 33 30 37 29 26 19 25 26 20 16 13 10 14 12 10 15 22 5 7 17 19 24 24
17 16 17 21 20 21 24 26 28 29 31 32 37 39 40 41 43 47 54 52 50 46 34 26 24 30 42 40 33 36 35 30 29 27 30 21 27 15 26 24 27 23 25 16 20 22 23 21 25 11 8 26 19 20
12 16 20 15 17 19 21 23 25 27 31 34 34 37 42 42 44 47 51 52 50 43 43 43 29 16 29 33 30 28 32 31 29 35 28 27 24 27 19 27 28 28 27 32 26 24 14 20 27 18 15 15 18 22
13 15 12 13 15 14 15 17 19 21 24 29 32 30 36 41 42 48 50 49 50 46 43 44 41 43 25 32 27 30 30 30 33 33 36 27 26 33 29 29 25 17 22 28 31 27 25 18 24 26 15 18 24 17
12 8 7 8 8 7 7 8 6 6 11 18 25 32 35 36 41 47 46 46 37 39 26 41 28 43 42 35 40 34 31 33 30 29 42 33 31 21 22 19 22 32 29 26 27 18 23 18 14 18 19 23 30 34
3 2 6 3 6 7 3 6 9 12 16 20 24 28 34 36 38 43 45 40 34 32 13 30 22 20 29 33 30 32 31 31 33 44 44 39 34 29 23 25 24 26 26 24 21 20 15 14 17 19 16 18 17 33
5 9 12 9 10 12 10 17 17 20 23 25 30 34 37 39 42 43 41 39 38 37 18 17 19 21 23 26 28 29 34 33 35 40 23 29 26 28 33 34 26 24 25 24 22 21 24 24 21 19 21 21 22 18
13 16 13 14 16 17 25 25 23 26 30 36 40 40 39 36 30 33 31 31 29 10 12 10 15 25 26 27 23 19 15 14 17 23 37 18 23 24 20 31 39 26 24 23 22 26 28 28 27 24 22 20 22 19
17 19 20 20 21 21 25 28 34 38 38 37 39 34 32 24 33 28 25 24 19 16 7 10 17 18 22 19 16 13 12 15 17 20 22 18 20 17 16 14 22 31 31 28 26 26 26 25 26 22 20 20 19 18
25 27 23 26 25 23 28 31 35 34 44 36 37 35 28 29 31 33 29 21 13 16 12 15 13 10 25 25 22 16 11 11 7 14 16 22 14 26 21 24 15 25 22 25 24 21 21 21 19 19 21 21 21 20
27 28 30 30 30 29 27 30 27 25 27 29 36 37 31 30 26 16 9 8 7 7 9 8 5 5 12 19 21 12 8 6 5 6 8 6 8 11 12 14 15 18 21 18 14 21 22 21 19 17 17 16 16 18
26 28 30 33 30 29 30 30 28 24 25 26 31 31 26 18 9 7 8 8 5 5 8 11 11 10 8 19 16 11 7 9 4 16 10 6 2 4 8 11 13 18 23 24 22 26 27 21 20 19 21 21 21 23
19 20 23 27 28 25 23 22 24 28 29 28 19 11 6 5 5 6 5 6 6 8 9 9 9 12 11 7 11 8 8 6 8 12 5 2 4 7 9 11 14 14 16 24 25 27 29 29 29 27 26 26 26 22
19 17 17 19 19 18 20 20 24 26 20 12 7 6 4 5 5 7 11 12 10 8 7 8 7 6 9 11 8 5 9 12 7 4 4 2 1 2 2 3 3 6 9 10 7 6 7 9 11 10 10 10 7 8
13 13 13 13 15 16 17 17 16 15 10 4 4 4 5 10 14 12 12 10 9 9 7 5 6 8 13 5 7 6 5 6 5 6 7 7 6 8 11 12 11 10 11 13 14 13 14 14 12 11 13 12 10 9
13 9 8 8 10 14 19 10 11 12 8 3 4 10 11 12 12 11 7 5 11 8 6 6 6 5 5 6 5 5 6 5 10 12 11 14 15 17 18 20 20 19 17 17 16 15 15 14 14 13 12 11 10 9
17 15 10 7 6 12 16 10 10 6 6 7 8 8 8 11 10 8 8 6 7 7 6 6 5 4 6 6 5 6 12 22 17 16 17 20 22 21 18 16 15 14 13 12 12 11 11 11 12 10 7 8 8 6
13 11 9 4 2 15 17 10 4 5 15 13 6 7 7 9 10 10 10 7 6 2 2 9 9 10 7 9 28 26 22 22 21 23 23 21 18 15 13 11 11 10 9 9 9 9 9 9 7 6 6 6 5 6
5 5 6 6 6 13 17 9 13 14 14 10 9 7 6 7 8 7 5 5 5 3 3 9 13 29 30 27 26 25 24 23 24 23 19 16 13 11 9 8 7 6 6 6 7 7 7 7 7 8 8 9 9 10
6 6 6 5 13 26 25 24 23 16 18 16 10 8 7 8 7 6 6 5 4 2 34 38 34 27 27 26 22 22 22 20 17 14 13 12 10 8 6 5 5 5 5 6 7 8 9 10 11 12 12 13 14 15
4 10 15 15 20 28 21 20 21 21 26 27 19 16 16 10 7 7 8 11 18 38 40 32 28 26 24 24 22 19 17 15 11 9 7 6 5 5 4 4 6 7 8 9 10 11 13 13 14 14 15 16 17 18
15 19 20 21 29 30 22 20 21 23 30 29 33 35 35 34 32 34 35 34 40 34 32 26 25 22 20 19 17 14 12 10 7 5 3 2 2 4 5 6 8 9 11 12 13 14 15 16 16 17 18 19 19 20
20 17 22 25 18 16 25 24 23 23 15 25 27 29 26 27 28 27 34 37 34 28 25 22 20 18 14 14 12 9 7 5 2 1 2 3 5 7 9 11 12 13 14 15 15 16 17 18 19 19 19 19 18 17
15 16 13 7 10 17 22 22 22 23 25 26 28 28 28 28 27 36 33 28 26 22 19 16 15 11 9 8 6 4 2 1 2 4 6 8 10 12 13 13 13 13 13 14 15 16 15 15 16 16 15 13 11 10
9 9 12 17 13 17 17 22 26 28 24 21 22 16 14 13 18 22 24 22 19 15 12 11 9 7 6 4 2 1 2 4 6 7 10 10 10 11 11 12 13 14 15 15 16 16 15 14 12 10 9 10 11 12
5 6 7 12 18 16 17 23 23 22 20 18 17 17 17 11 10 10 16 17 17 14 10 8 6 4 2 2 4 7 9 11 12 12 12 12 11 11 12 14 15 15 15 14 14 13 10 9 8 9 10 11 13 14
9 12 17 17 19 22 21 20 19 17 17 12 14 12 8 6 5 9 12 11 11 9 6 3 2 3 5 7 9 10 12 13 12 12 12 13 14 15 15 15 14 14 13 11 9 8 8 8 10 11 12 13 14 16
20 19 20 21 20 20 21 19 16 14 12 9 8 6 4 5 10 11 9 8 6 3 2 1 4 6 8 9 9 9 9 9 9 10 13 15 15 15 15 14 12 10 9 9 8 9 10 11 12 13 14 15 15 16
26 25 23 23 19 17 14 14 16 17 15 13 13 14 15 13 11 9 7 5 3 1 1 3 4 5 6 7 7 8 9 10 11 12 11 11 12 12 10 9 9 8 8 8 10 11 12 12 13 14 15 16 17 19
25 24 22 19 16 19 18 17 17 16 14 14 11 12 12 12 10 8 5 3 2 2 3 4 4 5 6 8 9 10 12 13 13 12 11 10 9 9 8 8 8 8 10 11 12 12 12 13 13 14 15 17 19 21
22 20 17 15 19 22 20 18 15 14 13 11 10 11 9 9 8 6 5 4 3 3 3 4 4 4 5 7 9 11 10 10 9 9 9 8 8 7 7 8 10 11 11 12 12 12 13 14 15 17 19 20 22 23
19 15 13 16 20 19 17 16 14 10 10 9 8 8 7 6 6 6 5 4 2 3 4 5 6 7 7 7 7 8 9 9 8 8 8 7 7 8 9 10 11 11 12 12 13 14 15 16 17 19 21 23 24 26
21 19 16 18 18 17 13 11 10 8 7 7 7 5 4 5 5 5 4 4 4 4 3 4 5 6 7 7 7 7 8 8 8 8 7 8 9 9 10 11 12 12 12 13 14 15 17 18 21 22 24 25 26 27

GFSWCAN_700_spd_045.txt.gz
Wind_Speed
23 23 23 23 21 21 22 24 27 30 31 32 34 33 32 37 43 46 47 43 50 55 49 34 22 23 33 43 44 36 24 24 22 28 27 23 17 13 22 18 18 17 13 15 14 9 14 10 16 13 22 11 11 23
18 22 23 19 18 20 23 23 24 26 28 32 34 34 36 37 37 47 47 50 43 41 42 46 44 18 27 26 24 33 33 27 24 28 33 23 23 15 19 22 21 24 23 11 17 16 19 22 28 30 27 31 5 12
21 18 13 17 18 16 18 20 22 24 27 29 30 32 39 38 37 41 46 49 47 45 47 42 40 38 23 35 24 31 31 26 26 27 31 26 23 20 28 27 21 29 33 35 32 34 24 28 17 23 22 29 5 11
10 14 16 13 14 17 18 19 21 23 26 28 31 33 34 39 41 41 43 44 45 46 43 34 33 38 18 24 27 27 28 23 30 24 28 29 31 31 35 27 29 21 25 28 38 39 32 25 27 21 18 20 21 13
9 5 7 8 10 10 10 13 15 18 22 28 31 35 36 38 40 40 42 42 42 42 22 39 35 33 32 22 24 28 30 30 25 26 27 31 34 28 23 27 35 32 33 28 26 23 25 23 22 18 17 17 19 11
4 4 6 3 5 6 2 5 7 8 12 20 28 33 36 37 41 42 40 41 38 33 34 25 11 22 36 43 39 27 21 28 25 27 31 36 38 26 19 26 34 31 32 33 32 32 25 27 20 19 20 21 20 18
4 6 4 6 3 3 6 4 5 6 14 17 27 35 36 42 48 51 45 40 33 31 32 27 23 17 28 32 43 40 27 28 29 31 35 37 35 29 34 29 21 19 22 24 25 29 26 24 25 23 24 21 22 22
11 10 12 14 14 11 11 13 14 18 20 25 30 36 36 43 40 44 37 34 33 32 30 8 10 19 22 27 28 33 29 33 33 31 35 34 29 33 30 35 39 36 34 30 29 28 30 24 26 24 28 28 25 22
12 15 19 21 20 21 26 25 26 30 32 35 36 36 38 36 43 32 24 22 25 26 21 7 18 22 20 31 29 27 29 29 29 24 24 20 30 8 22 22 28 34 37 35 30 30 23 24 25 26 27 25 24 22
19 21 20 19 22 27 32 33 32 34 34 31 34 36 34 29 29 22 19 21 31 23 3 13 21 17 25 24 22 21 15 8 14 13 9 13 15 18 18 19 15 16 14 23 32 35 27 27 26 22 20 20 19 19
21 21 25 26 29 28 28 27 26 32 31 18 30 36 31 27 27 17 10 9 10 8 11 17 12 17 25 26 23 15 11 8 8 9 11 9 8 11 17 17 24 26 19 20 23 24 23 24 23 22 23 20 21 21
24 24 21 23 26 23 25 24 24 25 19 33 41 36 26 13 6 7 9 9 8 8 15 16 15 17 19 22 15 12 7 9 6 15 11 7 6 8 9 13 13 14 16 15 16 21 16 24 26 26 21 21 24 19
24 26 25 23 23 24 21 21 23 27 28 28 20 11 7 5 5 6 4 6 7 15 15 18 19 17 17 18 11 10 7 6 7 11 6 8 9 9 8 11 10 12 13 15 19 19 17 24 26 24 23 22 21 19
20 22 22 22 21 20 25 24 27 27 16 9 4 5 4 5 6 10 16 15 15 14 13 15 14 13 11 14 9 8 10 11 7 5 6 9 6 4 4 6 8 8 9 8 8 9 7 6 6 7 8 7 4 4
10 12 13 18 21 23 25 23 20 13 5 3 4 5 9 16 17 17 14 16 14 13 14 14 13 11 12 8 9 7 9 5 5 8 14 9 7 7 6 6 8 8 10 12 13 13 13 11 10 10 12 11 9 8
7 6 7 10 15 17 16 14 11 6 3 4 7 15 15 14 13 11 9 9 12 13 13 12 8 7 6 6 6 4 6 4 13 16 15 17 17 17 18 19 18 17 17 17 17 16 15 14 13 13 12 11 10 9
9 8 9 9 12 15 14 12 9 2 4 8 11 13 12 11 9 8 7 9 14 14 13 8 7 4 7 6 6 7 8 22 20 20 22 22 22 21 19 17 17 15 14 13 12 12 11 11 11 10 8 7 6 5
10 10 8 8 10 15 12 10 5 2 9 14 9 10 8 7 4 2 2 2 3 5 10 11 11 8 7 7 14 28 26 25 25 25 25 23 19 17 15 13 12 11 10 9 8 7 6 6 5 5 5 6 7 7
3 3 4 7 10 14 18 12 4 6 9 9 8 7 5 3 2 2 3 3 2 5 10 13 9 18 25 30 30 27 25 24 25 23 20 18 15 13 11 9 7 6 5 3 3 4 4 5 6 7 8 9 10 11
8 6 4 7 11 23 22 10 10 10 12 10 9 8 7 6 5 3 1 2 5 17 39 40 37 32 31 29 26 26 25 22 17 14 13 12 10 9 6 4 2 2 3 5 6 7 8 9 10 11 12 13 14 15
4 12 13 12 20 25 16 17 16 18 16 17 14 11 15 13 12 17 27 35 36 46 46 38 35 33 31 29 27 22 19 16 13 11 8 6 4 2 1 2 4 6 7 8 10 11 12 13 14 15 15 16 17 18
17 19 18 20 28 30 19 18 21 22 25 27 28 32 35 35 37 38 37 40 45 38 37 32 30 27 25 23 20 17 13 11 8 6 3 0 2 3 5 6 8 10 12 13 14 15 15 16 17 17 18 19 19 19
27 23 21 24 20 17 22 24 24 25 20 28 32 34 33 33 31 25 30 37 36 30 27 25 23 20 16 15 13 10 7 5 2 1 3 5 6 8 10 12 13 14 15 15 16 16 17 17 18 18 19 18 18 17
11 12 12 8 10 18 24 26 30 27 23 23 26 26 28 31 28 32 34 32 28 25 22 20 18 13 10 8 6 3 2 2 4 5 8 9 11 13 13 13 13 13 14 15 15 16 17 17 17 16 15 12 10 11
10 11 14 20 13 20 19 23 24 26 31 29 30 24 21 19 24 27 26 25 23 20 17 14 12 9 8 5 2 2 4 6 8 10 12 12 13 12 12 12 13 13 14 15 15 14 14 13 11 9 9 9 9 11
7 7 8 14 22 22 24 27 26 26 24 22 22 24 22 13 8 10 18 19 18 16 13 10 8 5 3 2 3 5 8 10 11 12 12 12 12 12 13 14 15 15 15 14 13 11 9 8 8 9 10 11 13 13
8 13 19 20 22 23 22 23 19 16 15 12 18 13 6 5 5 13 14 13 12 9 7 5 3 1 3 6 9 10 12 13 13 13 13 13 14 15 15 15 14 13 12 10 9 9 9 9 10 11 12 13 14 14
20 20 22 22 20 19 21 20 17 12 11 10 8 5 4 5 13 14 12 9 7 4 2 1 2 5 7 8 10 11 12 12 13 13 15 16 16 15 14 12 11 10 9 8 8 8 10 11 11 12 12 13 14 15
25 25 23 22 22 20 15 14 17 17 15 13 13 13 16 15 14 12 9 6 4 3 3 4 5 7 7 7 7 8 10 11 12 13 13 13 12 11 11 9 9 8 8 9 10 11 12 11 12 12 13 15 16 18
27 26 25 20 19 21 19 18 18 16 16 14 11 12 13 13 11 8 7 4 3 3 4 5 5 5 6 7 7 7 8 8 9 9 8 8 7 8 7 7 7 8 9 10 11 11 11 12 12 13 15 17 19 21
25 22 19 18 21 23 21 19 17 15 14 12 13 11 9 8 7 5 3 2 2 3 3 3 4 5 6 7 7 7 8 9 9 9 8 8 8 7 8 9 10 11 11 11 11 12 13 14 15 17 19 21 23 25
20 18 15 18 22 21 19 18 15 12 11 10 9 8 6 5 3 2 1 1 2 3 3 3 4 5 6 7 8 8 8 8 9 9 9 8 8 8 9 10 11 12 12 12 12 13 14 15 16 19 21 23 25 26
20 19 18 20 20 18 15 14 12 10 9 9 6 4 3 2 2 3 3 3 3 4 4 4 4 5 6 7 8 9 9 9 9 9 9 9 10 10 11 11 12 12 12 12 14 14 15 17 19 21 23 25 26 27

GFSWCAN_700_spd_051.txt.gz
Wind_Speed
31 35 37 34 34 33 30 27 28 27 25 26 33 37 39 40 38 37 38 42 44 47 46 38 36 38 25 29 33 25 24 27 22 25 20 14 11 12 14 9 7 14 15 15 17 10 12 4 7 4 9 15 17 22
26 27 21 21 22 22 22 22 21 23 26 29 29 30 35 35 33 37 43 41 39 41 37 38 36 23 24 24 25 31 26 17 21 18 18 13 14 11 13 9 15 14 19 16 18 13 9 6 8 16 22 25 26 25
27 23 19 17 17 19 22 26 26 26 26 26 22 25 30 33 32 34 40 38 35 39 35 35 31 23 29 21 21 25 22 28 23 19 15 13 13 12 16 20 16 16 18 26 24 28 25 25 28 30 32 35 36 27
15 12 10 11 12 15 16 18 21 22 22 24 22 25 28 29 30 33 36 36 34 34 31 16 27 26 15 24 23 23 26 23 28 23 26 25 17 13 16 16 17 14 17 23 30 29 26 25 29 26 17 19 23 25
12 11 12 12 12 11 12 14 16 16 16 17 21 23 28 29 30 31 30 34 35 34 11 25 11 18 20 26 27 22 20 18 18 25 27 20 28 19 17 18 19 20 21 24 29 28 29 29 28 27 26 28 31 29
12 13 10 10 11 11 13 15 17 19 22 23 23 22 21 24 27 28 27 28 27 31 25 16 16 9 25 32 31 26 30 29 29 33 30 30 28 19 16 23 26 29 28 27 27 29 31 36 36 38 35 33 27 28
9 13 10 6 7 11 12 14 16 17 21 24 26 27 27 22 30 35 25 31 26 23 23 19 18 19 6 24 26 29 30 30 30 32 33 24 16 29 26 25 29 23 21 24 27 25 22 28 32 30 29 23 24 27
9 14 10 7 6 3 6 12 14 14 20 24 28 28 28 25 27 35 12 17 25 23 21 12 8 11 23 23 29 30 29 31 17 23 18 13 32 21 22 34 34 32 27 27 27 31 31 30 29 27 23 25 23 26
13 13 17 16 17 9 9 10 14 19 23 27 33 33 30 29 28 27 13 11 7 24 14 10 12 11 10 22 24 25 30 21 16 18 19 11 16 22 28 32 32 30 31 28 31 29 29 29 26 31 33 31 32 31
15 13 17 20 22 20 19 20 18 21 31 39 42 38 35 32 24 25 24 17 8 19 20 18 15 14 12 22 24 24 22 18 9 21 19 25 26 29 30 32 34 33 34 28 22 24 25 30 32 29 30 29 30 30
15 15 21 15 21 23 23 30 29 36 41 44 29 31 36 39 27 11 10 9 9 7 15 22 20 18 16 25 26 21 15 12 10 11 14 8 18 28 25 25 29 34 31 29 27 21 16 18 20 24 25 24 23 24
15 15 15 15 23 28 28 29 30 37 37 37 36 37 28 19 11 7 11 8 7 8 7 10 16 19 16 22 16 18 13 13 8 16 12 7 15 17 22 22 21 22 22 22 22 22 22 25 24 22 20 20 18 17
11 12 15 16 19 37 29 24 27 29 32 34 34 25 15 5 5 7 10 9 8 9 12 10 13 14 17 14 7 8 7 7 9 12 7 10 15 17 16 17 19 19 18 18 14 13 13 14 14 13 12 12 11 11
10 11 12 16 34 35 31 29 23 20 24 18 11 8 5 4 5 7 13 14 11 11 16 15 13 9 12 6 6 5 7 8 7 5 7 10 12 12 11 12 12 11 10 6 3 3 2 1 1 2 5 8 8 6
8 10 9 11 30 24 18 18 16 11 2 6 7 5 6 8 14 15 14 12 12 17 18 16 13 8 13 5 5 5 8 6 8 8 10 12 10 8 6 4 3 2 5 9 12 12 12 13 12 12 14 14 13 13
7 7 8 10 12 12 11 5 7 9 3 3 4 14 17 14 16 16 15 13 14 15 16 14 10 4 6 3 6 5 7 5 7 10 12 11 11 11 13 15 17 18 17 16 15 14 14 14 13 12 11 9 8 7
5 6 7 8 9 8 8 6 2 8 3 7 12 16 13 12 12 13 12 15 16 17 18 8 8 6 6 5 6 7 6 8 13 15 17 20 21 22 21 19 17 15 13 12 10 9 7 6 7 7 6 6 7 8
7 7 8 9 9 8 4 2 1 7 16 16 13 12 9 9 9 11 11 12 15 16 17 9 4 6 4 4 6 11 17 18 21 24 25 24 20 18 15 13 12 10 8 6 4 3 3 4 5 6 8 9 9 10
6 7 8 8 10 9 7 7 7 9 14 13 11 8 6 7 8 9 9 13 15 15 15 9 3 6 4 9 19 22 24 24 25 26 23 20 17 14 11 9 7 4 2 1 4 6 7 8 9 10 10 11 12 13
7 8 8 10 12 10 5 9 10 9 11 11 8 4 1 5 8 10 10 11 11 13 11 7 14 24 27 26 26 27 26 24 20 18 16 15 12 10 7 4 1 2 4 6 8 9 10 11 12 12 13 14 14 15
9 11 14 13 12 11 6 7 9 11 12 16 15 19 19 11 8 12 16 13 13 21 39 35 33 32 31 30 27 23 21 18 15 12 8 6 4 3 3 4 5 7 9 10 12 13 13 14 14 14 14 15 15 16
11 13 15 18 16 10 7 8 9 13 19 22 25 27 28 29 32 32 34 40 43 38 36 33 31 29 26 24 21 18 15 12 10 7 5 2 3 5 7 8 10 12 13 14 14 13 12 12 12 12 13 13 13 13
20 16 18 21 13 7 15 18 16 17 13 28 30 31 31 36 37 31 29 40 38 33 29 26 24 22 17 15 13 10 7 5 3 2 3 5 7 8 10 11 12 12 12 12 12 12 12 13 13 13 13 12 10 8
11 12 11 6 6 10 16 12 17 26 29 28 26 25 17 18 23 29 33 31 30 27 23 20 18 14 11 9 8 5 3 2 1 3 6 9 11 13 13 13 13 13 13 13 13 14 14 14 14 12 10 8 7 7
7 7 7 10 12 15 16 20 27 30 27 24 18 15 19 17 14 20 23 24 23 21 18 15 12 10 8 5 2 2 5 7 10 12 14 15 15 15 14 13 13 13 14 14 14 13 12 11 10 8 8 8 9 10
3 5 5 11 18 17 20 24 24 27 23 17 13 16 19 13 6 9 17 16 15 14 11 7 5 3 1 2 5 8 10 12 13 14 15 14 14 15 14 14 15 15 14 13 12 11 10 9 8 8 9 10 10 10
8 13 22 22 25 29 26 25 26 23 13 9 19 16 5 4 4 13 15 13 10 8 6 3 1 3 5 7 9 11 12 13 14 14 14 14 14 14 13 12 11 11 10 10 9 8 8 8 9 10 10 10 10 11
21 21 20 22 24 24 29 27 18 9 8 18 14 4 3 4 8 15 13 10 8 5 4 4 5 6 8 9 10 11 12 13 14 14 13 13 13 13 11 10 10 9 9 8 9 9 10 11 11 10 11 11 12 14
24 24 22 21 25 26 18 13 8 9 10 11 5 3 5 11 14 13 10 8 7 5 5 5 6 8 9 10 11 12 13 14 14 14 14 13 12 12 11 10 9 9 9 10 11 11 12 11 11 12 13 14 15 16
25 22 22 22 20 14 12 8 11 12 11 10 9 9 11 11 10 8 7 5 4 4 5 6 8 8 9 10 12 13 13 14 15 15 14 13 13 12 11 10 11 11 12 12 12 12 12 12 13 14 15 15 17 19
23 21 19 18 15 15 17 16 16 16 15 16 15 12 10 8 7 5 3 1 3 4 6 7 8 8 9 10 10 12 13 14 14 14 14 14 13 11 11 11 12 12 13 14 14 13 13 14 15 16 17 19 21 22
21 18 15 13 19 19 18 18 16 14 14 12 11 10 7 6 4 2 1 3 4 6 7 8 8 8 9 10 11 12 13 14 14 15 14 14 13 12 13 13 13 14 15 15 14 15 15 16 17 19 21 22 22 23
18 19 17 19 22 20 17 16 14 12 9 9 7 5 4 3 3 3 4 5 7 8 9 9 9 9 10 11 12 13 14 15 15 15 15 15 14 14 14 13 14 14 15 15 15 16 17 18 20 21 22 22 22 23

GFSWCAN_700_spd_054.txt.gz
Wind_Speed
26 25 26 27 28 30 36 37 32 29 29 29 29 30 31 33 34 38 35 36 39 40 32 24 27 30 25 23 21 23 21 27 20 21 14 8 8 10 9 6 11 20 17 18 19 11 8 9 15 9 9 8 13 17
24 26 28 30 29 27 24 28 31 30 29 28 29 30 31 31 32 35 38 37 36 38 28 26 32 33 30 19 23 21 23 12 20 20 17 12 11 10 12 12 13 12 16 15 14 12 7 9 8 14 13 19 24 29
28 29 25 22 22 22 16 17 22 25 26 27 29 29 30 32 34 37 34 34 36 36 39 39 35 23 22 27 18 25 25 24 16 24 12 14 10 12 14 16 13 16 14 18 12 14 12 15 18 24 25 26 25 20
20 20 19 16 16 14 14 17 19 23 23 24 23 23 24 29 33 40 39 35 35 39 38 32 15 25 18 19 22 18 24 19 26 21 22 15 13 10 12 13 14 15 14 18 19 19 18 19 27 27 25 25 22 23
16 14 14 14 14 12 12 15 16 21 24 26 25 24 25 28 30 34 34 30 32 34 12 33 26 16 21 20 24 23 23 22 24 28 26 24 24 19 18 18 16 16 17 18 17 18 19 18 24 27 28 30 32 32
12 12 15 14 13 12 13 13 13 16 20 23 25 24 25 26 32 35 35 33 30 30 22 14 20 15 21 16 18 25 22 19 21 17 19 22 24 18 13 18 15 24 22 23 25 22 23 23 23 26 27 27 28 28
12 15 14 9 8 13 15 16 18 18 19 20 20 24 28 30 33 37 33 33 34 32 30 11 20 21 15 20 20 26 24 22 23 26 28 24 21 20 27 25 23 24 24 21 24 18 22 29 25 24 26 26 23 20
10 15 13 10 7 12 14 17 18 21 23 24 24 23 28 28 27 28 27 21 26 30 27 11 9 17 21 19 18 29 27 26 31 30 30 28 26 25 25 27 28 31 30 30 28 27 27 28 31 32 25 18 19 23
9 15 18 16 5 6 12 18 20 22 27 27 26 29 28 25 24 26 20 23 19 28 14 15 17 11 14 22 20 18 25 18 21 29 19 20 23 13 24 30 28 25 25 26 27 28 29 30 32 30 25 28 28 30
13 14 14 14 13 8 15 22 26 26 30 33 33 34 40 31 32 21 15 28 33 26 18 13 17 14 12 15 18 20 19 22 8 17 10 19 23 25 23 23 27 30 31 28 28 32 31 32 28 26 28 29 29 22
19 16 13 13 18 17 23 28 31 35 37 36 34 21 31 26 21 22 10 15 12 12 19 25 21 20 15 20 19 17 11 11 11 10 15 9 21 30 31 31 29 32 33 31 28 26 26 28 28 25 24 22 21 23
13 19 14 18 24 24 34 33 35 34 42 38 31 33 32 27 10 7 12 10 9 9 9 19 26 22 17 10 16 19 10 10 7 12 11 8 22 20 19 23 25 26 25 22 21 20 21 21 24 24 23 20 18 16
17 24 25 26 23 27 31 35 33 33 33 26 36 27 9 6 6 10 10 9 8 12 14 13 14 17 18 17 10 13 9 10 6 10 8 18 19 20 20 18 16 17 16 15 14 14 11 9 9 10 9 9 7 6
20 34 34 31 32 33 28 28 36 36 29 21 14 10 6 6 7 8 18 16 13 13 15 13 13 14 15 13 6 6 9 10 9 6 7 11 14 16 14 11 9 8 7 6 5 3 1 2 4 5 6 7 8 7
17 33 29 26 27 27 24 19 21 18 14 6 5 6 7 7 11 14 17 16 13 14 17 13 12 9 10 6 5 5 8 6 9 9 12 13 11 8 5 3 2 2 5 6 8 9 10 11 10 10 11 12 11 10
10 14 22 18 15 14 12 8 6 7 12 8 5 7 11 14 16 17 16 13 15 19 17 8 5 5 5 5 6 6 8 5 7 8 8 8 8 8 9 11 13 15 15 15 14 13 13 12 11 9 9 7 5 4
7 8 12 15 12 6 6 5 5 5 2 5 11 14 13 14 14 14 14 13 16 18 15 5 4 3 4 4 4 4 5 6 8 10 11 13 15 18 19 18 16 14 12 11 9 8 6 5 4 4 3 5 6 6
8 7 8 10 9 7 4 1 3 3 12 18 14 13 12 13 13 13 13 13 14 13 15 7 4 6 4 4 5 7 11 13 15 16 19 22 20 18 16 14 12 10 7 5 3 2 2 4 5 5 6 7 8 9
8 9 9 10 9 8 6 5 7 8 11 10 11 10 10 10 11 13 13 15 15 15 15 9 4 5 5 4 7 14 17 18 21 24 23 21 17 14 11 8 6 4 2 0 3 5 7 8 8 9 11 12 13 13
6 8 9 10 11 8 4 7 9 7 8 6 7 9 11 12 11 10 11 13 14 14 11 7 4 11 16 20 20 22 23 22 19 18 16 14 11 9 6 3 1 2 4 7 9 10 11 12 12 13 14 14 14 15
9 8 9 10 11 7 7 7 8 7 8 8 7 8 13 14 15 13 12 11 11 12 22 25 26 27 26 26 25 22 20 18 14 11 8 6 4 2 1 3 6 9 10 11 12 13 14 15 16 16 16 17 17 18
14 13 13 12 11 7 7 11 10 11 19 21 25 25 23 22 19 15 14 15 25 30 31 30 28 26 24 22 20 17 14 11 9 6 4 1 2 5 7 9 11 13 15 16 18 18 18 18 18 18 18 18 18 17
14 17 18 17 9 6 15 21 17 19 13 24 27 27 29 33 33 30 26 36 35 30 27 25 23 20 16 14 12 10 7 5 3 1 2 5 8 10 12 13 14 14 14 15 15 16 16 16 17 17 16 16 14 12
17 19 17 7 6 9 16 12 20 25 24 24 24 21 21 21 19 31 34 32 29 27 23 20 17 14 11 9 7 4 2 1 3 5 7 8 9 10 11 11 12 13 13 14 15 15 16 16 15 14 12 11 9 9
12 8 6 8 9 14 13 17 24 25 25 21 14 15 19 20 18 22 24 25 23 21 18 15 12 10 7 4 2 1 2 4 5 7 9 10 11 13 13 14 14 15 15 15 15 14 13 12 11 10 9 9 9 10
3 5 5 11 17 14 15 22 22 28 24 12 12 16 17 17 7 10 18 18 16 15 12 9 7 6 3 1 2 5 7 9 10 10 12 13 14 15 15 14 14 14 13 12 12 11 10 10 9 9 10 11 11 11
5 7 15 18 17 22 25 25 28 23 11 9 17 19 6 4 5 16 19 17 14 11 9 6 3 1 3 5 7 9 9 10 11 12 13 13 13 13 12 11 11 11 10 10 9 9 9 9 10 11 11 11 11 11
16 19 21 23 25 26 32 28 21 12 7 17 15 5 4 6 10 19 17 13 10 7 4 2 1 4 6 8 9 9 10 11 12 13 12 12 12 12 11 10 10 10 9 9 9 10 10 11 11 10 11 11 12 13
24 26 25 22 25 27 23 17 8 9 15 14 3 3 6 12 16 15 12 9 6 3 1 2 4 6 7 8 9 10 11 12 13 13 13 12 11 11 11 10 9 9 9 10 11 11 11 11 10 11 12 12 13 15
24 23 24 25 24 18 14 11 14 15 12 8 9 9 13 14 13 10 8 5 3 2 3 4 6 7 8 9 10 11 11 12 13 13 13 13 13 12 11 11 11 11 11 11 12 12 11 11 12 13 13 14 16 18
23 24 23 20 16 16 16 17 18 17 17 16 17 13 11 10 9 7 5 2 1 3 4 5 7 8 9 9 10 10 11 12 13 13 14 14 13 13 12 12 12 12 12 12 12 12 12 13 13 14 15 17 18 19
21 20 18 17 19 20 20 20 18 17 16 14 13 12 10 7 5 4 1 1 3 4 5 6 7 7 8 8 9 11 12 13 14 15 15 14 14 13 13 13 13 13 13 13 13 14 14 15 16 17 18 20 20 21
18 18 18 21 25 23 21 20 18 15 13 12 10 8 6 4 3 1 2 3 4 6 6 7 7 7 7 9 10 12 13 14 15 15 15 14 14 13 13 13 13 14 14 14 14 15 16 17 18 20 20 21 21 21

GFSWCAN_700_spd_057.txt.gz
Wind_Speed
25 24 25 28 26 28 32 28 28 33 36 29 30 32 33 33 38 41 38 37 37 36 29 29 18 16 16 17 19 14 14 16 16 23 11 12 9 8 11 7 19 25 20 19 24 16 16 8 13 10 9 4 1 3
22 25 29 32 31 30 32 29 29 28 33 32 31 32 32 33 33 36 36 35 33 37 27 26 31 27 28 22 19 17 20 7 13 13 13 9 7 7 9 11 12 17 22 16 18 19 5 5 11 11 14 11 14 18
26 29 29 27 25 23 22 23 27 25 28 32 32 32 34 35 35 35 29 29 33 32 30 31 24 24 26 24 20 26 22 26 16 13 18 14 11 9 11 13 9 15 17 12 13 16 15 10 4 15 15 19 22 25
23 21 21 21 19 19 18 18 18 17 24 29 30 30 31 31 31 30 31 31 33 31 32 22 17 20 15 22 19 23 19 21 15 15 17 16 10 8 9 12 10 11 5 14 13 11 9 5 11 23 22 25 27 27
19 19 18 18 17 16 15 14 13 15 21 26 28 29 30 31 33 32 28 30 30 31 11 15 15 17 19 14 21 20 17 18 16 18 22 16 14 10 14 11 10 10 11 12 9 14 15 9 15 21 22 25 26 29
19 14 15 17 17 14 13 14 15 19 24 25 27 26 24 27 29 28 37 35 34 27 35 22 10 10 19 17 21 18 21 20 22 13 18 23 21 19 8 10 12 16 20 20 18 14 13 19 26 25 23 27 25 26
8 11 12 12 10 13 14 16 14 19 23 26 27 26 24 26 31 38 38 35 33 33 31 26 16 10 14 15 14 17 21 20 20 21 21 16 18 14 19 16 10 14 17 20 22 22 24 20 24 24 28 27 29 32
11 15 15 11 10 12 17 18 19 18 21 27 27 27 29 26 28 30 34 29 33 31 31 8 7 15 17 17 15 15 14 19 21 20 15 17 15 18 15 18 24 28 23 25 21 20 27 28 26 26 27 28 31 31
15 7 7 16 2 12 20 23 23 23 24 24 25 29 31 28 34 23 26 21 22 30 29 18 14 11 19 18 14 12 14 20 18 22 22 21 25 17 13 24 24 24 26 26 23 24 26 29 30 27 29 30 29 26
8 12 8 5 3 15 24 26 26 27 28 31 32 37 34 32 32 23 23 20 22 29 26 21 20 15 13 15 17 15 10 12 8 17 16 22 17 22 28 24 22 21 22 22 24 26 27 30 33 32 31 27 25 24
10 15 14 15 17 22 28 28 31 34 36 35 37 31 31 27 29 23 11 17 12 13 24 19 17 17 13 13 14 13 7 7 7 14 9 6 12 27 30 29 27 28 30 29 27 27 27 26 26 23 24 25 23 22
15 13 17 21 23 28 29 31 33 34 36 32 36 35 35 23 11 6 11 9 9 10 11 24 20 17 15 12 11 11 6 6 6 11 10 7 15 18 21 24 24 22 21 19 17 18 20 20 19 19 20 20 20 20
18 21 24 23 26 30 31 30 30 31 31 37 38 26 17 7 6 8 9 9 7 16 16 18 22 22 15 13 6 6 8 8 5 8 7 12 16 21 23 21 20 20 16 15 14 15 16 14 13 12 14 12 9 8
28 31 25 25 28 30 27 29 29 25 39 18 14 8 6 7 9 11 21 21 15 15 15 13 18 20 22 15 12 5 10 7 7 6 8 16 12 15 18 15 13 12 11 9 8 8 7 4 2 2 2 3 4 4
27 27 30 28 26 31 28 26 27 22 16 11 6 5 8 6 12 12 19 19 16 15 18 16 16 14 21 10 10 6 8 6 9 10 18 12 12 10 8 7 6 5 4 3 3 3 5 7 7 7 8 8 8 7
21 23 24 25 23 20 24 23 14 15 8 4 5 5 10 13 15 18 21 20 18 16 17 15 10 9 8 6 6 6 7 5 9 11 10 9 8 7 7 7 7 8 9 10 10 10 10 10 8 7 5 4 3 3
18 14 13 8 4 7 7 10 19 15 7 6 5 11 12 15 18 19 19 18 20 22 15 5 4 3 6 4 4 5 7 8 7 9 9 9 9 9 11 13 13 13 11 10 8 6 5 3 2 2 4 6 7 8
11 13 14 10 6 7 4 3 6 6 10 13 16 17 17 17 17 17 16 18 21 21 15 7 5 5 5 4 5 8 8 9 9 10 12 13 15 16 15 13 11 9 7 5 3 1 2 5 7 8 9 10 12 13
9 9 11 11 8 4 3 2 4 8 13 14 15 15 16 16 15 14 15 15 15 15 12 6 2 3 3 4 3 7 9 10 13 16 18 18 16 14 11 9 6 4 1 1 4 6 8 10 11 13 14 15 16 17
8 9 9 10 9 4 1 3 5 8 11 12 13 14 14 14 14 15 14 14 13 13 10 6 4 4 4 8 11 13 16 16 16 16 14 12 10 8 5 3 1 3 5 8 10 12 13 15 16 17 18 18 19 19
7 9 10 11 9 2 2 5 3 5 7 9 12 14 14 13 12 11 12 13 13 12 10 12 14 15 17 19 20 19 18 16 13 11 8 6 4 2 1 4 6 9 11 13 14 15 16 17 18 18 18 18 19 19
10 11 10 11 6 1 3 5 7 9 13 11 13 17 18 15 13 10 10 10 14 19 22 21 21 21 20 19 18 16 13 10 8 6 3 1 2 5 7 9 11 12 14 16 18 19 20 20 20 20 20 20 20 19
14 14 13 10 4 4 11 13 12 14 9 18 23 21 20 20 19 17 14 22 27 25 24 22 21 19 16 13 11 9 6 4 3 1 2 4 7 9 11 13 15 16 17 18 18 18 18 19 19 19 19 19 18 16
16 17 12 7 4 6 9 12 21 20 22 23 25 24 21 19 17 24 30 29 27 26 23 20 18 14 11 8 7 4 2 0 3 5 7 9 11 12 13 13 14 15 15 16 16 17 17 17 17 16 16 14 13 13
11 10 6 7 8 11 12 19 22 25 22 18 17 17 18 20 20 24 25 25 23 20 18 15 12 10 8 5 2 0 3 5 7 8 9 10 11 12 13 14 14 15 16 16 16 16 15 14 14 13 12 12 12 13
6 6 8 12 15 14 16 21 20 21 17 13 14 17 21 17 7 10 20 19 17 15 13 10 8 6 3 2 2 4 5 6 7 9 10 11 12 13 14 15 15 15 15 14 14 13 13 12 11 11 12 12 13 13
5 6 13 16 17 20 25 22 26 16 11 12 19 20 10 5 6 15 19 17 15 12 10 8 6 4 3 3 4 6 7 8 9 11 12 12 13 14 14 14 14 14 13 12 12 11 11 12 12 13 13 13 12 13
8 16 18 18 21 24 29 30 21 11 9 18 18 7 5 6 9 21 19 16 13 10 8 6 4 3 3 5 6 7 8 10 11 12 13 13 14 14 14 13 13 12 12 11 12 12 13 13 13 13 13 13 14 14
20 22 22 23 26 30 27 22 12 10 14 18 7 5 5 8 18 19 16 13 10 8 5 3 3 4 6 7 7 8 9 10 11 12 13 13 14 14 14 13 12 12 12 13 13 14 14 14 13 13 14 14 15 16
27 27 29 30 28 23 17 11 11 17 15 7 8 11 16 18 17 15 12 9 6 3 2 3 5 6 7 7 8 9 10 11 12 13 14 14 14 14 13 13 12 12 13 13 14 14 14 14 14 15 15 16 17 18
25 26 24 22 21 17 16 18 19 15 15 17 18 15 14 13 12 9 7 4 2 2 4 5 6 7 8 8 9 10 10 11 12 14 14 15 15 14 14 14 13 14 14 14 14 15 15 15 15 16 17 18 19 20
23 23 20 19 20 20 20 23 22 21 20 17 16 14 12 9 7 6 3 1 2 4 6 7 8 8 9 9 9 10 11 13 14 15 15 15 14 14 14 14 13 14 14 15 15 15 16 16 18 19 19 20 21 21
19 18 17 18 25 26 24 24 22 19 17 15 13 11 8 6 4 2 2 3 4 6 7 8 8 8 8 8 9 11 12 14 14 15 14 14 13 13 13 14 14 15 15 15 16 17 18 18 19 20 20 21 21 21

GFSWCAN_700_spd_060.txt.gz
Wind_Speed
30 30 28 26 23 23 25 28 29 29 31 34 36 29 26 34 34 34 31 32 33 35 30 26 26 16 15 14 12 13 11 14 13 14 10 12 11 12 14 9 13 26 21 20 21 16 15 9 6 7 11 15 14 8
27 22 21 21 24 28 31 34 35 30 30 31 30 35 27 34 36 33 31 31 31 33 31 29 34 29 25 16 16 14 13 5 9 7 10 10 12 7 7 5 9 13 24 17 16 21 4 7 12 13 13 14 6 3
21 22 22 24 27 28 28 26 28 30 30 30 27 31 28 31 35 35 33 31 30 33 32 32 27 25 29 21 22 20 18 15 17 16 13 17 7 6 5 6 10 13 18 21 16 12 15 10 10 15 14 12 12 14
22 23 22 20 21 22 20 21 19 17 20 24 23 29 27 30 33 34 32 32 32 28 28 22 13 25 30 31 29 26 24 21 16 15 11 15 15 10 9 10 17 14 9 17 11 12 12 23 9 14 9 9 12 18
20 20 15 19 19 20 19 18 16 16 16 19 23 27 27 32 32 29 29 29 28 27 7 12 18 15 22 25 25 24 21 20 14 19 15 13 10 15 9 11 13 10 2 6 6 7 8 7 6 1 9 12 16 20
20 20 16 16 18 18 20 17 16 12 12 18 23 26 28 29 30 29 28 31 29 27 26 22 8 9 19 19 15 19 20 16 19 19 11 14 14 12 6 5 10 7 5 9 8 4 7 15 16 12 18 20 23 26
18 16 14 15 17 17 16 16 14 13 14 21 24 26 30 31 32 33 26 22 23 23 26 17 16 6 8 10 12 16 16 19 17 21 19 18 10 11 12 11 20 16 13 11 10 11 19 24 24 19 19 22 26 26
12 14 18 16 12 14 15 17 15 18 24 27 27 27 29 30 28 30 29 19 25 27 25 15 15 7 8 7 12 15 18 16 16 17 15 8 16 13 8 14 16 13 15 16 17 19 19 19 20 24 24 23 27 28
16 11 10 12 9 13 18 20 19 21 29 27 26 23 19 26 30 26 24 18 20 28 28 22 9 4 6 8 9 7 10 12 10 16 15 13 11 8 9 15 17 18 19 17 17 23 24 22 23 25 25 26 30 33
8 7 6 10 10 17 24 25 22 23 32 30 31 26 27 29 26 21 23 17 16 25 31 22 18 11 7 12 12 7 6 6 5 13 14 17 22 22 22 24 27 23 20 19 23 24 24 23 23 25 25 26 27 27
6 11 6 10 17 26 29 27 25 27 35 34 33 30 25 26 27 27 15 18 14 13 23 28 23 15 12 11 12 9 5 5 4 7 9 7 13 18 22 25 21 23 27 27 26 24 23 23 24 22 24 24 22 22
10 9 13 18 27 28 29 28 25 33 38 41 39 33 30 29 15 6 12 11 9 10 8 15 18 12 16 11 8 7 4 4 4 4 7 7 10 10 12 16 19 20 21 21 20 18 16 17 19 19 19 19 18 15
15 19 23 27 26 27 28 28 34 30 37 33 29 27 13 14 8 7 9 11 8 11 12 17 19 15 11 10 6 3 5 5 3 4 4 7 12 16 15 17 18 17 16 15 13 14 15 15 14 13 11 10 7 6
16 19 24 21 22 28 28 26 26 33 36 28 9 7 6 7 9 10 18 19 13 9 17 15 15 16 15 10 6 3 5 4 5 4 6 16 13 14 15 16 15 13 12 10 9 10 8 6 4 3 3 3 4 5
26 31 25 24 22 25 26 27 32 34 26 12 6 6 6 6 13 13 17 16 14 7 9 9 13 11 14 6 5 5 3 4 7 8 14 14 12 14 12 9 8 7 4 3 3 1 2 5 7 7 7 7 7 5
28 28 25 28 27 30 32 31 27 20 9 8 4 7 9 9 12 14 19 17 15 11 14 12 8 5 6 6 5 6 3 5 10 15 13 12 10 8 7 5 4 3 3 4 6 8 8 7 6 5 4 3 4 6
22 20 18 19 24 24 19 17 16 11 4 4 4 6 8 9 11 14 15 17 16 15 16 8 6 5 5 4 6 7 7 11 11 11 8 6 5 5 6 7 8 9 9 8 7 5 4 3 4 5 7 8 9 10
13 9 3 6 11 17 17 14 12 7 7 8 6 10 11 13 16 17 17 18 18 18 17 7 5 6 8 4 6 9 9 8 6 5 5 7 9 10 12 11 10 8 6 4 2 2 4 6 8 10 11 13 14 15
10 11 9 6 4 7 4 9 15 6 11 12 12 14 15 14 13 15 16 17 18 19 16 6 3 4 5 5 4 5 5 4 5 8 11 13 13 11 9 7 5 3 0 2 5 7 10 12 13 15 16 18 19 20
9 7 8 8 6 4 1 4 6 8 13 14 14 14 13 14 13 14 13 15 15 15 12 7 5 4 2 3 5 6 8 11 11 12 12 11 9 7 5 2 1 3 5 8 10 12 14 15 17 19 21 21 22 21
8 8 8 6 5 1 1 4 5 7 16 16 16 15 14 13 13 13 13 13 13 13 9 8 7 7 8 11 14 16 16 15 12 10 7 6 4 2 2 4 6 9 11 13 15 17 19 20 20 20 20 20 20 20
7 7 8 7 3 1 1 3 6 12 14 17 17 15 14 12 11 10 10 11 10 11 12 11 12 14 16 17 16 14 12 9 7 5 3 2 3 5 7 10 12 14 16 17 18 19 20 20 21 21 20 20 20 19
9 9 8 6 2 1 7 10 12 9 7 17 18 16 14 13 12 12 9 11 16 16 17 19 19 19 16 14 11 9 6 4 3 2 3 5 8 10 12 13 14 16 18 19 20 20 20 20 20 19 18 18 17 16
13 11 6 3 1 4 7 13 13 14 16 14 17 15 16 14 11 12 20 22 23 23 21 19 17 14 11 9 7 5 2 2 4 6 8 9 11 12 14 15 16 18 18 19 19 18 18 17 17 16 16 15 14 14
9 9 3 4 6 13 13 16 17 19 18 20 19 15 15 13 14 20 23 24 23 21 18 14 12 11 9 6 4 3 4 5 7 9 10 11 13 13 14 15 16 17 17 17 16 16 16 16 15 15 14 14 14 14
8 6 7 8 12 13 15 17 16 20 19 14 14 17 24 17 7 9 21 21 20 17 15 13 10 7 6 4 4 5 7 8 9 9 11 12 13 15 16 17 17 15 16 16 16 16 15 14 14 14 14 15 15 16
6 5 10 13 12 18 22 20 19 12 11 12 22 19 7 5 6 16 21 18 16 13 11 8 6 4 4 5 6 7 8 9 10 11 12 13 14 15 16 16 17 16 16 15 15 14 15 15 16 16 16 16 15 15
8 7 14 16 16 22 26 23 15 10 9 19 17 7 5 5 7 20 18 15 13 10 8 6 5 5 6 7 8 8 9 10 11 12 14 14 15 15 16 16 17 16 16 15 15 15 16 16 17 17 16 16 16 16
11 17 17 19 23 25 26 18 9 9 14 19 10 4 3 5 13 18 16 14 11 8 7 6 6 7 7 8 8 9 10 11 12 13 14 15 15 15 16 16 16 16 15 15 16 16 16 17 17 17 16 17 17 17
21 22 23 25 27 25 22 14 10 13 17 9 4 5 9 16 19 17 14 11 8 7 6 6 6 7 8 9 10 10 11 11 12 13 14 16 16 17 17 16 16 15 15 16 16 16 16 17 17 17 17 18 19 20
24 25 25 25 22 20 14 12 17 15 9 10 13 13 14 14 14 12 10 8 6 4 5 6 7 9 10 10 10 10 11 11 12 14 15 16 16 16 16 16 15 15 15 15 16 16 17 17 17 18 19 20 21 22
24 23 21 21 21 19 20 20 18 18 19 17 17 16 13 11 9 8 5 3 3 4 6 8 9 10 10 10 10 11 11 13 14 15 16 16 16 15 15 15 15 16 16 16 16 17 18 19 19 20 21 22 22 22
18 18 17 17 20 20 21 22 20 19 17 16 14 11 9 7 5 4 3 3 4 6 8 10 11 10 10 10 10 11 13 14 15 16 15 15 15 15 15 15 15 16 16 17 18 18 19 20 20 21 21 22 22 23

GFSWCAN_700_spd_063.txt.gz
Wind_Speed
27 27 26 26 25 22 20 19 20 22 24 25 26 25 23 20 28 31 30 28 26 31 30 27 21 9 17 13 9 3 8 10 13 10 9 11 10 14 14 22 19 18 20 22 26 14 14 12 14 9 11 15 19 19
27 24 25 23 20 18 18 20 24 27 29 29 28 28 26 34 24 31 30 27 24 26 25 25 29 21 23 19 16 16 11 3 6 4 5 7 10 14 9 5 3 5 17 14 21 25 7 13 19 15 20 19 24 23
24 24 22 20 20 20 21 23 25 27 28 30 30 29 25 31 29 31 29 25 23 24 26 27 24 18 19 23 24 24 11 5 7 8 10 7 11 12 6 4 7 7 11 23 16 14 22 16 20 18 22 23 21 17
23 21 19 20 19 19 19 20 20 19 19 18 21 24 24 26 26 29 30 25 23 20 22 19 14 19 23 24 25 24 19 13 16 10 11 13 12 7 6 5 7 9 12 23 16 12 16 16 15 21 20 15 13 8
20 19 19 17 16 17 18 17 16 17 14 17 17 19 22 26 25 27 26 26 24 22 6 14 20 20 19 25 26 26 22 19 19 18 12 15 11 2 5 4 4 8 14 9 8 2 25 16 9 7 2 3 5 9
18 19 18 19 18 16 17 14 15 14 14 11 14 17 24 26 27 26 25 29 29 22 24 27 8 7 14 23 27 26 22 21 19 16 14 13 7 7 2 3 1 2 4 4 7 11 4 4 10 16 11 11 11 14
20 19 19 17 16 12 14 16 14 13 11 11 16 22 25 26 28 29 23 26 25 21 21 15 17 12 15 21 20 22 21 22 19 17 17 16 12 10 8 7 10 9 13 10 5 8 3 11 9 11 14 13 16 17
16 16 14 16 17 15 11 10 12 10 13 18 23 24 25 27 27 28 16 15 19 21 18 11 16 10 9 15 18 24 20 19 18 18 16 11 7 12 5 11 10 8 6 11 14 15 15 14 17 17 18 19 19 20
12 12 16 14 14 14 12 16 14 17 23 27 29 29 28 30 29 28 21 9 6 18 15 19 20 7 4 6 5 18 16 17 11 14 10 8 13 6 6 5 8 11 13 14 15 13 14 20 21 16 17 20 19 21
13 10 9 16 18 15 17 20 20 31 32 33 32 31 27 27 21 23 19 17 16 16 21 24 17 13 1 4 1 3 8 10 7 9 8 11 15 16 17 17 19 18 16 18 19 21 22 24 23 20 20 21 21 22
7 11 12 17 20 20 24 27 32 37 33 32 30 19 19 23 20 15 8 16 13 7 14 21 20 16 4 5 7 3 3 5 4 7 10 7 10 16 16 18 22 19 21 20 20 22 20 20 19 16 16 17 20 22
4 7 6 18 25 28 30 30 35 37 36 35 21 24 26 24 11 8 9 8 7 8 6 6 10 15 11 9 8 8 5 7 3 6 8 4 13 12 11 9 9 15 16 16 15 16 17 17 17 17 17 17 17 16
13 17 23 27 31 31 30 28 35 33 34 29 25 25 11 7 7 9 13 11 8 8 9 8 11 10 10 9 3 2 4 4 3 5 5 11 12 16 16 15 16 17 16 15 15 15 14 14 13 12 10 9 8 6
20 22 27 29 28 26 27 34 35 35 34 28 16 13 7 6 8 7 19 20 17 9 13 12 13 11 8 9 5 3 4 4 4 5 9 13 11 12 12 14 14 14 12 10 10 9 7 3 3 2 2 2 3 5
19 24 29 26 27 33 34 40 32 32 33 12 11 7 11 10 12 13 14 14 15 7 10 14 13 13 11 5 5 4 4 4 6 9 12 8 9 10 9 9 8 6 4 2 2 2 2 4 5 7 7 7 6 5
21 25 32 26 23 21 32 32 34 30 20 5 4 10 9 11 14 15 17 16 14 9 11 11 8 6 6 5 5 6 4 6 9 9 8 8 8 6 4 3 3 3 3 4 5 7 8 8 6 4 4 4 5 7
26 25 24 27 27 25 32 32 25 16 10 5 7 7 10 12 12 13 15 14 15 16 16 7 7 5 5 5 6 6 9 11 8 8 8 5 3 2 3 4 5 7 8 8 7 6 4 2 2 4 6 8 10 11
17 18 28 29 20 26 24 16 15 7 6 6 7 9 9 9 13 15 18 19 20 20 18 9 5 8 6 6 7 10 8 7 7 5 2 1 3 6 8 8 8 7 6 4 2 1 3 5 8 10 12 14 14 16
6 8 13 15 20 19 18 14 14 5 7 9 8 8 10 11 13 15 17 18 17 15 13 8 3 4 7 6 4 4 5 4 2 3 6 8 10 9 8 7 5 3 2 2 5 8 10 12 14 15 17 18 19 20
10 9 8 9 11 13 8 6 11 6 9 11 11 12 10 12 13 13 13 13 13 13 12 9 6 3 1 2 3 3 3 5 8 9 11 10 9 7 6 4 3 4 6 8 11 13 14 16 18 20 20 22 21 21
8 7 8 8 7 8 5 8 8 7 15 15 14 13 12 11 10 10 10 11 12 12 11 8 8 7 5 3 6 10 14 15 13 10 7 6 5 4 4 5 7 9 12 13 15 17 19 19 20 19 20 21 20 21
7 7 6 5 4 3 2 5 6 11 15 17 16 13 12 11 11 10 10 11 11 10 9 8 6 7 10 14 15 14 12 10 8 6 4 3 4 6 8 10 12 14 16 18 19 19 20 21 21 21 21 20 20 19
8 7 6 3 1 3 6 8 12 13 12 18 17 15 13 12 11 11 8 9 10 11 12 13 16 18 17 15 12 9 7 5 4 3 5 6 8 10 12 13 15 16 17 19 20 20 21 21 21 20 19 18 16 16
9 8 3 2 2 5 9 9 9 11 16 18 15 12 14 11 10 7 10 15 16 18 20 20 18 15 13 10 8 6 4 3 4 6 8 9 11 12 13 15 17 18 19 19 19 19 18 18 17 16 16 15 15 15
6 5 2 3 5 12 12 13 13 13 18 18 17 13 14 11 9 9 16 19 22 22 21 18 15 12 10 7 4 3 4 5 7 9 10 11 13 13 14 15 16 18 18 18 16 15 15 15 14 14 13 13 14 14
5 3 4 6 12 10 10 12 12 19 22 16 12 15 14 13 7 10 20 21 20 18 15 12 10 7 4 3 4 6 7 8 9 10 11 13 14 15 17 16 14 16 17 17 17 16 14 14 14 14 15 15 15 15
4 3 8 10 10 17 16 20 20 14 12 11 21 22 9 5 6 16 22 21 16 12 10 7 4 4 4 5 6 8 9 9 9 10 11 12 14 14 15 16 17 17 17 16 16 16 15 16 16 16 16 17 16 15
5 4 9 12 15 18 21 19 14 10 11 23 16 6 3 4 9 20 20 17 15 12 9 7 6 5 6 7 8 9 10 11 11 12 12 12 13 15 16 16 17 16 16 16 15 15 15 16 16 17 16 16 17 17
7 9 13 16 19 22 20 15 9 10 14 17 8 4 2 4 11 17 18 16 13 10 8 6 5 5 7 8 9 10 10 11 11 12 11 11 13 14 15 15 15 16 15 15 15 16 16 16 17 17 17 17 17 18
11 16 19 20 23 23 19 12 9 11 17 12 3 3 5 12 20 19 17 13 10 7 6 5 6 7 8 9 10 11 11 12 12 12 13 14 15 16 16 16 16 15 15 15 15 15 16 17 17 17 18 18 19 20
19 20 20 23 23 20 16 11 11 17 14 7 8 9 10 14 15 14 13 11 8 5 4 5 6 8 9 9 10 11 11 11 12 13 14 16 16 16 16 16 15 15 15 16 16 16 17 17 18 18 19 20 20 21
20 19 20 22 23 20 17 18 17 13 14 16 16 16 14 13 10 10 8 6 3 2 3 6 8 9 11 11 10 10 10 12 13 14 15 15 15 15 15 15 15 15 16 16 16 17 18 18 19 19 20 20 21 22
17 18 16 18 19 19 19 19 18 19 16 14 13 13 11 9 6 6 3 2 2 4 6 8 10 10 10 10 10 10 12 13 14 15 15 15 15 15 15 15 15 16 16 16 17 17 18 19 20 20 21 21 22 23

GFSWCAN_700_spd_066.txt.gz
Wind_Speed
28 25 23 23 22 21 21 19 17 17 18 18 18 17 17 17 21 26 26 28 28 28 27 24 17 18 17 7 11 17 3 4 7 8 6 6 7 8 8 16 15 12 8 12 20 10 11 16 8 9 5 14 14 23
26 23 23 23 21 21 18 16 16 18 20 21 22 23 23 26 23 23 27 28 25 25 23 18 19 21 19 12 15 17 14 6 3 5 7 6 7 6 10 11 12 11 27 12 11 11 9 9 19 18 13 11 19 16
23 23 23 21 20 20 17 17 18 20 22 25 27 28 28 27 28 33 23 24 25 23 25 24 21 15 19 15 13 18 15 11 4 1 2 3 4 6 8 10 13 5 4 6 15 16 15 19 11 19 20 22 21 16
23 23 20 20 20 18 17 17 18 18 17 18 21 23 24 26 27 29 33 22 24 20 20 18 12 15 16 18 18 16 13 15 13 7 4 6 8 9 14 10 1 4 7 10 14 17 16 20 18 21 25 22 21 18
23 21 20 20 18 17 18 16 16 16 15 14 15 18 18 23 26 32 25 22 23 21 8 7 11 12 12 12 13 16 15 13 13 12 11 12 10 13 6 6 4 3 9 11 12 15 8 18 16 13 5 17 14 9
21 21 20 19 17 17 14 14 17 14 14 15 16 18 16 19 27 27 25 27 25 21 20 13 3 7 12 18 18 15 14 15 16 16 15 15 13 11 2 5 8 7 14 13 13 17 9 7 8 7 6 6 6 6
20 19 19 18 18 18 16 10 11 13 14 13 12 14 18 23 26 26 21 19 22 20 14 9 8 12 17 17 16 16 17 18 18 17 17 16 12 12 7 9 5 7 5 6 5 3 4 9 8 9 6 5 7 10
18 19 18 17 17 17 13 7 8 11 12 12 13 20 24 25 24 20 10 13 20 19 14 7 11 10 15 16 16 17 19 17 19 17 17 13 8 6 5 3 6 6 5 6 4 6 6 4 6 9 11 12 15 14
17 16 16 15 16 15 15 12 16 12 13 18 26 28 28 28 28 22 12 10 11 17 8 13 17 18 3 12 14 20 19 17 11 15 18 10 11 6 6 6 4 5 10 13 11 9 8 11 15 15 15 15 15 15
13 14 18 18 16 13 18 21 17 15 24 30 32 32 29 29 29 21 15 11 9 14 18 17 14 16 11 12 7 15 11 15 7 10 9 13 12 11 13 16 15 14 14 15 15 16 14 15 18 17 15 14 14 15
13 16 16 17 21 22 22 24 20 26 28 31 32 23 28 26 25 17 7 7 8 5 8 9 10 14 10 3 8 6 6 8 6 5 10 5 12 17 18 19 21 20 16 12 13 17 17 14 14 14 13 12 13 13
13 18 21 19 21 27 29 27 25 29 30 31 27 28 29 23 11 7 8 7 6 6 4 2 5 6 6 2 5 6 5 7 3 7 7 5 16 14 13 12 11 9 10 12 13 15 16 17 16 14 13 10 9 7
11 15 21 28 30 34 32 28 33 32 33 25 27 22 18 13 10 8 12 9 9 6 7 4 4 6 7 5 5 2 3 4 4 5 5 9 10 8 10 12 13 14 14 17 16 16 15 14 12 9 7 5 4 3
19 26 33 34 35 36 31 38 37 34 29 26 15 13 9 7 8 8 16 16 10 5 8 7 5 6 7 8 3 2 4 5 5 4 6 7 7 8 10 13 14 13 13 12 11 9 7 5 3 2 1 2 4 7
32 33 34 35 35 32 36 38 36 35 27 10 9 7 10 9 9 11 13 14 16 9 10 11 11 6 8 3 4 4 5 5 6 5 6 7 9 11 12 13 11 8 7 5 3 3 3 4 5 6 6 6 5 3
26 31 29 27 34 36 37 34 35 33 20 12 4 6 13 14 11 13 16 16 16 11 12 13 9 5 7 4 5 6 4 6 5 5 6 8 9 10 8 6 5 3 3 3 4 6 7 7 6 4 1 1 3 6
30 35 36 38 38 41 41 36 31 29 5 7 12 11 16 17 15 15 16 16 15 13 15 7 6 6 4 4 5 6 7 8 7 8 9 7 5 4 3 4 5 6 8 8 7 6 4 2 2 4 5 7 10 12
23 29 30 34 35 37 34 31 21 11 10 7 10 9 8 6 7 9 16 17 17 16 14 6 3 6 4 3 5 9 10 9 8 7 5 3 4 6 8 8 9 8 7 5 3 3 4 6 8 10 12 14 15 16
22 23 24 27 31 24 19 22 12 9 11 10 6 6 6 8 9 10 12 15 15 15 13 8 4 4 8 9 7 5 6 6 4 2 3 6 9 10 10 8 6 5 4 4 6 8 10 12 14 15 17 18 19 19
20 25 22 21 24 22 14 8 16 11 9 12 11 7 6 10 13 14 14 15 15 14 13 11 10 6 4 4 4 3 2 2 4 6 9 10 10 8 6 4 3 4 6 9 12 14 16 18 20 22 22 23 23 23
15 15 16 16 19 19 14 11 14 10 11 13 15 13 12 13 14 14 14 15 16 16 16 12 11 8 6 4 3 4 7 11 12 11 8 6 4 2 2 5 7 9 12 14 16 17 18 19 19 20 21 21 22 22
12 14 15 14 14 12 8 11 8 11 14 17 17 15 14 14 14 14 12 13 14 13 11 9 8 6 4 5 9 12 10 9 8 5 3 2 3 5 8 10 13 14 15 16 17 19 20 21 21 21 20 21 21 21
11 11 10 9 6 7 8 12 14 14 11 17 15 14 14 14 14 13 11 13 13 12 10 8 8 9 12 13 12 10 8 5 4 2 3 5 7 10 12 13 14 15 16 17 19 20 21 21 21 20 19 18 18 18
11 10 6 4 6 6 14 13 14 15 15 19 17 11 14 13 13 10 9 10 12 11 12 12 14 14 13 10 7 5 3 2 3 5 7 8 10 11 13 15 16 17 18 18 19 20 19 18 17 17 16 16 15 15
5 5 3 4 4 10 12 14 17 16 21 20 17 10 11 10 10 9 11 13 15 15 17 18 16 13 10 7 4 3 4 5 6 8 9 10 10 12 14 16 18 18 18 17 16 16 16 15 15 14 14 15 16 17
3 4 4 6 11 9 11 16 15 18 22 18 12 13 13 9 6 5 12 14 16 17 17 14 9 6 5 5 4 3 6 9 10 10 11 12 12 12 12 13 15 17 17 17 16 14 14 14 14 15 15 15 16 16
3 2 3 6 7 13 14 12 20 24 20 10 16 17 11 5 5 13 19 20 17 14 13 10 9 7 5 4 5 6 8 9 10 11 12 13 14 14 13 13 14 15 16 16 15 14 14 14 14 15 15 16 16 16
4 3 6 8 14 15 22 23 18 12 10 16 19 11 6 6 8 19 19 18 18 15 13 11 7 5 4 6 7 8 9 9 10 11 12 13 13 14 15 15 16 15 15 15 15 15 15 15 16 16 16 17 17 17
5 6 10 13 18 20 16 12 7 12 21 16 9 5 4 5 17 19 19 18 15 12 10 7 5 5 6 7 8 9 10 11 11 11 11 12 13 15 15 16 16 15 15 15 15 16 16 16 17 17 17 18 19 19
7 10 15 18 21 19 16 11 10 14 19 11 4 3 5 10 19 20 19 15 13 10 7 6 5 6 7 8 9 10 11 11 11 10 10 12 13 15 15 14 14 15 15 15 15 15 16 16 17 17 18 19 20 21
12 15 19 21 23 19 15 11 11 16 18 10 4 7 6 12 16 16 15 13 10 8 7 6 6 7 8 9 10 11 10 10 10 12 13 15 15 15 15 15 15 15 15 16 16 16 17 17 17 18 18 19 20 21
16 18 18 21 22 19 16 13 14 18 14 10 12 14 14 14 12 11 11 9 8 6 6 5 6 7 8 10 10 10 10 10 11 13 14 14 15 15 15 15 16 16 16 16 16 16 16 17 18 19 19 20 21 21
16 16 15 17 20 19 17 16 16 15 15 15 16 15 15 12 10 11 9 9 8 6 5 6 7 8 8 9 9 9 10 12 13 14 14 14 14 14 15 15 16 16 16 16 16 17 18 18 18 19 20 21 22 23

GFSWCAN_700_spd_072.txt.gz
Wind_Speed
28 27 27 26 26 26 24 21 19 19 17 16 17 16 16 16 16 12 10 16 17 20 19 20 17 12 10 9 12 13 14 9 11 9 5 3 2 4 4 5 4 3 4 9 11 7 10 12 9 10 12 19 19 11
27 27 27 27 27 25 23 21 20 19 18 18 17 18 19 18 16 15 14 13 16 18 17 13 14 15 13 13 11 13 12 13 9 10 12 2 2 1 4 2 7 5 10 7 10 7 11 8 3 2 8 15 18 11
33 28 26 28 26 24 22 22 21 19 18 18 18 20 22 20 19 20 19 16 16 21 18 14 11 14 16 11 12 16 7 10 3 6 11 3 3 4 3 3 8 9 13 14 9 20 19 17 12 8 9 15 13 13
36 30 29 28 26 24 23 23 20 20 19 18 17 18 19 20 21 23 27 23 19 24 25 18 14 8 16 17 12 10 7 8 7 5 10 5 5 3 6 7 16 13 14 5 4 3 8 9 8 8 9 12 11 7
31 30 29 29 26 25 24 21 20 19 19 18 16 16 16 17 20 25 30 30 26 25 16 6 13 14 12 11 11 9 7 9 10 6 8 6 6 9 10 11 8 5 1 3 7 9 9 8 7 8 8 7 6 10
27 29 27 28 27 25 22 21 19 19 17 16 18 17 17 12 19 27 35 37 36 27 31 15 8 10 13 11 11 12 11 11 14 8 10 4 4 9 8 9 6 4 5 12 11 11 9 9 6 5 4 2 1 4
24 25 27 27 26 23 21 20 19 18 17 13 11 15 18 18 20 21 26 30 25 22 20 10 12 10 13 14 15 15 14 17 11 12 13 10 3 7 10 12 8 6 7 15 12 10 5 3 2 2 2 1 4 7
25 28 28 28 24 22 21 21 20 19 15 15 13 14 15 16 15 24 26 15 14 18 14 6 6 8 10 12 15 17 17 17 16 15 13 9 7 6 7 8 6 8 6 4 2 3 2 3 5 5 6 8 8 10
28 29 27 25 23 22 23 22 19 17 15 16 19 18 12 15 16 13 10 6 13 17 9 11 9 6 10 11 14 13 15 14 12 15 15 9 9 9 8 10 8 8 9 7 6 6 8 9 10 12 14 14 14 13
28 27 25 24 23 25 24 22 19 12 20 14 19 17 14 15 13 9 11 14 16 18 18 14 10 11 5 11 13 12 9 12 6 11 12 13 19 17 13 12 10 12 12 11 11 13 14 14 13 14 16 17 17 15
26 25 25 24 26 26 24 29 19 18 15 14 20 21 23 21 19 11 9 9 9 6 9 6 8 10 7 6 14 12 5 6 6 5 12 5 11 15 17 16 16 16 17 18 19 20 20 19 18 18 16 15 15 14
25 25 26 26 26 25 31 26 32 26 18 15 22 28 31 22 8 5 8 6 6 5 4 5 4 6 8 8 7 15 6 7 3 5 7 4 9 9 10 13 14 15 15 15 14 12 13 12 13 14 15 15 14 14
27 25 27 26 30 29 29 22 30 23 17 22 24 30 21 10 7 7 7 7 6 6 7 5 4 7 7 2 3 5 5 5 2 6 4 7 7 5 7 8 9 10 11 13 14 14 14 14 14 15 14 13 13 12
30 29 27 33 28 26 27 29 25 23 25 26 21 17 10 7 8 9 13 9 8 8 8 5 9 4 5 5 4 4 3 5 4 4 5 5 5 7 7 7 8 10 11 12 12 12 12 11 10 9 9 9 9 8
32 32 25 29 30 28 28 31 30 29 29 16 9 8 8 7 7 11 10 10 8 7 11 8 6 3 6 3 3 3 5 4 5 5 7 6 6 6 7 8 8 7 6 5 5 5 5 5 6 6 6 7 7 7
32 31 32 34 31 34 36 38 33 35 18 15 8 9 6 8 7 13 10 14 11 11 11 8 6 2 4 3 3 4 3 5 5 7 7 7 7 8 9 7 5 3 2 2 2 3 3 4 4 3 3 4 6 8
40 39 38 34 37 36 39 39 28 19 10 8 6 6 4 8 8 12 12 16 17 14 13 7 5 5 3 3 3 4 5 7 7 7 9 10 10 8 7 5 4 2 1 3 4 4 3 3 3 4 7 9 11 13
40 38 39 37 39 43 43 38 10 7 5 5 2 5 5 7 7 7 12 13 18 18 14 7 3 5 3 3 4 5 8 8 9 9 9 8 6 5 3 2 2 3 3 2 1 2 5 7 9 11 14 15 17 18
41 40 36 36 38 38 35 28 10 6 6 9 8 7 7 8 10 10 13 13 15 16 14 7 4 4 5 7 7 5 6 7 6 6 5 3 2 3 4 5 4 2 1 3 6 8 11 13 15 17 18 19 19 20
32 33 33 36 34 29 19 12 22 9 3 6 5 5 5 5 6 9 12 14 15 15 14 11 8 6 6 5 6 8 8 5 3 0 2 4 6 6 5 3 3 4 6 9 12 14 16 18 19 19 20 20 20 21
31 32 32 30 30 26 11 8 18 11 14 8 7 9 10 9 9 11 15 15 15 16 16 13 10 9 8 9 8 6 3 0 3 7 8 7 5 3 2 4 6 9 12 14 16 17 18 19 20 21 22 21 21 21
27 28 29 24 23 22 13 7 13 17 14 14 13 13 12 11 10 11 12 13 14 15 13 11 10 9 8 6 3 2 7 8 7 6 4 2 1 4 6 9 11 13 14 16 17 19 19 20 20 20 20 19 19 19
21 23 24 27 20 20 14 18 15 16 14 13 14 13 11 11 10 11 9 11 12 11 11 10 8 7 5 4 8 10 8 6 4 2 2 3 5 8 10 12 13 14 15 16 17 19 20 20 21 21 20 19 18 17
24 22 18 17 17 12 15 16 17 15 13 10 9 10 7 10 10 11 11 9 5 9 9 8 8 7 9 12 10 8 5 2 1 3 4 7 9 10 11 13 14 16 17 18 19 20 21 20 19 18 18 17 16 17
13 12 7 10 11 12 14 16 17 16 13 12 11 9 5 9 10 10 10 10 9 9 10 10 12 15 15 11 7 4 2 2 4 6 7 9 10 12 14 15 16 17 18 18 19 20 20 20 19 18 18 17 17 18
7 7 7 7 11 12 12 11 14 16 14 12 12 9 8 10 7 5 8 9 9 10 10 12 14 13 10 7 5 3 3 5 7 8 10 12 14 15 16 17 17 18 18 18 19 19 19 19 19 19 19 19 19 19
5 5 9 12 12 12 12 14 15 16 15 11 12 12 6 5 6 6 8 13 16 17 19 19 16 11 7 6 5 4 5 7 9 10 12 13 15 16 16 16 17 18 19 20 20 19 19 19 19 19 19 19 20 20
6 6 9 9 13 12 11 15 18 16 15 11 13 12 7 5 4 9 16 18 19 18 17 13 10 7 6 5 5 6 7 9 10 12 14 15 15 15 15 16 17 19 19 19 20 19 19 19 19 19 19 19 19 20
7 7 8 9 11 13 12 17 15 16 18 13 17 13 8 5 6 17 19 20 19 18 15 12 9 8 7 6 7 7 9 11 13 15 16 16 16 16 16 18 18 19 19 19 19 19 19 19 19 19 19 19 19 19
9 7 8 9 10 9 13 14 12 13 16 13 15 11 9 7 14 22 22 20 18 16 12 10 9 8 7 7 7 9 11 13 15 15 16 16 16 17 18 19 19 20 20 20 20 20 20 19 19 19 19 20 20 20
11 9 8 11 15 12 11 7 8 13 15 17 11 8 8 8 19 23 22 20 17 14 12 10 8 7 7 7 9 11 13 14 15 15 15 16 17 17 18 19 19 19 19 20 20 19 18 19 19 20 20 19 20 20
12 13 13 12 15 16 12 10 9 15 17 14 8 7 7 11 17 17 16 15 14 13 10 9 8 7 8 9 11 13 14 14 14 14 15 16 17 18 18 19 19 19 19 19 19 19 20 20 20 19 20 20 21 22
15 15 15 14 14 16 15 13 12 13 18 17 11 8 10 14 15 15 15 14 12 9 8 7 7 7 9 11 12 13 14 14 14 15 16 17 18 18 18 19 19 18 18 19 20 20 21 20 19 20 21 22 24 25

GFSWCAN_700_spd_075.txt.gz
Wind_Speed
27 26 24 24 25 24 23 22 21 18 15 15 14 13 12 12 10 8 7 8 8 9 8 9 8 8 8 7 9 9 11 11 12 15 10 11 9 4 4 4 4 4 5 7 8 7 7 5 3 3 7 12 15 15
23 25 25 24 25 24 24 22 20 18 17 16 16 15 16 17 16 13 11 9 9 9 8 7 9 8 11 11 9 6 7 11 9 12 17 8 7 4 2 4 5 3 6 4 7 5 10 9 4 5 9 8 9 11
31 25 23 21 24 25 25 24 21 20 19 17 16 15 16 19 19 17 11 12 12 13 10 4 8 7 12 9 8 7 3 7 8 6 14 7 5 5 2 1 3 4 9 12 13 19 27 18 15 9 7 9 10 10
33 34 28 25 22 24 26 24 22 21 19 18 16 15 16 19 18 19 19 14 15 16 20 14 9 11 10 13 11 10 6 8 7 4 6 6 6 5 3 5 9 11 10 11 4 2 4 8 5 4 5 7 7 4
25 28 32 29 26 24 25 24 23 21 19 17 16 15 16 16 17 19 19 22 18 17 17 8 9 14 11 8 10 11 10 9 9 8 6 8 5 7 7 6 7 10 8 5 6 6 5 4 4 3 1 2 4 1
27 27 28 29 27 24 24 24 23 20 18 17 17 16 16 16 14 18 24 28 27 29 33 26 15 14 12 10 10 12 12 12 11 9 8 8 2 6 5 7 9 7 8 7 3 4 4 7 6 5 3 3 2 1
34 28 21 25 26 26 23 23 20 19 17 17 16 16 14 17 16 22 31 27 25 32 32 18 14 13 12 12 13 13 13 11 11 12 16 14 7 6 9 12 14 6 3 9 11 10 5 4 2 1 1 1 3 5
31 29 23 20 22 25 23 20 19 18 19 17 14 13 15 17 16 17 19 19 13 11 24 8 6 7 10 12 13 13 15 14 15 16 17 10 7 7 6 10 8 6 5 5 4 1 3 3 2 4 5 6 7 9
26 24 23 23 24 25 23 20 20 21 20 16 19 8 16 16 15 14 13 11 15 20 10 10 9 5 7 11 12 13 14 16 18 19 17 11 10 8 11 13 6 6 6 4 3 4 6 7 8 9 12 12 13 14
29 25 25 24 25 23 23 23 24 23 16 18 16 14 10 9 8 8 10 14 16 18 15 11 12 11 5 9 12 11 9 10 8 9 10 15 20 18 15 11 7 8 9 8 9 12 13 14 17 16 16 16 15 14
29 27 26 25 25 25 25 27 24 26 23 21 26 17 15 15 12 8 7 8 9 7 10 13 14 13 11 10 15 10 5 6 5 6 7 4 7 10 12 15 14 13 15 16 16 17 17 16 16 16 16 16 14 13
28 26 26 27 27 28 30 23 23 17 22 21 22 18 21 16 6 4 8 6 7 7 6 10 11 11 14 13 12 11 8 7 4 6 7 4 8 8 8 10 11 12 13 13 14 14 13 12 12 13 13 14 13 13
26 28 28 28 30 34 34 23 25 24 23 19 20 22 15 7 8 7 9 8 6 7 8 6 8 9 13 8 7 8 6 5 2 6 4 7 7 5 4 6 8 8 9 11 12 14 15 16 16 15 14 12 10 8
28 28 29 31 34 30 38 30 38 33 25 26 18 16 10 6 9 8 11 8 5 8 6 9 6 6 6 7 4 4 5 4 4 5 4 4 4 4 4 5 6 8 9 11 13 13 12 11 10 9 8 7 7 6
30 30 32 30 29 35 33 25 40 29 27 16 8 9 9 7 7 10 11 8 9 7 8 8 5 2 4 2 2 3 4 3 4 3 3 2 2 3 5 7 9 9 8 7 8 8 8 7 6 5 4 4 4 4
29 27 30 34 34 34 29 39 32 29 19 14 8 10 7 9 9 12 12 13 11 13 9 8 3 2 4 3 3 3 2 3 2 3 3 4 5 6 9 9 7 6 5 4 3 2 3 2 2 2 2 4 5 7
35 33 30 32 31 32 39 32 30 25 11 8 6 8 5 9 10 13 13 16 14 13 11 5 3 3 2 2 2 1 2 5 6 6 6 7 8 7 6 5 4 3 2 1 1 2 1 1 3 5 7 8 10 12
28 31 36 37 37 38 34 35 28 8 10 9 7 4 7 7 7 10 12 15 17 15 12 8 2 4 2 1 1 2 6 6 5 6 7 7 6 4 3 2 2 3 3 3 2 1 3 5 7 9 12 14 15 16
38 39 34 37 36 37 38 32 12 10 9 9 4 2 4 7 8 9 14 16 19 19 14 11 4 3 3 6 5 3 5 7 6 5 5 4 3 2 3 5 6 4 2 2 3 6 9 11 13 15 16 17 17 17
35 35 36 36 39 37 20 10 6 7 8 12 4 6 5 5 5 6 9 13 13 15 15 12 9 5 4 4 6 8 9 7 4 1 1 3 5 5 4 2 0 3 5 8 10 13 15 16 16 17 17 17 18 19
33 33 32 38 36 19 6 7 11 5 5 2 1 3 3 4 5 6 9 12 14 15 15 14 10 8 7 8 8 7 5 2 4 7 7 5 4 2 1 3 6 8 11 13 15 16 16 17 18 19 19 19 19 19
28 31 35 33 28 20 6 4 7 11 4 5 6 7 8 8 7 7 7 12 13 13 13 11 9 8 8 7 6 4 5 7 7 6 4 2 1 3 5 8 9 11 13 14 15 17 17 18 18 18 19 19 19 18
28 28 27 24 16 13 12 12 7 6 6 5 8 10 10 9 8 7 7 11 12 11 10 11 10 8 7 5 5 7 8 7 5 3 2 3 4 6 8 10 11 13 14 16 17 18 18 18 19 19 19 18 18 17
22 23 19 13 13 10 12 12 13 13 13 11 10 8 8 8 7 10 11 8 7 11 11 9 9 7 7 8 10 9 6 4 3 2 3 5 7 9 11 12 14 15 16 17 17 17 17 18 18 18 18 17 17 17
20 16 9 12 12 14 18 17 14 12 13 10 10 8 4 7 9 9 9 11 9 8 10 11 10 11 12 12 9 7 5 4 3 4 6 7 9 11 13 14 15 16 16 16 17 18 19 19 19 19 18 18 17 17
14 12 10 9 14 13 13 13 14 15 12 12 9 7 7 7 7 6 9 12 11 11 11 11 11 11 12 10 8 6 5 4 6 7 8 9 11 13 14 16 16 16 16 17 18 19 19 19 19 19 19 19 19 19
7 7 12 13 11 11 14 16 14 14 13 10 11 12 7 6 7 8 10 13 16 16 17 18 17 15 12 9 7 6 5 6 8 9 10 11 13 15 16 16 16 17 18 19 19 20 20 20 20 20 20 20 20 20
9 8 9 10 13 15 15 13 14 14 15 13 14 12 7 7 5 8 11 16 18 16 15 14 13 11 9 7 6 6 7 8 9 10 12 14 15 15 15 15 17 18 19 20 20 20 20 20 20 20 20 20 20 20
10 10 11 12 13 15 15 16 16 17 16 17 16 15 10 7 7 7 13 17 18 19 18 15 13 10 8 7 6 7 8 9 11 12 14 15 15 15 15 16 18 19 19 20 20 20 20 20 20 20 19 19 20 20
12 9 10 10 12 13 13 13 16 15 15 16 15 14 12 9 7 12 17 19 20 20 18 15 12 10 8 7 7 8 9 10 12 14 15 15 16 17 17 18 19 20 20 20 20 20 20 19 20 20 20 21 20 20
11 10 9 8 8 7 9 11 11 12 14 14 13 15 11 9 9 17 20 20 19 16 14 12 10 8 8 8 8 9 10 12 13 15 15 16 16 17 18 19 20 20 21 21 20 20 20 20 21 21 21 20 20 21
10 11 11 9 10 13 9 8 6 10 15 16 15 11 7 9 13 17 19 18 17 16 12 10 9 8 8 9 9 10 11 13 14 15 15 16 17 18 19 19 20 20 19 19 20 20 21 21 21 20 20 21 22 23
12 13 12 12 11 13 14 11 9 9 13 15 13 7 6 10 16 17 18 17 16 13 11 10 9 8 9 9 10 11 12 14 14 15 15 16 17 18 18 19 19 19 19 20 21 21 21 20 20 21 22 23 24 25

GFSWCAN_700_spd_078.txt.gz
Wind_Speed
27 27 27 23 21 22 22 23 22 20 18 17 15 13 10 8 7 10 9 7 5 4 2 3 2 5 7 7 6 9 6 8 6 9 9 14 6 3 2 6 8 8 8 6 6 4 3 4 2 3 5 9 10 11
30 27 26 25 23 23 24 24 23 22 20 18 16 14 12 10 11 13 11 8 5 3 3 0 2 4 7 11 8 8 4 7 7 10 11 10 11 7 5 4 3 3 2 2 2 2 7 8 6 7 10 8 8 9
25 25 23 22 22 22 24 25 25 24 22 20 17 15 14 14 14 15 13 11 6 4 3 6 2 4 5 5 9 7 4 7 6 10 12 7 7 9 7 4 2 3 4 4 6 12 16 20 20 17 12 5 6 5
24 29 24 22 20 19 23 26 26 24 22 20 18 16 15 15 16 16 15 11 11 9 10 9 10 1 6 5 8 8 8 11 9 8 9 5 8 7 5 7 6 7 8 6 8 7 4 6 5 4 4 3 3 3
30 29 32 28 23 20 19 24 24 25 23 20 17 17 16 16 16 12 14 14 13 13 8 5 6 11 15 8 7 11 11 12 11 10 8 7 7 7 8 4 4 10 8 6 8 10 6 1 1 3 3 3 5 4
33 37 34 31 30 25 21 21 23 24 22 19 18 17 16 16 15 14 18 17 13 17 20 23 23 17 14 9 9 11 13 14 13 12 9 7 6 8 6 6 8 11 10 6 8 8 3 3 4 4 4 3 2 1
36 32 24 24 24 26 23 22 22 21 19 18 18 18 16 15 13 16 18 14 19 19 26 25 23 21 17 11 11 12 14 14 13 13 13 11 10 9 10 9 13 9 3 5 10 10 7 5 4 2 1 1 1 2
34 30 25 24 24 26 24 23 21 19 18 18 19 18 17 16 19 21 20 24 25 16 22 12 7 7 9 11 13 14 14 13 13 13 14 12 10 9 7 10 8 4 3 3 6 5 3 1 2 3 4 4 5 6
32 32 27 21 19 25 25 22 22 22 20 20 19 18 18 17 19 19 16 12 11 16 8 9 10 7 8 10 11 12 11 12 14 17 16 11 9 8 9 12 11 5 6 6 3 0 3 6 7 8 9 10 11 11
31 30 28 25 23 22 22 23 24 24 25 23 21 16 16 19 17 10 8 12 13 18 16 10 13 9 5 7 11 6 6 9 6 9 6 11 16 18 16 16 12 7 7 4 5 7 10 12 13 15 16 14 13 13
28 26 29 28 24 22 25 27 27 26 19 19 20 21 12 13 12 10 7 10 10 7 13 16 14 14 9 6 9 10 5 5 4 5 6 4 9 8 11 14 15 15 13 12 12 13 15 15 15 14 12 11 10 10
27 32 31 29 25 26 29 29 32 25 22 22 21 18 20 15 6 6 8 7 7 8 8 13 15 15 14 10 11 9 7 5 4 5 5 4 10 8 8 7 9 10 11 12 12 12 12 12 12 13 14 14 13 11
34 34 30 26 28 30 29 30 29 26 25 27 22 19 9 8 9 7 11 9 7 7 9 10 12 13 14 14 10 7 7 7 3 6 4 8 6 5 5 5 6 7 8 9 10 11 12 13 13 13 12 11 9 8
33 30 28 30 31 31 31 28 24 23 32 24 12 13 9 7 9 10 13 10 7 9 13 12 11 10 11 14 8 5 6 4 5 4 6 7 6 5 5 4 5 6 8 9 10 10 9 8 7 7 6 6 5 4
29 29 31 32 33 37 30 36 23 28 33 13 9 8 11 10 8 11 14 11 11 12 8 12 12 7 10 5 4 3 3 3 4 4 5 5 5 4 4 3 5 6 6 6 7 6 5 5 4 3 2 2 2 2
30 32 33 33 37 37 29 35 30 23 22 12 6 9 9 10 11 13 16 13 12 11 9 10 5 4 5 3 3 4 2 3 3 3 3 4 4 4 4 5 5 6 6 5 5 4 3 2 2 3 3 5 6 8
31 33 34 40 35 35 33 38 36 30 11 8 7 10 8 10 12 13 14 13 12 14 10 5 4 4 3 3 3 3 3 4 5 4 5 6 7 8 7 6 5 4 2 2 1 0 1 2 3 5 7 9 11 13
30 33 36 37 39 37 34 36 35 11 14 11 8 9 8 10 11 14 13 15 14 14 13 7 4 5 3 3 3 3 3 4 4 5 6 7 6 5 4 3 1 0 1 1 0 2 4 6 8 11 13 16 17 18
33 34 33 37 32 32 37 32 16 11 17 12 9 6 10 9 9 11 13 16 17 14 13 10 4 4 5 5 5 4 3 5 7 7 6 5 3 2 2 2 3 2 1 2 5 7 10 12 14 16 17 18 19 19
33 33 32 33 39 36 21 17 13 12 15 12 6 6 8 10 10 10 12 16 18 18 16 12 11 6 4 3 4 6 9 10 7 4 2 3 4 5 5 3 2 3 5 8 10 12 14 15 15 16 17 18 19 20
37 36 35 36 30 22 13 16 13 12 9 9 10 6 5 5 5 7 9 12 14 17 18 16 13 11 9 8 8 8 7 5 3 7 9 8 6 4 2 3 5 7 9 11 13 14 15 16 17 18 18 19 19 19
34 36 35 35 26 10 7 10 9 9 5 6 6 4 4 5 6 7 8 13 16 16 14 13 13 12 10 8 7 6 5 6 8 6 6 5 4 3 5 6 8 10 12 13 15 16 16 17 17 17 18 18 18 18
30 33 34 30 16 10 6 6 8 8 5 4 5 4 6 7 8 9 8 12 14 13 13 12 11 10 9 8 7 6 8 9 7 5 3 3 4 6 8 9 11 13 14 16 17 17 17 17 18 18 19 19 19 18
27 30 27 22 15 9 9 10 12 9 8 9 9 8 7 7 7 10 11 9 12 14 12 11 12 11 10 9 9 11 10 8 6 5 4 5 7 8 10 11 13 15 16 17 17 17 17 18 19 19 19 19 19 19
21 17 10 11 10 12 12 10 11 10 10 9 9 7 4 5 8 8 10 14 12 11 13 13 13 12 11 11 12 11 8 7 6 6 5 7 9 10 12 14 15 16 16 17 17 18 19 19 20 20 20 19 19 19
12 9 9 9 14 15 16 15 14 15 13 10 8 7 7 7 7 7 12 15 15 15 13 13 12 11 12 15 14 11 8 7 6 6 7 9 11 12 14 16 17 17 17 17 18 19 20 20 20 20 20 20 20 20
13 10 16 17 13 12 14 15 14 13 12 11 11 11 7 6 7 9 11 14 18 18 18 16 16 16 15 14 11 9 8 7 6 8 9 11 12 14 16 17 17 17 18 19 19 19 20 20 20 20 20 20 20 20
15 15 13 11 14 16 15 14 13 13 14 14 15 11 7 8 7 8 11 13 17 17 15 14 14 15 14 11 10 8 7 7 8 10 11 12 14 15 16 16 17 18 18 19 20 20 20 20 21 21 20 20 20 20
15 15 15 14 15 17 18 19 19 19 18 17 17 18 15 12 11 8 9 12 16 16 16 17 17 15 13 10 9 8 8 8 9 11 12 14 15 15 16 16 17 18 19 20 20 20 21 20 20 20 20 20 21 21
16 15 15 15 17 19 19 16 18 21 21 20 18 18 16 14 9 6 10 16 18 20 22 22 19 16 13 11 9 9 9 9 10 12 14 15 15 15 16 17 18 19 19 20 20 20 20 20 20 21 21 21 21 20
14 16 16 14 13 12 14 14 15 15 18 16 18 17 16 14 11 10 15 19 21 21 19 17 15 13 12 11 9 9 9 10 11 13 14 15 15 16 17 18 19 19 20 20 20 20 20 21 21 21 21 20 21 22
14 13 14 13 10 11 10 10 12 13 14 17 17 16 16 14 14 14 19 21 22 21 20 17 14 13 11 10 10 9 10 11 12 13 14 14 15 16 17 18 19 19 20 20 20 20 20 21 21 21 21 22 23 24
12 15 15 15 13 13 15 12 10 11 14 18 18 17 16 14 15 17 21 23 23 21 18 15 14 12 11 10 9 9 10 11 12 13 13 14 15 17 18 18 19 19 19 20 20 20 20 21 22 23 24 25 26 28

GFSWCAN_700_spd_081.txt.gz
Wind_Speed
27 29 26 25 28 25 22 21 23 24 22 20 17 14 11 10 9 9 12 11 9 8 4 5 3 2 3 3 4 8 6 4 5 9 8 10 13 1 4 4 9 8 7 6 7 3 2 4 3 1 2 6 11 12
31 30 29 26 23 21 21 22 26 26 23 21 19 17 14 12 12 14 13 12 10 7 8 4 3 3 1 4 7 6 5 8 6 8 9 13 18 9 7 5 1 3 2 1 3 6 2 4 8 7 7 12 12 12
35 33 31 26 22 21 20 23 24 26 25 23 21 18 15 13 13 16 12 12 7 5 3 5 5 0 2 4 5 5 2 5 6 8 14 11 10 13 11 10 4 3 3 2 3 5 9 11 13 10 13 13 9 8
30 32 30 25 22 20 21 24 27 28 26 24 21 19 17 16 16 17 14 10 9 5 5 5 10 6 2 4 5 7 11 12 12 10 12 9 11 10 8 9 9 9 8 5 8 8 7 10 7 4 2 6 4 1
33 33 29 25 22 18 20 24 26 26 24 23 20 18 16 16 15 13 14 13 12 8 6 6 4 8 7 7 8 9 12 13 10 12 10 9 9 12 9 6 4 11 12 5 6 6 9 6 4 2 3 3 4 2
37 33 29 34 24 19 18 21 24 23 23 22 20 17 17 16 14 10 12 14 11 10 11 12 15 16 16 16 15 13 12 13 13 13 12 8 6 10 9 8 7 12 13 8 6 7 6 4 4 3 2 0 2 2
42 32 27 27 27 22 19 18 21 21 22 21 18 18 17 17 14 17 11 8 6 6 16 16 13 14 12 15 13 13 14 12 11 13 10 9 6 9 9 9 14 16 8 0 5 8 7 5 4 2 1 0 2 3
38 33 32 29 27 25 26 22 20 23 21 19 18 18 17 16 15 18 15 12 12 16 17 10 9 14 9 10 11 14 12 10 11 11 11 10 7 8 7 10 12 11 3 1 4 3 5 3 3 3 4 5 6 7
30 39 30 28 27 24 25 24 22 19 21 20 18 18 17 18 18 14 12 14 17 17 6 9 10 5 6 9 10 8 9 9 9 14 11 6 8 7 10 9 11 11 4 3 2 2 1 2 4 6 7 9 10 10
28 36 35 30 25 22 27 24 22 22 22 22 21 15 14 19 13 12 13 15 12 16 19 16 8 7 5 8 8 5 5 7 6 7 5 10 14 20 18 15 15 11 8 6 6 5 6 8 9 10 11 11 11 11
29 33 32 26 19 22 25 24 24 25 26 25 18 15 12 11 12 12 6 7 7 7 10 14 13 9 8 5 7 7 4 4 3 6 6 5 10 8 10 15 15 14 11 10 9 10 11 12 13 12 11 11 11 11
31 32 32 27 25 24 24 25 28 28 27 19 19 17 15 16 7 7 6 7 7 6 8 11 13 13 9 9 6 6 5 4 6 8 4 4 10 8 8 7 7 8 9 9 9 9 9 9 10 11 12 13 13 13
30 30 29 31 30 27 25 28 29 29 22 21 18 19 11 9 8 8 9 6 7 7 10 11 14 17 12 10 7 4 5 7 4 4 4 6 5 5 6 5 5 5 6 7 8 9 11 12 13 13 13 12 11 10
28 31 33 32 28 26 27 30 33 28 28 15 12 13 9 6 8 10 10 10 11 7 9 10 11 10 11 10 7 6 7 4 4 4 6 7 5 3 3 4 5 5 7 9 10 10 11 11 10 9 8 8 7 7
31 35 31 30 26 27 29 30 32 22 25 16 9 7 11 13 9 9 9 10 10 9 10 10 9 8 10 7 6 6 3 3 3 4 5 5 5 4 4 5 6 8 10 9 9 9 8 7 6 5 4 4 4 5
36 33 29 27 29 31 34 30 34 29 32 10 8 8 8 11 10 11 12 12 12 12 10 12 7 5 7 5 4 3 2 2 4 4 5 6 6 7 7 9 9 8 7 7 7 6 5 4 4 4 4 5 6 8
33 27 30 32 33 32 35 41 33 30 20 10 8 9 9 9 11 11 13 12 14 14 11 7 5 5 3 3 4 5 6 5 7 9 9 9 10 10 10 9 7 6 5 4 2 2 2 3 5 7 8 11 13 15
29 29 35 40 38 30 39 33 26 13 9 12 9 10 9 8 11 11 13 15 15 17 13 6 4 5 3 3 5 5 5 7 6 5 6 6 7 6 5 4 3 2 1 1 1 3 5 8 10 12 15 17 18 18
30 35 37 42 34 27 32 32 25 7 12 15 11 8 9 9 11 11 14 15 15 16 15 9 5 5 10 8 7 8 8 7 7 9 8 7 5 4 3 3 3 2 1 3 5 8 11 13 16 18 19 20 21 23
32 36 39 37 29 33 20 17 29 10 12 16 11 5 8 10 10 11 14 16 18 16 15 14 13 8 6 6 6 6 8 10 11 10 6 3 4 4 4 3 2 3 5 8 11 14 16 17 18 19 21 22 23 24
37 40 34 33 37 21 7 18 16 12 13 15 10 7 6 9 11 12 12 14 17 20 22 19 16 13 12 10 10 10 10 8 7 5 5 6 5 4 3 3 5 8 10 13 15 16 18 20 21 21 22 21 21 22
37 38 40 38 27 18 9 17 14 12 10 13 12 11 8 8 9 10 10 14 18 20 18 16 16 15 14 13 11 10 8 6 5 6 6 5 4 3 4 7 9 11 13 15 17 19 20 21 21 21 21 22 22 22
33 34 36 29 18 5 13 18 15 14 9 10 11 11 9 10 11 11 13 15 17 17 19 19 16 15 13 13 11 9 8 8 9 7 6 5 5 6 8 10 12 14 16 17 19 21 21 21 20 21 22 22 23 23
33 34 19 16 10 5 7 10 11 13 10 8 9 10 9 10 10 13 17 17 13 17 17 17 17 16 14 12 11 9 10 10 9 7 6 7 7 9 10 12 14 16 18 20 20 20 20 20 21 22 22 23 23 23
24 19 13 11 15 10 12 9 12 13 12 9 10 11 8 9 11 13 15 14 15 15 18 16 16 15 14 13 11 11 12 10 8 7 8 9 10 11 12 14 16 18 20 21 20 20 21 22 22 23 24 23 23 24
15 10 11 10 17 14 14 13 13 15 15 13 9 9 10 11 9 8 13 14 16 15 14 16 16 14 13 13 13 14 12 10 9 9 9 10 11 12 14 17 19 19 20 20 20 21 22 22 23 24 24 24 23 24
14 10 15 15 12 11 15 17 15 13 12 11 13 13 9 7 7 11 10 13 16 19 19 17 17 16 14 12 13 13 11 10 10 10 11 11 12 14 16 18 19 19 20 20 21 22 23 23 24 24 24 24 24 24
18 19 17 14 15 18 17 15 14 15 17 16 15 12 8 8 8 8 8 12 14 17 18 17 15 14 15 16 15 14 12 11 11 11 12 12 14 16 18 19 19 20 20 21 22 23 23 24 24 24 23 23 24 24
24 22 19 20 19 18 18 20 20 21 19 17 17 19 19 16 13 11 8 9 12 16 18 17 16 16 16 16 15 13 13 12 11 12 12 14 15 17 18 19 19 20 21 22 23 23 23 23 23 23 23 24 24 24
23 21 21 20 20 21 22 21 20 19 22 22 21 21 20 18 17 14 12 13 17 20 21 21 21 21 20 18 16 14 12 11 11 12 13 15 16 18 19 19 19 20 21 22 22 22 22 22 23 23 23 23 23 24
23 25 24 23 23 22 20 21 21 22 22 21 23 23 21 19 19 18 15 12 17 21 23 23 22 20 18 16 14 12 11 11 12 12 14 16 17 18 18 19 20 21 21 21 21 22 22 23 23 23 24 24 24 25
20 21 21 22 23 21 19 18 19 20 20 21 21 21 21 21 20 18 17 18 22 23 22 22 21 19 17 15 13 12 12 11 12 13 15 16 17 17 18 19 20 20 20 21 21 21 22 23 23 24 25 26 27 29
16 18 20 19 19 18 16 15 13 12 15 18 19 21 22 22 21 19 18 20 22 23 23 20 19 17 15 14 12 11 11 11 12 14 15 16 16 17 18 19 19 20 20 20 21 22 23 24 25 26 27 29 30 31

GFSWCAN_700_spd_084.txt.gz
Wind_Speed
24 22 24 23 21 20 20 18 17 18 19 18 17 15 14 12 10 8 8 10 12 13 8 9 8 12 2 3 4 8 5 7 6 8 8 10 12 19 10 4 15 11 10 10 13 9 6 13 7 8 6 3 10 15
27 25 27 21 24 22 22 19 19 19 22 21 19 17 16 13 12 10 10 11 9 9 7 9 6 3 2 6 8 5 4 8 6 7 9 12 18 12 17 2 4 1 9 10 10 7 10 15 11 6 4 9 14 14
33 27 23 27 23 21 19 17 18 21 24 22 20 19 16 13 12 14 8 12 10 8 5 5 3 3 2 2 4 2 3 5 6 8 12 13 13 17 15 10 17 9 14 8 8 9 11 15 14 8 6 8 9 9
34 34 28 23 23 19 17 16 18 20 23 22 20 18 15 14 14 16 12 10 10 6 2 0 8 10 6 3 6 6 8 10 11 10 11 12 12 12 16 15 11 15 12 7 5 6 8 11 12 7 5 3 4 5
34 34 31 26 24 19 17 17 19 22 23 20 19 18 16 15 14 14 16 10 10 8 5 6 7 6 11 7 8 9 8 14 14 9 10 13 9 13 14 7 13 16 19 10 4 6 7 7 8 5 4 6 5 5
31 34 34 25 24 20 14 16 21 22 22 19 19 17 17 15 13 12 11 13 10 7 7 4 7 14 15 18 17 16 14 11 11 12 12 9 6 12 10 8 9 20 17 13 6 3 3 3 2 1 2 4 4 4
32 33 31 29 26 20 12 15 20 21 19 17 18 17 15 14 14 12 10 7 9 7 6 9 8 7 3 9 13 12 12 11 12 12 10 8 6 9 9 7 14 15 16 7 4 3 4 3 2 1 2 4 4 5
26 38 35 25 27 20 14 15 20 19 17 17 17 15 14 15 15 15 13 10 9 6 9 5 8 12 11 11 8 12 13 12 11 10 7 8 7 7 6 8 10 13 11 5 3 2 4 4 3 3 4 4 5 7
27 35 32 27 34 25 18 16 17 19 19 16 16 15 14 14 15 12 13 12 10 11 11 13 11 9 4 5 8 9 8 9 6 10 8 5 7 6 10 10 11 10 12 4 2 2 2 1 2 4 6 7 8 8
27 36 32 27 25 23 20 19 20 18 17 18 17 14 12 13 9 10 11 11 12 15 18 20 13 9 7 5 4 4 4 6 5 7 6 12 15 18 19 19 17 15 13 11 6 5 6 7 8 10 10 10 9 8
28 35 30 26 24 21 20 23 23 22 20 19 18 9 8 9 10 9 6 5 6 6 12 14 14 10 8 4 7 5 3 3 3 4 4 3 10 8 8 10 13 14 10 10 9 9 10 11 11 9 9 9 10 10
31 33 31 28 24 24 24 26 26 25 21 23 13 11 10 12 7 7 7 6 7 6 6 7 10 12 7 6 6 5 5 3 4 7 4 4 10 8 8 9 7 5 5 6 7 8 9 9 10 10 11 12 13 13
29 31 32 29 23 21 28 27 24 22 28 18 13 15 10 8 7 8 8 7 7 8 11 9 12 13 9 7 5 2 4 5 4 4 4 6 5 5 5 4 4 3 4 5 6 7 8 9 10 11 11 12 11 11
29 30 32 27 25 25 26 25 26 31 23 15 14 14 8 6 8 8 10 7 11 6 7 8 11 8 9 4 4 4 5 5 3 4 6 5 6 6 5 3 3 4 4 6 7 7 8 9 10 9 9 10 10 9
28 28 29 26 28 26 25 25 32 31 20 9 8 7 8 10 8 4 10 10 9 7 8 8 8 6 7 5 4 6 4 5 4 2 1 3 4 4 5 4 4 6 7 7 8 8 8 7 7 7 7 7 7 7
29 29 29 31 27 25 25 32 34 29 17 7 7 7 6 8 11 9 10 10 9 8 12 10 6 4 6 5 5 4 4 3 3 4 5 5 5 4 5 6 9 10 10 9 8 7 6 6 6 6 6 7 9 10
31 31 32 30 24 24 27 32 30 24 16 8 7 6 5 5 8 9 10 11 11 13 11 8 5 6 3 4 4 6 6 7 7 7 7 7 7 8 10 11 10 8 7 6 5 4 4 4 6 8 10 13 14 16
30 29 27 27 29 30 31 29 14 17 17 15 9 6 7 7 6 8 11 12 13 14 12 8 4 4 3 3 9 7 6 6 8 6 6 8 9 9 9 8 7 6 4 3 3 4 7 9 11 13 15 17 19 18
25 26 28 31 32 26 34 24 14 12 12 13 12 9 7 8 8 10 11 14 14 15 16 11 5 6 11 10 9 8 9 10 8 9 11 10 7 6 5 4 3 2 2 4 7 9 12 14 17 19 21 22 22 25
21 30 35 33 28 25 23 14 27 10 5 8 11 7 6 8 10 11 13 15 16 16 17 19 18 12 7 8 8 8 8 8 11 12 10 7 3 3 3 2 2 4 6 9 11 14 16 18 18 20 23 24 25 25
33 39 35 26 20 24 15 14 19 18 16 11 10 9 8 9 11 11 13 15 17 21 23 20 17 16 15 14 13 12 12 12 10 8 6 4 4 4 3 4 5 8 10 13 15 16 20 23 25 25 25 24 23 23
38 39 32 22 21 20 10 13 16 12 11 10 13 11 10 9 10 12 12 15 20 22 21 21 19 19 20 17 15 13 13 12 9 6 6 5 5 4 5 6 8 11 14 16 18 21 23 24 25 25 25 26 25 25
37 36 29 19 17 17 9 13 16 13 9 8 14 14 13 11 11 10 13 16 19 16 20 19 20 18 15 15 15 14 13 11 8 8 7 6 6 6 7 9 12 14 16 17 20 23 24 25 24 26 26 26 26 27
34 30 19 18 12 9 11 16 17 14 13 11 13 15 13 13 11 13 17 20 16 16 17 20 19 18 17 16 15 14 13 10 10 9 8 7 7 8 9 11 14 16 19 21 23 24 25 25 25 26 26 26 26 27
27 19 10 12 16 8 7 11 13 13 15 13 12 12 10 10 12 15 17 20 15 19 17 18 17 17 17 17 14 13 12 11 11 10 9 8 9 10 11 13 16 17 20 22 23 24 25 24 25 25 26 26 27 26
16 7 11 10 17 16 12 10 11 13 15 14 10 10 10 12 12 9 15 14 15 15 15 15 17 17 16 14 14 13 13 13 12 10 10 10 11 12 13 16 17 18 22 23 24 25 25 25 26 26 27 28 27 26
11 10 15 17 13 14 18 18 15 13 12 12 17 15 11 6 7 13 14 12 13 14 17 18 18 18 17 14 13 13 14 14 12 12 11 11 12 13 15 18 20 22 23 24 24 25 25 26 26 27 27 27 27 27
20 22 14 15 19 16 15 14 13 13 15 16 15 12 8 9 11 10 9 10 11 13 17 20 20 17 13 14 15 17 17 16 13 12 12 12 12 14 17 19 21 23 24 24 24 25 25 26 26 26 26 27 27 27
25 21 24 22 19 18 18 18 20 21 18 16 17 19 20 19 17 14 13 11 10 11 14 17 17 15 17 17 17 18 17 14 13 13 12 13 13 15 18 20 22 23 23 23 24 25 25 25 26 26 26 26 26 27
29 26 26 25 24 24 24 22 22 16 19 20 21 23 21 20 19 18 18 17 16 15 16 18 20 21 19 19 18 17 15 14 13 13 13 13 14 17 19 21 22 23 23 24 24 24 25 25 25 25 25 26 26 27
27 30 30 28 27 27 23 22 22 22 23 24 24 26 25 22 23 22 21 20 19 14 17 21 23 22 21 20 18 16 14 14 13 13 13 13 15 18 19 21 21 22 23 23 24 25 25 25 25 26 27 28 28 30
24 26 26 28 30 27 26 26 25 25 24 24 26 27 25 25 25 25 23 22 22 20 19 21 23 21 18 17 17 15 14 13 13 12 13 14 16 18 19 20 21 22 22 23 23 24 24 25 26 27 28 30 31 32
20 21 23 23 23 23 21 21 22 22 22 22 23 22 24 26 27 24 22 23 22 18 20 20 19 21 19 17 15 13 12 12 12 12 13 15 16 18 19 20 20 21 22 22 23 24 25 26 28 29 30 32 33 33

GFSWCAN_700_spd_087.txt.gz
Wind_Speed
29 23 22 23 21 21 19 21 17 14 14 14 15 14 12 10 8 7 7 9 18 15 13 17 13 12 6 6 4 3 4 3 4 5 6 9 11 12 16 5 5 10 7 11 14 7 2 15 15 15 9 3 7 12
27 22 24 26 18 18 16 16 16 15 20 20 19 17 14 11 10 9 7 11 13 7 7 9 6 5 3 1 2 4 2 3 4 5 6 7 15 12 22 7 13 3 10 12 8 6 5 12 12 8 3 4 7 10
24 24 25 24 21 17 14 15 14 15 18 22 20 18 16 13 12 10 11 14 13 12 11 9 9 6 3 1 2 1 1 4 6 7 10 8 8 14 15 13 17 15 12 8 5 9 10 16 13 10 7 5 6 7
29 26 24 23 18 22 16 13 14 16 18 20 19 17 16 14 12 12 10 16 14 12 8 7 4 7 5 4 4 4 4 8 9 11 10 9 12 7 16 16 16 19 15 11 11 9 7 9 10 10 7 7 8 9
26 28 22 22 24 17 14 13 13 17 20 20 19 16 16 14 13 12 10 13 13 11 7 4 3 4 4 10 8 8 9 10 11 10 10 11 8 9 12 7 14 20 19 11 4 4 3 5 7 7 8 7 6 7
31 30 24 20 19 16 13 12 13 17 20 19 16 15 16 15 13 12 13 13 12 12 7 4 1 6 7 10 13 17 15 12 10 7 9 8 2 6 7 8 9 15 17 12 8 4 5 5 7 6 7 5 5 6
28 27 27 23 18 16 14 11 15 18 19 16 16 15 15 14 13 12 9 9 11 10 6 4 4 2 3 5 9 10 13 13 10 9 7 5 2 4 6 8 9 12 14 7 6 5 4 5 5 5 5 5 7 6
24 29 25 28 22 19 13 12 19 21 20 17 14 14 13 13 13 12 11 8 9 9 5 3 2 4 6 8 11 8 12 14 12 11 8 5 3 4 5 4 5 10 12 6 3 1 3 3 4 5 4 4 5 6
23 27 28 30 24 18 13 14 19 19 19 16 15 13 13 14 14 14 12 10 12 7 4 5 5 4 2 5 6 7 10 10 9 9 5 3 4 7 8 5 8 10 9 7 3 1 3 2 3 3 6 7 7 9
23 23 31 29 26 25 17 15 20 20 19 16 13 13 11 11 9 12 10 10 11 12 14 16 11 9 6 5 4 3 4 5 4 5 5 8 12 14 14 15 16 13 10 11 6 3 4 3 6 9 10 9 8 8
25 23 30 28 30 27 21 19 19 22 19 15 14 12 11 13 12 8 5 5 5 5 9 8 7 13 9 5 5 4 3 3 4 3 4 3 7 7 6 7 6 8 10 6 5 6 8 8 7 7 7 8 8 9
24 28 29 32 28 23 22 19 20 17 14 20 16 14 11 12 5 5 5 5 6 3 5 4 2 10 6 4 4 5 4 3 2 2 4 4 7 5 5 5 6 7 5 5 5 6 6 6 6 7 8 9 10 10
27 32 29 27 25 22 19 20 22 18 22 19 15 13 9 8 6 7 8 6 6 7 7 5 9 9 8 5 4 2 4 5 3 4 4 6 3 4 3 3 3 3 3 3 3 5 5 6 6 6 7 7 7 7
28 33 27 26 22 21 19 24 23 23 26 17 9 10 7 6 8 8 10 5 7 5 4 9 9 9 10 4 4 3 3 4 4 5 5 3 3 3 2 2 2 1 1 2 3 4 4 4 5 5 6 6 6 7
30 33 26 22 19 20 26 27 24 32 20 9 7 6 9 7 5 6 9 10 5 8 3 6 9 8 9 5 3 3 3 3 3 1 2 1 1 2 1 1 1 3 5 5 5 5 5 5 4 3 5 6 7 9
31 30 28 26 26 28 28 26 31 32 17 5 8 7 8 8 9 10 6 10 9 7 8 9 7 4 5 3 3 4 4 3 4 3 2 2 2 1 2 3 5 6 6 4 3 3 3 4 6 7 8 10 11 13
32 32 30 28 27 26 23 26 34 24 5 4 6 8 2 4 5 9 10 10 11 10 13 7 5 4 4 4 4 4 3 7 6 5 4 2 2 3 4 5 4 4 3 3 3 4 5 6 7 10 11 13 16 17
27 28 29 30 28 26 22 28 27 10 8 9 7 5 4 3 4 6 9 12 13 14 12 8 2 6 3 4 7 5 7 5 6 5 4 7 7 7 6 4 3 2 1 2 3 5 7 9 10 12 14 16 17 18
27 28 30 24 19 22 27 27 16 10 17 16 16 11 9 6 4 5 10 13 13 14 14 11 5 7 9 9 9 9 9 8 7 7 9 10 10 6 3 1 1 2 2 3 5 8 11 13 16 18 20 22 24 24
25 22 20 20 23 20 22 13 11 7 8 10 12 12 7 5 6 8 11 12 14 15 16 19 19 13 9 7 6 6 7 7 8 11 11 9 6 3 4 4 2 1 4 7 9 11 13 15 17 19 22 23 25 25
26 27 31 31 19 20 16 7 15 10 9 7 5 9 7 4 4 7 11 13 16 19 20 19 17 16 16 15 13 12 12 11 11 11 9 5 5 5 4 1 1 4 6 9 11 14 17 19 22 23 23 22 23 24
31 37 32 21 10 18 10 7 9 15 13 11 9 11 9 7 6 11 12 14 17 18 18 17 18 18 18 17 17 17 15 12 11 10 7 5 5 4 3 3 4 6 8 11 15 17 20 22 23 24 24 24 25 25
33 34 22 15 5 13 15 18 13 14 9 6 10 13 11 9 9 7 11 14 16 16 16 17 17 18 18 17 16 14 13 12 10 9 6 6 6 5 5 5 7 9 11 14 17 20 22 23 25 26 26 26 27 28
29 23 18 5 6 9 11 11 13 15 15 11 8 11 11 11 10 11 15 14 13 14 14 14 15 17 17 17 16 14 11 10 9 8 8 8 7 7 7 7 9 11 14 17 19 21 23 25 26 26 26 27 27 27
19 18 8 10 14 9 7 8 13 15 13 11 10 9 6 8 11 14 17 17 15 14 16 17 17 16 16 16 15 13 11 10 10 11 12 11 10 9 8 8 11 13 17 19 21 24 25 25 25 26 27 27 28 28
15 10 11 10 12 13 11 9 11 13 12 12 11 9 9 10 12 9 16 15 12 14 15 16 15 14 15 12 13 13 12 12 12 14 13 11 10 9 9 10 12 15 17 20 23 26 27 27 27 27 28 29 28 27
19 10 15 18 14 15 19 17 13 11 10 11 15 13 12 7 7 12 12 11 12 12 13 13 14 14 13 14 12 11 11 12 12 13 13 12 11 11 11 11 12 15 19 21 24 25 26 27 27 27 27 28 28 28
21 23 13 13 18 16 14 13 13 11 14 16 16 14 7 7 10 10 11 11 10 10 11 12 15 15 11 11 14 16 15 15 16 15 13 12 12 12 13 14 16 19 21 23 24 25 25 26 27 27 27 27 27 27
27 21 21 21 14 14 18 19 17 16 17 17 16 16 15 15 16 16 17 16 14 13 12 12 12 12 14 16 18 17 16 16 15 13 12 12 12 12 13 15 17 20 22 24 24 25 25 26 26 26 27 27 27 28
30 29 28 24 21 24 25 22 20 18 17 17 19 20 19 18 19 19 19 18 17 17 16 15 14 17 19 19 18 16 14 14 13 12 11 12 12 13 14 17 19 21 22 22 23 24 25 25 25 25 25 26 28 30
29 32 31 29 29 28 26 25 25 24 24 23 22 23 23 22 23 23 22 22 22 20 19 18 17 18 19 18 17 16 15 13 12 12 11 11 12 13 15 18 20 21 22 23 24 24 25 25 26 26 28 29 31 32
27 27 29 32 34 33 32 31 28 27 26 26 27 26 26 26 25 26 25 24 24 23 22 20 17 16 16 17 16 16 15 13 11 11 11 11 12 14 16 18 19 20 21 22 23 24 25 24 26 27 29 31 31 31
25 28 29 28 29 28 27 25 26 28 29 29 30 28 28 28 29 28 27 26 25 24 21 16 14 16 17 17 16 15 13 12 11 11 11 11 12 14 16 18 19 20 21 22 23 23 24 25 27 29 30 29 30 30

GFSWCAN_700_spd_090.txt.gz
Wind_Speed
24 20 22 22 22 17 24 22 17 12 16 20 16 16 16 14 12 10 11 14 19 14 11 13 10 10 8 7 5 5 4 2 4 6 5 6 6 10 14 11 3 2 5 10 13 4 4 11 17 14 10 4 6 10
29 18 22 19 20 21 19 23 20 13 14 19 20 18 16 13 10 9 10 12 14 12 11 13 12 9 6 5 3 6 6 3 4 6 7 5 7 9 16 8 19 12 6 4 4 4 5 6 9 8 6 4 8 11
23 27 22 21 21 24 18 17 19 15 19 23 21 19 16 14 10 8 8 11 16 10 15 14 11 8 6 4 3 3 4 4 3 4 8 6 5 9 11 9 14 11 7 4 2 6 11 9 7 8 8 10 13 12
29 22 23 28 24 23 18 16 16 16 16 20 18 16 15 13 10 9 9 13 15 17 11 13 10 6 4 2 1 2 3 5 5 6 7 6 6 5 10 3 16 13 5 4 4 6 5 6 7 10 11 12 11 10
28 27 26 23 21 18 14 12 13 16 20 21 20 17 15 13 11 11 11 14 14 12 11 10 7 4 5 7 5 4 4 7 7 6 4 4 4 2 7 5 9 13 9 1 2 1 3 4 6 9 10 9 9 10
29 28 22 23 26 21 15 10 12 17 21 21 19 16 16 14 12 11 11 13 15 13 12 8 6 3 4 5 6 9 10 6 5 4 4 2 4 3 2 3 6 10 10 7 5 4 5 5 6 5 7 8 8 8
27 28 23 25 22 17 13 11 13 17 22 18 17 17 16 14 13 12 9 10 13 13 11 6 4 4 1 2 4 7 11 8 5 5 2 3 4 4 4 5 3 6 8 4 3 3 2 4 4 5 6 6 6 4
24 25 23 23 19 17 12 10 12 17 19 17 17 17 15 14 12 12 9 8 10 13 11 5 6 6 3 5 7 6 10 9 8 10 6 5 8 7 4 3 2 3 7 5 4 1 4 3 3 4 3 4 6 6
23 24 25 24 20 15 12 12 17 20 20 16 15 16 15 15 13 10 8 7 10 10 9 7 6 3 3 1 4 5 7 7 9 11 6 7 9 8 9 6 6 7 5 4 2 2 2 1 1 2 4 7 7 7
25 25 24 26 18 16 13 17 22 23 20 16 16 15 13 13 15 11 8 7 7 8 10 7 6 5 5 2 2 3 4 4 5 3 8 11 13 14 13 11 11 10 5 5 3 3 2 4 6 8 8 8 7 7
22 22 26 24 25 21 16 21 24 23 20 17 16 13 15 14 12 9 5 6 5 4 5 5 7 11 9 4 2 3 4 4 4 5 7 5 8 6 6 6 5 5 6 5 3 4 5 5 6 6 5 7 7 8
21 21 28 27 27 24 18 20 23 20 16 16 15 16 19 13 6 5 6 4 3 3 3 1 2 7 9 5 3 5 5 3 3 6 5 4 6 4 6 5 3 2 1 3 4 4 4 4 5 6 7 6 6 7
21 21 29 28 29 25 23 22 21 17 21 21 19 13 11 5 5 6 7 5 5 5 3 2 6 13 8 3 4 4 3 3 2 4 4 6 3 2 2 2 1 2 2 1 1 3 3 3 4 5 6 6 5 6
23 29 30 32 30 27 24 22 21 24 25 19 11 10 6 6 6 7 8 7 7 4 2 6 5 6 7 4 4 3 3 3 3 4 4 1 3 2 2 2 2 2 1 1 2 2 3 3 3 3 2 4 5 5
32 33 36 31 27 23 22 23 22 29 21 10 6 5 6 6 5 8 8 8 6 7 2 8 9 10 7 5 3 3 3 3 3 2 3 3 2 3 4 4 4 2 1 1 2 2 2 2 3 3 3 5 7 9
34 33 32 29 26 23 23 26 27 28 15 8 4 6 8 8 7 8 6 9 9 8 6 7 7 5 6 3 3 4 3 3 5 3 1 1 2 3 3 3 1 2 2 2 2 1 2 2 2 4 7 8 10 12
35 35 31 27 24 24 25 25 33 28 8 6 10 9 7 3 6 9 11 9 11 11 12 6 4 3 3 3 3 3 1 4 3 3 2 2 1 0 2 2 2 1 0 2 4 3 2 3 5 7 8 10 12 15
31 28 25 26 28 28 27 25 24 15 7 9 11 8 3 4 2 5 9 11 13 13 16 10 2 8 4 4 2 1 4 3 3 2 1 3 4 4 4 4 4 5 6 5 3 1 3 5 7 10 12 14 17 18
30 27 26 24 24 23 19 23 21 4 9 9 8 6 2 6 4 5 9 12 15 17 17 13 6 7 7 4 5 5 5 5 4 3 4 6 6 3 4 6 7 7 5 3 0 2 5 7 10 13 16 18 19 21
24 22 23 23 21 17 12 21 17 4 6 9 8 9 11 7 6 7 9 14 16 18 18 19 17 10 5 5 5 6 5 5 6 7 7 5 4 3 7 8 8 6 4 2 2 6 8 12 16 19 21 23 24 25
30 27 24 19 21 18 9 21 15 10 9 8 7 9 11 8 6 8 11 13 18 20 18 15 13 14 13 13 12 11 10 10 9 8 7 6 5 8 9 9 7 5 3 2 5 7 10 13 15 19 21 23 24 24
30 26 30 25 19 20 9 11 15 10 10 8 8 6 10 9 5 7 9 13 16 15 14 15 14 15 14 14 14 14 13 12 10 8 7 6 7 9 9 8 6 4 3 5 8 10 13 16 18 21 22 24 25 25
25 32 24 17 9 12 13 9 8 9 9 8 7 9 11 12 7 6 10 12 13 12 12 13 13 15 16 16 15 13 11 10 10 8 7 7 9 10 9 7 6 5 5 7 10 13 16 19 22 23 24 25 26 26
28 27 25 8 6 8 13 15 19 17 14 13 10 7 8 10 9 10 12 11 8 8 9 10 11 13 14 14 14 13 12 11 10 8 8 10 11 10 8 8 8 8 8 9 12 15 18 21 23 24 25 26 26 27
21 15 6 7 8 9 9 12 12 14 15 11 10 9 6 4 7 10 13 11 9 9 10 11 13 15 16 16 14 13 13 12 11 10 10 12 11 9 9 10 9 9 10 12 15 17 20 22 23 24 25 26 27 28
8 9 9 6 11 11 11 9 8 9 10 11 9 8 7 6 7 7 12 9 10 11 11 13 13 15 14 14 14 12 11 12 11 10 10 11 10 10 10 10 10 12 13 15 17 20 22 23 24 26 26 27 27 28
13 8 13 15 12 11 12 11 8 7 8 10 12 11 9 6 6 9 7 6 5 7 9 10 11 11 10 11 11 11 11 11 11 12 14 13 11 10 10 11 12 13 15 17 20 22 24 25 25 26 27 27 27 27
27 23 11 11 16 16 13 13 15 16 13 12 12 9 6 6 7 8 8 7 6 9 10 10 8 6 9 12 14 14 14 14 14 13 13 12 11 10 10 12 13 14 16 19 21 23 24 24 24 25 26 27 27 27
17 21 28 21 13 12 16 19 17 15 12 11 12 12 14 12 12 13 13 13 13 13 14 13 12 9 9 13 15 15 14 13 14 13 13 12 11 11 12 12 13 15 17 20 21 22 23 24 25 25 26 26 27 28
30 26 26 21 21 22 22 19 15 14 15 15 15 16 16 16 16 16 16 16 16 16 16 16 15 14 13 14 15 14 13 12 12 13 13 13 11 11 12 12 14 16 19 20 21 22 23 24 25 24 24 26 27 29
31 36 36 31 30 30 27 26 24 21 21 22 22 23 22 22 21 21 21 21 20 19 19 20 18 16 15 14 14 15 14 14 14 14 13 11 12 12 12 13 14 16 18 19 20 22 23 23 23 24 26 28 28 28
27 28 28 30 32 31 30 29 28 28 28 29 29 28 27 27 27 27 24 24 24 22 22 22 19 16 15 15 16 16 15 15 15 14 12 11 11 12 12 14 15 17 18 19 20 21 21 22 23 25 27 26 27 28
29 31 31 31 31 31 30 28 30 31 32 32 31 29 30 32 33 33 30 28 26 24 22 20 18 17 16 16 16 16 16 16 15 13 11 10 10 11 12 13 15 16 17 18 20 19 21 22 24 25 25 25 26 26

GFSWCAN_700_spd_093.txt.gz
Wind_Speed
37 33 22 19 18 17 18 19 19 13 19 22 21 17 17 16 15 16 21 21 21 15 15 12 8 10 11 10 7 8 8 5 6 6 5 3 3 7 7 6 7 1 4 8 11 9 4 12 7 7 7 6 4 5
26 25 23 19 21 22 21 22 21 13 19 21 17 14 14 14 15 16 19 20 21 17 10 12 14 13 12 9 8 10 9 6 4 5 4 3 2 4 9 5 9 5 5 0 2 3 5 7 6 7 8 6 7 7
25 22 25 21 23 21 22 20 21 14 20 20 17 14 14 15 15 14 16 17 17 14 16 16 15 12 10 8 7 7 7 8 6 4 3 3 3 5 5 7 9 5 3 4 2 1 6 7 5 8 10 9 12 13
27 20 18 20 17 18 22 20 23 17 19 23 16 15 15 14 13 13 14 16 16 18 15 17 14 12 9 6 4 4 4 5 6 6 3 3 2 3 4 1 10 7 2 3 1 3 4 6 6 8 9 10 11 10
22 21 22 18 19 20 19 17 22 19 19 22 18 17 16 14 14 14 15 17 15 12 17 17 12 9 8 6 4 3 2 2 3 0 2 1 0 2 2 0 4 7 6 2 2 3 2 3 5 7 7 8 8 8
21 22 20 23 26 23 17 16 17 18 19 23 19 17 16 16 14 13 16 16 16 10 17 13 11 8 7 7 7 6 5 3 3 4 5 3 3 4 3 3 3 7 7 4 3 4 5 4 5 5 5 6 6 7
25 27 25 25 25 19 15 13 15 19 20 19 21 18 16 15 14 13 12 15 17 14 13 10 9 8 7 6 4 4 5 3 4 5 6 6 6 6 6 7 4 4 8 3 2 2 4 4 5 5 4 3 5 6
30 28 27 23 27 19 13 11 15 21 21 19 20 20 19 16 14 12 9 12 15 16 13 6 7 10 6 3 4 5 6 6 5 8 7 6 9 6 5 6 5 2 7 5 1 2 3 4 5 3 2 4 5 5
35 27 30 26 22 18 14 14 17 21 20 18 20 19 18 16 13 10 9 11 14 15 10 8 10 9 6 4 4 6 7 7 7 9 8 7 9 8 8 7 7 5 7 6 1 3 3 2 2 1 3 7 7 6
30 29 27 23 21 17 14 14 18 22 19 18 18 17 15 16 14 12 10 10 11 12 9 9 10 8 6 4 3 3 3 4 4 2 8 11 11 14 15 10 10 9 8 6 2 2 4 3 4 4 7 6 6 7
27 28 26 23 18 14 13 18 23 24 20 18 17 14 17 16 13 9 6 7 6 5 6 9 9 10 8 6 4 3 3 3 3 4 7 5 8 13 15 13 9 8 6 6 4 5 3 4 5 6 6 6 6 7
27 27 25 23 18 13 17 23 24 21 18 16 14 18 18 13 6 5 7 5 5 5 7 6 5 8 10 8 4 3 6 4 6 8 5 4 6 7 8 9 7 5 5 5 5 4 4 4 4 5 6 6 7 7
24 25 24 24 23 17 21 24 22 18 15 16 19 15 10 4 5 6 7 6 6 8 8 4 5 13 9 6 4 4 4 2 3 3 3 4 4 6 6 5 6 6 6 6 5 3 2 2 2 4 4 5 5 4
23 24 26 27 25 21 23 23 21 19 23 18 8 9 5 5 5 5 9 10 9 9 8 7 9 8 6 4 3 3 3 3 2 3 3 3 6 5 7 8 8 8 7 5 3 2 3 3 2 2 1 1 2 4
20 22 29 30 27 24 23 21 19 25 19 10 6 4 5 5 7 8 10 8 10 9 7 9 8 6 5 3 2 3 2 3 3 3 4 5 5 6 8 8 7 7 4 3 3 2 2 2 2 2 2 4 6 8
25 31 28 30 30 27 24 21 24 24 15 6 5 5 8 7 7 9 9 10 9 11 7 8 5 4 5 3 3 3 2 1 4 2 2 3 3 5 6 6 6 4 3 3 4 5 5 3 2 3 5 7 9 12
30 31 35 33 29 25 24 21 27 22 7 5 6 7 7 6 6 8 8 7 11 11 11 6 4 4 4 3 3 3 1 4 2 3 3 3 3 4 5 5 5 5 6 6 7 6 4 1 2 4 6 9 11 14
23 36 33 30 28 25 25 22 26 13 9 11 10 10 8 4 3 5 9 12 13 13 15 9 4 7 4 4 3 2 2 3 3 3 1 2 2 3 5 6 7 7 8 9 7 5 3 3 5 6 8 11 14 17
31 30 26 22 20 21 22 23 26 7 8 11 11 7 4 3 2 3 7 10 13 15 14 15 4 7 7 4 3 4 4 4 4 3 3 6 6 6 5 7 8 10 10 8 6 4 4 6 7 8 11 15 17 20
27 24 23 23 23 23 16 16 23 5 7 9 5 5 7 6 4 5 7 10 14 16 17 18 16 5 5 3 3 6 6 6 5 6 7 6 5 6 8 10 12 11 9 7 6 6 7 8 9 12 15 18 20 22
28 24 24 22 20 15 5 15 19 4 4 6 7 7 9 8 6 7 9 10 15 19 19 17 14 12 12 12 12 11 10 9 9 9 8 8 6 7 10 12 12 11 9 8 8 9 8 10 13 16 19 21 23 24
25 24 22 20 18 13 6 16 23 9 8 5 6 6 7 9 9 9 9 13 16 15 15 14 13 13 14 15 14 13 12 13 12 9 8 8 7 8 10 12 12 11 10 11 11 10 11 13 16 19 22 24 25 26
24 22 19 18 18 9 7 18 20 15 8 6 7 8 9 11 14 9 10 12 12 10 11 12 13 15 16 16 15 15 14 13 11 9 9 9 9 11 13 13 13 12 12 13 11 11 13 15 18 21 24 25 26 27
18 22 24 9 8 8 13 15 16 12 10 9 11 11 8 7 10 12 13 10 6 8 9 11 11 13 14 14 14 14 14 14 12 10 10 9 10 11 13 13 13 13 12 13 13 14 15 18 21 23 26 27 28 28
19 18 6 6 7 10 14 18 19 16 14 11 10 9 6 6 8 11 11 8 7 8 9 10 11 13 14 15 15 14 13 13 13 12 12 11 11 12 13 13 13 13 13 13 14 15 18 21 23 25 26 27 27 28
13 9 6 6 10 9 9 9 11 13 13 12 8 7 8 8 8 6 6 5 6 7 8 10 11 13 14 14 14 14 15 14 13 12 11 10 12 14 14 14 13 13 12 13 15 16 19 22 24 25 26 26 28 29
15 5 13 11 8 10 10 10 9 7 6 5 5 8 8 5 4 3 2 1 0 2 3 4 6 8 11 12 13 13 13 14 15 14 13 13 15 15 14 13 12 12 13 14 15 18 21 23 24 25 26 27 28 28
17 16 8 8 12 13 13 10 10 10 10 11 11 11 6 4 2 5 6 7 7 8 8 8 8 7 7 9 11 13 14 15 14 13 13 14 14 13 12 13 13 13 14 15 16 19 21 23 24 25 27 28 27 28
30 21 19 20 12 10 13 15 12 11 10 9 8 8 10 8 10 11 11 11 10 10 10 10 9 10 10 9 10 11 13 13 13 13 13 13 14 14 14 13 13 14 14 16 18 20 22 23 24 25 26 26 27 29
31 26 18 17 22 26 24 22 22 18 13 13 15 15 14 13 13 13 13 13 12 12 13 14 14 13 12 11 12 12 13 13 13 13 14 15 15 14 13 13 13 14 15 16 18 20 21 22 24 24 24 26 28 27
31 35 33 27 24 24 24 22 22 23 23 22 21 20 20 20 20 20 19 18 18 17 17 17 17 16 14 14 14 14 14 15 14 14 15 15 14 14 12 13 13 13 15 17 18 19 21 22 22 23 24 26 25 25
30 32 32 32 34 36 36 36 34 31 29 28 27 26 26 27 29 29 25 24 23 22 22 22 21 19 17 17 16 16 16 16 16 17 16 15 14 13 11 12 12 13 15 16 17 19 20 20 22 23 24 23 23 24
32 35 35 33 33 33 31 29 30 31 31 30 30 30 31 32 33 33 30 25 24 25 25 24 22 21 19 19 19 18 17 16 16 15 14 14 13 11 11 11 12 13 14 16 17 18 19 20 22 22 21 22 22 23

GFSWCAN_700_spd_096.txt.gz
Wind_Speed
21 32 32 25 20 17 14 19 20 18 19 22 24 20 19 17 17 17 18 17 16 14 16 12 7 8 10 10 7 10 9 7 6 5 5 5 4 3 2 3 1 2 4 5 5 5 5 12 10 2 3 8 6 6
20 40 35 28 23 20 16 20 21 16 20 20 19 18 18 18 17 17 18 19 18 14 16 12 12 13 13 10 10 9 8 6 4 4 5 4 5 4 5 2 4 1 2 2 3 2 7 8 7 6 5 6 5 7
16 39 34 28 25 22 18 18 23 11 17 20 20 19 18 17 15 15 19 19 19 15 13 14 15 14 12 11 10 9 10 8 7 6 6 5 4 4 2 4 5 1 4 2 1 2 5 6 5 5 6 9 10 11
26 34 28 24 25 21 20 17 21 13 19 21 20 19 17 14 13 14 18 18 19 18 14 19 15 12 11 10 8 7 7 7 7 5 4 3 4 3 2 1 5 3 2 3 2 4 4 5 5 6 7 7 8 9
30 27 25 22 20 19 16 18 20 13 20 20 16 14 14 13 12 14 17 19 16 15 20 21 17 13 11 9 6 5 5 3 3 3 3 4 2 3 0 2 3 6 2 3 4 3 2 3 4 6 7 7 7 6
29 25 22 20 19 19 20 18 23 16 18 18 12 14 14 13 14 16 20 19 19 8 21 18 13 11 9 8 7 5 5 4 3 4 6 4 5 5 2 1 2 5 4 4 4 3 1 2 3 5 6 5 4 4
23 22 21 20 20 20 18 16 20 23 20 21 14 14 15 15 15 17 15 18 19 14 17 12 11 11 10 9 7 5 4 5 6 6 9 8 7 6 6 5 2 3 5 3 4 3 4 3 3 4 4 5 5 6
24 23 21 24 23 19 18 16 19 19 18 20 18 16 16 16 16 12 12 19 18 17 14 7 8 13 10 6 5 4 4 4 5 8 8 8 9 7 5 5 4 4 4 3 2 3 5 5 5 3 3 5 6 6
24 25 27 25 21 18 15 13 17 19 17 19 20 20 17 16 15 13 13 17 19 17 8 7 9 10 10 6 3 4 5 7 8 9 10 9 10 8 6 7 5 6 5 4 0 4 7 5 3 1 3 5 6 6
30 29 27 22 22 16 12 16 21 21 17 18 20 18 15 16 15 13 12 13 14 15 11 8 11 8 9 5 3 3 4 4 4 4 7 11 11 11 9 7 5 8 9 5 3 4 6 4 2 1 3 4 5 6
29 30 26 23 19 15 14 17 22 21 17 19 20 18 19 17 15 10 8 7 7 7 9 11 12 10 7 6 4 3 2 3 3 2 6 4 9 12 13 12 10 9 7 5 7 8 8 5 3 4 2 3 4 4
31 30 26 23 17 14 15 21 22 17 15 18 16 17 20 14 6 4 8 7 5 6 10 13 12 12 10 8 5 3 3 3 4 3 5 3 3 7 7 8 8 7 9 8 11 10 7 5 3 2 1 3 4 4
32 27 25 20 14 15 23 23 20 15 15 16 21 14 11 3 4 6 6 6 6 11 10 8 8 9 9 7 4 3 2 3 4 5 3 3 2 5 7 8 7 9 8 8 7 7 5 3 3 2 1 2 3 4
31 27 23 20 17 21 23 22 20 19 20 21 7 8 4 4 4 6 10 11 13 12 10 8 10 9 7 5 2 2 3 3 2 2 2 1 3 5 7 9 8 7 7 7 6 5 4 3 2 1 1 1 1 3
26 25 24 21 19 21 22 20 19 22 19 7 6 4 4 7 11 13 13 13 12 11 11 11 11 6 7 2 2 2 2 2 2 4 4 4 6 6 8 9 9 9 8 6 6 5 5 6 6 5 2 1 4 6
27 27 25 23 20 19 19 18 19 19 10 5 4 6 8 9 11 11 12 11 12 10 10 9 6 4 4 3 2 1 1 1 4 4 1 3 4 5 7 8 9 9 7 7 8 8 8 7 5 2 1 4 6 9
21 29 28 26 23 21 19 16 22 17 5 4 7 7 8 7 10 10 10 12 11 12 10 6 6 4 4 3 2 2 1 2 1 2 1 3 4 6 7 8 9 8 8 8 9 10 8 5 2 2 4 7 9 11
25 28 30 26 23 20 17 16 21 7 6 4 6 9 7 5 4 5 7 8 12 12 13 7 4 6 3 2 3 3 1 2 1 1 2 2 2 3 5 7 8 9 9 11 11 9 5 3 4 6 8 10 12 14
32 28 26 25 21 19 17 14 20 6 9 8 9 9 7 5 2 3 4 8 11 13 14 12 4 6 7 3 2 2 1 1 1 2 2 4 6 6 7 8 10 11 12 12 10 8 7 7 7 8 11 13 16 18
26 29 27 23 20 16 14 8 22 5 9 11 11 5 2 3 2 2 3 6 10 13 15 16 11 6 8 6 5 3 5 5 4 5 6 6 6 6 6 8 11 13 13 11 10 10 10 9 9 11 13 16 19 21
29 26 23 19 16 14 8 12 21 5 6 9 8 6 7 7 7 6 6 8 11 15 15 14 16 14 11 12 13 11 9 8 8 8 10 9 8 8 8 10 12 14 14 13 12 12 11 11 12 14 16 19 22 24
23 20 18 16 16 12 4 8 22 8 4 5 6 6 7 7 8 9 8 9 10 10 12 12 13 16 17 17 15 13 12 12 12 12 11 10 9 9 10 11 14 15 15 15 14 13 12 13 15 17 19 21 24 26
19 19 17 16 15 8 4 9 21 21 4 2 4 6 7 8 9 10 10 8 7 8 10 12 15 18 18 18 16 16 16 16 15 12 12 11 11 11 13 15 16 16 16 16 14 13 14 16 17 19 21 24 26 27
18 19 15 10 11 5 6 11 17 19 18 12 11 11 12 11 8 11 14 10 6 7 11 13 16 17 17 17 17 17 17 15 13 14 14 12 11 10 11 13 15 17 16 14 14 16 16 17 19 21 24 26 28 29
17 13 6 8 10 11 9 12 16 17 16 12 13 10 7 7 8 10 12 8 7 9 10 12 13 14 15 15 16 16 15 15 15 14 13 12 11 11 12 14 14 15 15 15 16 17 17 19 20 22 24 27 28 29
11 7 5 5 8 9 10 13 17 18 18 16 11 9 6 7 7 5 4 4 6 8 10 11 12 13 14 15 16 17 18 17 16 15 14 12 12 14 16 16 15 15 15 16 17 17 18 19 20 23 25 27 28 29
13 7 11 8 10 9 9 7 7 9 10 8 6 5 4 4 2 1 1 1 2 3 3 4 5 8 10 13 15 15 14 14 14 14 13 13 14 14 15 15 14 14 15 16 16 16 17 19 21 23 25 26 27 28
20 20 6 8 11 7 8 9 7 6 8 8 8 5 3 2 1 3 6 6 6 6 7 8 8 8 8 7 8 9 11 12 13 13 13 13 13 15 15 16 16 16 15 15 16 16 18 19 21 23 24 26 26 27
23 22 19 13 8 9 10 11 11 9 5 5 7 7 6 5 6 7 8 9 8 8 8 8 9 9 9 8 7 7 9 11 12 13 13 14 15 16 17 17 16 15 14 15 16 16 18 19 21 22 24 25 25 27
23 27 29 27 21 18 20 17 8 8 13 15 14 13 13 13 12 11 10 10 10 11 11 12 13 13 12 11 11 10 11 12 14 15 15 15 16 16 15 15 15 13 13 14 15 16 18 19 21 22 23 24 25 25
18 18 24 27 31 30 20 16 18 19 18 17 17 19 22 22 19 18 17 16 16 16 16 17 17 16 15 14 13 14 14 15 16 16 15 15 15 15 14 14 13 12 13 14 14 16 17 19 20 21 22 23 23 23
26 26 27 26 27 29 31 32 33 32 32 33 32 29 26 25 25 25 22 22 22 22 21 21 21 20 20 19 18 18 18 18 17 17 16 16 15 15 14 14 12 12 12 13 14 16 18 18 19 20 21 20 21 22
26 28 32 35 36 35 34 32 32 33 32 30 28 27 28 28 28 28 26 24 23 24 23 23 22 21 21 21 21 20 19 19 18 17 15 15 15 14 13 12 11 11 12 13 14 16 16 17 18 19 18 18 19 21

GFSWCAN_700_spd_099.txt.gz
Wind_Speed
13 13 12 28 23 19 19 18 19 19 27 24 26 21 23 22 19 18 16 18 15 10 21 18 11 9 8 9 11 13 13 8 12 9 6 5 6 5 5 5 4 2 3 2 3 4 3 10 10 3 5 9 9 4
11 17 27 25 21 20 21 17 22 17 21 21 23 23 19 16 18 20 20 18 16 10 20 14 10 13 12 9 11 13 9 10 8 7 6 5 7 5 8 3 3 1 3 3 5 3 3 8 7 7 5 5 4 7
14 15 33 28 24 21 19 20 20 24 20 23 17 17 19 19 18 18 21 20 18 10 17 12 14 13 12 12 12 10 10 9 9 8 9 8 5 8 5 5 4 3 4 2 3 0 4 6 6 6 7 8 11 11
19 29 34 28 25 23 20 20 19 15 20 18 20 19 17 16 17 19 21 20 19 16 14 18 16 14 13 12 10 10 10 9 7 7 5 6 6 5 6 5 4 1 5 5 4 1 3 4 5 7 8 10 12 12
24 39 32 27 25 23 20 23 17 16 20 20 21 17 16 16 18 19 20 18 20 17 17 21 17 15 13 11 9 8 6 5 4 4 4 5 5 6 4 5 2 3 2 5 5 3 3 4 5 6 8 9 10 11
39 36 30 29 24 23 22 16 19 20 22 20 16 16 18 17 17 19 19 18 18 16 19 21 17 15 12 9 7 5 5 2 3 3 4 3 5 6 5 5 3 2 3 0 4 6 6 5 6 7 8 9 9 8
34 32 29 25 22 20 20 20 17 22 23 18 17 20 18 16 17 19 20 22 18 16 22 17 14 14 11 9 6 4 3 2 3 4 6 7 7 7 7 6 4 2 4 2 1 4 5 6 7 7 7 7 6 4
31 29 24 23 22 20 20 19 19 18 24 19 16 18 17 17 17 15 15 22 17 22 15 7 9 14 10 6 5 3 2 3 5 5 7 9 10 8 6 8 8 5 3 3 2 2 4 5 6 5 4 4 3 3
26 25 25 25 22 20 19 18 20 20 20 17 15 16 17 17 15 14 18 20 19 13 8 7 9 9 11 7 4 2 4 4 6 6 9 8 10 8 7 8 8 8 3 3 1 5 6 7 6 3 1 2 2 3
28 26 26 24 21 19 18 23 22 20 19 18 18 16 15 15 13 12 16 18 17 14 8 5 9 7 11 7 3 2 2 2 2 3 5 10 12 10 7 8 7 7 5 2 5 7 8 7 5 3 0 1 1 2
29 30 27 23 19 16 18 22 19 18 17 21 21 20 18 15 15 11 9 9 9 7 9 9 11 9 9 7 3 2 1 2 2 2 4 4 7 11 12 12 9 7 5 6 7 8 10 9 7 4 2 1 1 2
29 27 24 21 17 17 20 22 19 16 16 22 19 16 18 15 6 5 9 8 6 7 12 14 14 12 8 6 4 2 2 2 3 2 3 3 3 6 12 13 10 8 6 5 9 9 9 8 7 5 4 3 0 1
28 28 24 21 16 16 20 19 18 16 19 19 21 15 12 5 5 6 6 7 7 12 14 15 13 11 9 8 4 3 2 3 3 3 2 3 1 7 8 9 8 7 4 3 6 9 9 8 7 6 4 2 2 2
31 27 22 17 16 20 20 18 18 22 24 21 10 9 4 5 5 6 11 13 14 15 14 12 11 10 8 7 2 1 2 2 2 1 0 1 3 5 6 6 6 4 5 7 9 10 10 9 8 6 6 6 4 1
29 25 19 16 19 21 19 17 21 24 18 9 7 5 5 10 14 15 15 16 15 13 10 13 12 9 8 3 2 1 0 1 1 3 4 1 4 3 5 6 5 7 9 8 8 8 8 8 7 7 6 3 1 4
27 23 19 20 19 19 18 19 23 17 11 6 5 10 14 15 15 16 16 14 13 12 11 11 7 5 4 3 2 2 1 1 2 3 1 2 3 3 4 5 7 8 8 7 7 8 9 10 9 6 3 1 3 6
23 22 22 19 17 18 18 20 19 11 5 5 9 11 11 13 14 13 12 12 12 11 12 6 5 5 4 3 3 3 2 1 3 3 2 2 2 4 5 6 8 9 8 7 8 10 10 9 7 4 1 3 6 9
22 23 21 17 14 14 13 19 15 6 8 11 10 9 9 10 10 8 7 9 11 11 10 6 5 5 4 3 4 4 2 1 0 1 2 2 2 2 4 6 9 10 10 10 11 12 11 9 6 3 4 7 9 12
22 24 21 17 14 12 13 16 10 6 7 8 12 12 9 7 5 4 4 7 10 11 11 9 4 7 5 6 5 2 2 2 2 0 1 1 2 4 7 8 10 11 12 12 14 13 11 8 5 6 8 10 12 15
23 23 20 17 13 10 6 7 12 5 6 7 9 7 5 3 2 2 2 3 8 11 12 12 7 5 9 7 6 4 1 3 3 2 3 4 5 5 6 8 10 12 13 14 14 14 11 8 7 9 11 13 15 17
26 22 20 15 12 9 4 5 13 5 9 9 9 4 3 4 3 5 3 4 7 10 12 13 13 10 8 9 9 8 9 7 6 6 6 7 7 7 7 7 9 12 14 16 17 14 11 10 11 12 14 16 18 20
26 22 16 14 9 5 3 7 13 7 8 8 6 4 4 5 5 5 6 6 7 7 10 13 14 15 17 15 15 14 13 12 10 10 10 9 8 8 8 7 9 11 14 16 16 14 13 12 13 15 16 18 20 22
18 15 11 9 7 6 3 8 18 8 6 6 2 2 4 6 7 7 8 7 4 6 10 12 14 16 18 18 18 17 16 15 14 13 11 10 9 9 9 9 10 12 14 16 16 14 14 15 16 16 18 20 22 24
15 15 13 9 8 4 3 6 15 20 12 5 5 7 8 10 10 9 10 9 6 7 9 11 13 15 16 17 18 18 17 15 14 13 13 12 12 11 11 11 12 14 16 15 14 15 16 16 17 18 19 21 23 25
12 10 4 6 10 6 4 7 9 15 15 14 11 10 9 9 10 12 11 9 7 8 9 10 11 12 14 15 16 15 14 14 15 15 14 14 13 12 12 12 12 13 14 15 15 16 16 17 17 18 20 21 23 26
9 6 5 7 9 8 8 6 7 10 12 13 10 11 13 9 6 4 6 3 5 8 9 10 10 10 12 13 14 14 15 16 17 17 16 14 14 14 14 13 13 13 14 14 14 15 16 17 18 19 20 22 24 26
8 6 8 6 7 7 7 8 8 9 12 14 14 10 6 3 1 1 3 4 2 1 2 2 4 5 7 9 11 13 15 15 16 14 14 13 13 13 13 12 12 13 14 14 15 15 16 16 17 18 20 22 24 26
10 13 7 3 8 6 7 5 4 4 7 7 6 3 2 2 2 2 5 5 4 3 3 4 5 6 8 9 9 8 9 9 10 11 12 12 11 12 12 13 14 15 15 15 15 15 15 16 16 18 20 22 24 25
16 15 15 13 6 9 8 6 5 6 3 4 2 4 3 4 5 6 3 4 5 6 6 6 6 6 7 8 8 8 8 8 9 10 11 12 12 12 13 14 16 16 16 15 14 13 14 15 16 18 20 22 23 23
15 18 18 18 18 15 12 9 10 7 10 6 9 12 11 8 8 9 10 10 10 9 9 10 10 11 12 11 10 9 10 11 11 12 12 13 14 14 14 15 15 15 15 14 12 12 13 15 16 18 20 21 21 21
17 14 17 22 25 25 26 26 25 19 13 14 15 15 13 14 16 16 16 15 14 15 15 16 16 17 16 15 15 14 14 14 14 14 14 14 14 14 14 14 14 13 13 12 11 12 13 15 16 18 18 19 19 19
20 19 20 21 20 18 18 19 21 23 25 26 28 27 27 27 27 27 22 20 19 19 20 20 20 20 19 19 19 19 18 18 17 16 15 15 14 15 15 14 13 12 11 10 10 12 13 14 16 17 17 17 17 17
19 19 19 21 21 21 22 24 26 28 27 28 28 27 28 27 26 25 23 19 19 20 21 22 22 22 20 20 20 20 19 18 17 17 16 14 14 14 14 13 12 11 9 9 10 11 13 14 15 16 16 15 15 16

GFSWCAN_700_spd_102.txt.gz
Wind_Speed
11 9 10 6 19 25 23 22 18 18 22 18 27 32 30 30 18 21 18 20 17 12 13 18 15 14 11 12 11 13 13 12 13 11 7 5 6 6 6 10 8 6 7 5 5 4 2 5 7 4 8 9 10 6
12 8 8 27 26 22 23 23 21 21 25 22 22 23 21 22 26 16 16 18 16 11 20 17 13 11 10 10 11 15 9 13 12 9 6 6 6 7 9 4 9 4 8 5 5 3 4 5 3 2 3 3 3 5
11 16 27 27 25 23 21 20 21 24 30 30 25 25 24 19 17 19 20 16 15 13 20 14 11 12 11 10 13 11 10 9 10 9 10 9 5 9 6 5 7 7 4 4 4 4 2 2 4 6 7 8 9 11
15 21 32 27 25 23 20 23 21 21 25 28 30 26 18 20 25 21 20 20 18 15 16 16 14 14 14 14 12 11 10 10 9 9 9 8 7 8 7 7 7 5 6 6 6 4 1 3 6 7 8 10 13 14
24 35 33 30 26 23 20 20 21 21 23 21 22 21 21 23 21 23 22 19 17 17 19 20 16 15 15 14 11 10 9 7 7 6 7 7 7 8 8 7 5 4 5 7 9 6 4 5 7 9 9 10 11 12
33 39 34 32 27 21 26 20 21 21 20 24 23 20 20 20 23 26 24 21 18 19 20 21 18 16 14 12 10 8 7 5 4 4 4 5 7 6 7 6 6 3 3 4 6 8 6 6 8 9 9 9 9 10
41 36 33 30 27 21 23 18 25 21 23 24 17 19 19 21 25 29 25 25 22 16 18 18 16 16 14 11 7 6 6 5 5 4 4 5 7 7 6 6 8 5 5 7 7 8 9 9 9 9 9 8 7 6
39 33 30 25 24 22 18 24 28 26 22 16 19 20 20 24 24 16 16 22 19 18 18 8 10 16 13 9 8 7 5 4 4 5 5 7 7 8 6 10 10 8 6 8 9 8 10 11 10 8 7 5 5 4
37 31 27 25 23 24 22 21 27 21 20 17 19 20 22 23 18 18 23 20 24 13 8 8 11 11 14 11 7 6 4 3 4 5 8 6 9 7 8 10 13 11 7 6 8 10 11 11 9 7 4 3 4 4
33 29 25 24 22 24 24 23 28 24 20 19 22 22 21 17 18 20 21 19 19 11 7 8 10 9 16 11 7 3 2 2 1 3 4 8 10 11 9 12 14 13 9 6 8 9 10 9 7 6 5 4 4 4
29 28 25 24 23 25 25 23 24 24 22 21 22 19 22 19 22 14 11 10 10 7 9 10 11 11 12 11 6 3 2 1 1 3 3 4 5 14 14 13 13 12 11 8 9 10 11 11 8 6 5 5 4 3
29 28 25 23 23 26 24 21 21 20 21 21 18 19 20 15 6 5 10 8 7 8 12 16 15 13 13 9 3 3 2 2 3 3 3 3 4 11 17 17 15 12 11 11 11 10 11 10 8 6 6 6 5 5
30 27 22 22 23 24 21 20 18 19 21 19 24 19 11 6 6 7 8 8 7 12 16 18 17 13 10 6 4 3 3 3 3 3 3 3 2 7 12 16 14 12 12 12 12 13 12 11 9 7 6 6 6 7
26 23 22 21 20 22 20 18 20 23 25 22 11 11 6 6 6 7 12 13 12 15 18 17 13 9 7 9 4 3 3 3 2 2 2 2 2 7 9 12 12 11 10 11 12 13 12 11 9 8 8 7 7 4
26 22 20 19 19 19 20 20 24 27 21 11 8 5 5 7 11 14 16 16 17 17 17 14 12 8 10 4 4 3 3 2 2 2 4 1 5 7 9 10 9 10 9 9 8 9 9 9 10 10 9 8 5 3
26 22 20 21 19 19 20 23 21 17 13 7 5 15 15 15 15 16 18 18 16 15 14 14 8 6 5 3 4 3 3 2 1 1 2 4 5 6 8 9 9 9 9 8 7 8 9 10 10 10 9 7 5 1
21 20 22 20 19 19 23 21 17 11 6 8 14 17 15 15 17 17 16 15 13 13 14 8 5 6 4 4 4 5 4 2 2 2 3 4 5 6 8 8 8 8 8 8 8 9 10 11 11 10 9 6 2 3
18 22 22 19 18 19 23 18 11 9 14 17 14 14 13 14 13 11 10 11 11 11 13 7 5 5 4 4 5 6 4 2 2 3 4 5 4 4 4 5 6 7 8 8 8 10 12 13 12 9 7 5 5 7
19 21 21 19 17 17 21 14 13 10 13 13 15 14 13 12 10 8 7 7 10 10 9 8 3 6 6 9 8 5 4 3 2 2 2 2 1 2 4 5 7 8 9 9 10 12 14 12 10 9 8 8 9 11
19 19 18 16 17 14 9 11 12 10 14 15 14 13 10 8 7 5 4 5 8 10 11 9 5 8 10 9 7 7 3 1 0 0 0 1 3 4 4 5 7 9 10 11 11 14 14 13 12 11 10 10 12 14
20 17 15 13 11 8 7 12 8 10 12 12 11 9 8 5 3 4 3 3 5 7 10 11 11 7 9 10 9 9 3 4 4 4 4 5 6 6 6 6 6 8 10 12 14 15 15 14 14 13 12 13 15 16
19 16 13 11 8 7 5 12 8 10 10 11 8 4 2 3 2 2 4 6 5 5 9 12 16 15 13 11 11 10 9 8 8 8 8 9 9 7 7 7 7 9 11 14 16 16 15 15 14 14 15 16 17 18
18 15 10 8 3 4 5 15 12 12 10 10 7 4 2 0 2 2 4 6 5 6 9 13 16 16 17 17 16 15 14 12 11 11 12 11 10 9 9 9 9 10 12 14 14 15 15 15 15 16 16 17 17 18
14 13 8 5 4 4 8 14 15 12 12 10 6 2 1 4 5 6 6 5 7 7 8 10 13 15 16 16 17 16 15 14 13 13 12 10 10 10 10 10 11 12 13 14 15 15 15 15 15 16 16 16 17 19
9 7 2 4 6 5 4 8 17 18 13 9 5 4 6 7 8 9 7 5 7 8 10 10 12 13 13 13 14 14 14 13 13 12 12 12 11 11 11 11 10 10 11 12 13 14 14 14 15 15 15 16 18 20
6 4 5 5 8 7 5 3 5 11 14 12 7 5 7 9 4 2 4 4 3 8 9 10 10 10 10 10 11 11 12 13 13 13 13 12 12 12 12 11 11 11 12 13 13 13 13 14 14 14 15 17 18 20
6 4 7 4 6 7 5 6 5 8 9 7 8 8 5 2 2 2 2 4 4 3 3 4 5 5 5 6 6 7 9 11 11 11 11 11 11 11 11 11 12 12 12 13 14 14 13 12 13 14 16 17 18 20
9 9 6 3 6 6 5 3 4 4 6 5 4 4 2 2 2 2 3 6 5 3 2 1 0 1 2 4 5 7 8 8 7 7 8 9 9 9 10 11 12 12 13 14 14 13 12 12 13 14 15 16 18 20
14 11 9 7 2 3 4 5 3 4 3 5 6 3 1 3 1 3 4 3 2 3 3 3 2 2 3 4 5 6 7 7 7 7 8 8 9 10 11 12 12 13 13 13 12 12 12 11 12 14 15 16 18 19
12 14 13 12 10 8 7 6 3 3 3 9 7 4 4 5 7 6 5 5 6 7 7 7 7 7 8 8 9 9 9 9 9 9 9 9 10 10 11 12 13 13 13 13 13 12 11 11 12 14 15 16 17 18
13 12 14 16 18 16 15 14 15 16 17 14 15 14 11 10 10 12 13 13 13 13 13 14 14 14 14 14 14 14 13 13 13 12 11 11 11 11 12 13 13 13 13 13 12 11 10 11 12 13 15 16 16 15
19 19 17 17 16 14 14 15 15 17 17 18 19 21 22 22 23 23 21 21 21 20 19 19 19 19 18 18 18 17 17 16 15 14 13 12 12 12 12 13 14 14 13 13 12 10 9 11 12 13 14 15 14 13
11 10 11 12 12 14 14 15 16 16 16 18 19 20 22 23 26 27 25 21 20 19 20 20 19 19 20 21 21 20 19 18 17 16 14 13 13 13 13 14 14 13 13 12 10 8 10 11 12 13 13 13 12 12

GFSWCAN_700_spd_105.txt.gz
Wind_Speed
12 11 8 9 8 20 27 25 26 27 26 25 23 24 24 32 36 31 20 28 18 9 21 18 17 14 14 11 10 13 13 13 12 11 11 6 5 7 6 11 10 8 9 9 8 6 4 5 9 6 10 13 14 8
13 11 10 15 14 27 26 25 22 21 20 19 21 26 26 36 37 20 24 25 19 12 18 18 14 12 15 17 13 13 8 15 11 10 8 7 7 7 8 9 13 5 9 5 6 5 3 5 6 6 6 4 1 2
13 12 15 26 29 26 25 22 19 17 21 19 25 23 25 33 25 20 19 23 17 10 17 15 16 13 11 12 12 11 11 15 14 13 11 7 5 8 8 5 9 8 11 7 6 6 3 3 2 2 3 5 6 8
15 14 25 29 27 25 24 22 19 19 22 24 25 26 27 29 24 27 17 20 17 17 11 16 12 11 10 12 13 10 10 9 12 11 7 6 5 8 6 8 7 6 9 10 9 7 3 4 4 6 7 8 11 12
15 16 30 27 25 22 20 22 21 27 27 24 22 22 20 21 22 21 16 21 15 12 13 17 14 13 14 15 13 12 12 11 8 5 6 6 5 8 8 8 5 9 12 10 7 7 5 6 7 8 9 10 11 11
16 28 30 28 25 21 22 19 18 25 31 27 24 20 20 24 26 16 24 21 17 18 17 12 16 16 14 14 12 9 8 8 7 5 5 5 6 5 7 6 9 8 8 9 10 9 8 8 8 9 9 9 10 10
26 36 32 28 24 21 19 21 20 27 26 26 24 23 24 24 24 22 22 24 18 15 15 13 11 15 14 12 9 8 7 6 5 4 3 3 5 6 7 6 11 8 6 7 10 11 11 11 10 10 10 9 8 8
39 36 32 27 23 25 18 26 27 27 27 26 23 23 23 24 26 21 17 21 18 12 13 7 7 15 14 6 5 7 5 5 6 4 4 3 5 5 6 10 11 9 8 9 12 13 12 12 11 10 8 7 7 7
39 35 32 27 22 22 19 26 27 25 22 21 22 22 23 26 27 19 16 19 16 12 8 5 11 9 16 10 8 7 5 2 4 3 4 4 7 5 9 11 13 11 9 9 12 13 13 13 12 9 7 6 7 7
37 32 29 28 24 21 25 26 25 21 22 22 21 23 22 25 16 21 20 20 14 10 7 11 9 11 14 11 8 5 4 4 1 3 6 5 8 14 13 11 15 16 12 10 12 14 16 15 12 9 7 6 6 5
31 28 25 23 24 23 26 25 24 21 23 23 23 22 23 23 26 14 10 11 8 6 7 9 7 11 13 9 6 5 3 3 3 5 3 4 6 12 15 13 15 17 15 11 14 15 16 15 12 8 5 5 5 5
29 26 24 25 26 24 26 25 23 22 24 23 20 23 29 19 9 6 11 8 6 5 10 11 12 10 13 10 4 4 2 4 3 3 3 4 9 9 17 16 16 16 14 11 12 13 14 13 10 7 6 5 6 5
28 25 23 25 27 24 22 25 23 25 23 21 28 20 9 4 5 7 8 8 7 11 15 18 15 11 12 6 4 4 4 3 2 4 3 4 2 8 16 18 17 14 13 12 12 12 12 13 11 8 7 7 7 8
27 23 22 25 26 23 20 21 21 27 28 23 10 9 5 5 6 7 11 14 9 13 17 18 16 10 9 8 4 3 4 3 2 3 2 3 2 8 13 19 18 16 14 14 13 15 14 12 11 10 9 10 10 10
22 22 22 24 23 22 20 22 27 30 22 12 7 6 8 6 10 9 12 13 15 19 18 17 13 6 9 5 4 3 3 3 3 2 2 3 3 6 9 13 16 16 16 16 14 14 14 12 11 11 11 11 11 8
22 21 19 21 20 19 19 23 25 23 15 7 5 9 10 11 13 14 15 18 19 19 16 12 8 6 5 3 4 4 3 2 4 3 3 4 6 8 11 13 13 12 12 13 13 13 13 12 12 12 12 11 9 7
18 22 21 23 22 23 23 20 19 15 5 7 14 18 15 15 16 17 16 17 16 14 15 7 4 5 5 3 4 4 4 3 1 1 3 4 6 7 7 9 10 11 12 11 10 10 10 11 12 13 12 9 8 7
18 21 21 23 27 22 19 17 14 6 11 13 14 14 14 15 16 15 15 14 12 12 12 7 5 5 4 4 4 6 4 2 2 3 4 5 5 5 7 8 8 9 9 8 7 9 11 12 13 12 10 10 10 10
17 21 22 21 26 20 16 11 11 10 15 13 14 14 14 13 11 11 10 10 9 10 11 6 3 5 5 8 8 6 4 3 3 3 4 4 4 3 4 5 6 7 8 9 10 11 12 14 14 13 12 11 10 10
16 19 19 18 20 18 8 9 15 12 17 15 15 14 13 11 9 8 7 8 9 10 9 7 5 8 9 10 8 7 5 3 3 2 2 1 0 1 2 4 5 7 9 10 11 12 14 15 15 14 12 12 13 13
17 17 16 17 13 12 10 11 10 16 16 16 15 13 11 9 7 6 5 5 6 9 10 10 9 7 11 10 8 8 3 1 1 1 2 3 3 4 4 5 6 7 8 11 12 13 15 17 16 14 14 14 15 16
14 14 12 11 9 8 8 12 12 15 12 14 11 10 9 7 5 5 4 5 5 5 7 11 14 13 11 11 11 12 9 4 5 5 5 6 7 7 6 7 7 7 8 10 13 14 15 16 16 15 15 16 16 17
14 12 10 7 5 4 10 12 14 14 10 11 9 6 4 2 1 2 3 4 6 6 7 10 13 16 16 14 13 13 12 10 9 9 10 10 10 9 8 8 8 9 9 10 12 14 15 16 16 15 16 16 16 17
13 9 4 2 2 3 12 12 13 13 12 12 9 6 3 2 3 4 4 4 6 9 8 8 11 14 17 17 16 15 15 14 12 12 12 12 11 11 10 10 10 11 12 12 13 14 15 15 15 15 15 15 16 17
7 5 0 1 2 4 6 15 13 11 14 11 6 4 2 2 4 5 4 4 7 9 10 10 11 13 15 14 14 14 14 14 14 13 13 13 13 13 13 12 12 12 12 13 13 13 14 14 14 14 15 15 16 17
4 3 2 2 6 5 4 7 14 15 12 8 4 3 2 5 3 2 4 6 7 8 11 11 12 12 12 13 13 13 13 13 13 13 13 14 14 14 13 13 12 12 13 13 14 13 13 14 14 14 15 15 16 17
3 3 4 4 7 8 6 5 5 11 14 10 10 8 5 3 2 4 5 4 3 2 4 6 8 10 10 11 10 10 10 10 10 11 12 13 13 12 12 12 12 12 13 13 14 14 14 15 15 15 15 15 16 17
8 7 6 5 6 7 5 4 7 7 10 8 8 6 4 3 3 3 3 7 6 4 3 3 3 3 4 4 5 5 6 7 7 8 8 8 9 10 10 10 10 11 11 12 14 14 15 15 14 14 14 14 15 17
11 10 9 7 4 7 6 6 6 6 7 7 8 7 4 5 5 3 1 2 3 4 3 2 1 1 1 1 2 4 5 5 6 7 7 7 8 8 9 10 10 11 12 12 13 14 14 14 14 13 13 14 15 16
12 12 13 10 7 4 5 8 9 5 5 5 9 9 7 4 4 5 6 3 2 2 4 5 5 6 6 6 6 6 7 7 7 7 8 8 8 9 10 11 11 12 12 13 14 14 14 14 13 12 12 14 15 16
13 13 14 14 14 12 10 9 10 11 10 9 8 11 13 11 10 10 10 10 11 12 11 12 13 13 13 13 12 12 11 10 10 10 10 10 11 11 11 12 12 13 13 13 14 14 14 13 12 11 13 14 14 15
18 16 15 15 16 14 14 15 16 18 17 18 19 17 16 17 20 20 17 17 18 18 19 20 20 19 18 17 16 15 15 14 14 13 12 12 12 12 12 12 12 13 13 14 13 13 13 12 10 11 13 13 14 14
8 10 15 18 19 17 14 15 17 18 19 19 20 19 20 21 24 26 23 22 21 22 22 22 22 21 21 20 19 19 19 18 17 16 15 14 14 13 13 13 13 13 13 13 13 13 12 10 10 12 13 13 13 13

GFSWCAN_700_spd_108.txt.gz
Wind_Speed
10 12 13 14 16 19 18 20 24 29 29 26 25 31 26 20 20 29 28 26 18 4 14 15 24 19 18 14 16 15 17 13 17 13 11 6 3 7 8 11 11 11 9 10 11 12 6 8 7 6 11 13 16 14
13 16 14 13 18 15 20 23 23 24 26 34 32 33 30 22 24 33 25 29 14 6 19 14 16 16 17 12 11 11 9 15 12 11 8 7 6 8 7 8 14 9 9 7 7 6 5 5 8 8 9 8 4 2
13 16 12 12 7 24 27 25 24 28 36 32 32 27 23 24 34 30 16 24 18 3 15 14 13 12 13 13 10 12 9 17 15 15 11 7 7 8 9 8 12 14 12 8 7 8 6 6 5 3 2 2 4 5
14 14 13 12 21 24 21 20 19 22 21 21 22 23 25 28 31 22 23 24 17 12 10 15 13 10 11 12 15 16 12 11 16 12 12 8 5 11 8 7 9 5 9 10 14 8 7 5 4 4 5 6 8 9
14 11 12 24 22 24 21 18 17 17 17 21 22 22 30 28 28 18 22 24 18 12 11 15 10 9 9 12 14 10 10 11 12 8 6 6 6 8 9 7 7 10 13 8 7 6 6 7 6 7 8 9 9 8
10 6 28 24 23 20 18 15 17 20 22 24 23 25 28 28 30 14 25 23 17 13 15 10 12 14 15 16 15 16 17 15 8 9 7 7 6 5 8 7 12 13 11 13 13 9 8 8 8 9 9 9 8 7
11 22 28 24 20 18 19 19 24 23 24 25 24 24 29 28 21 18 20 21 13 7 12 10 11 16 18 15 13 10 10 13 8 5 5 1 6 9 5 6 9 12 8 10 11 11 11 11 10 10 9 9 7 7
15 29 26 23 20 20 19 21 23 24 20 25 23 24 29 25 16 18 15 18 12 10 9 7 7 13 13 8 6 8 4 5 7 5 6 5 7 5 6 11 10 11 10 9 11 15 13 11 13 12 10 9 8 8
30 28 26 22 22 20 23 26 27 26 30 30 25 23 20 17 15 15 17 16 11 7 4 4 14 11 15 13 9 9 8 4 5 3 4 6 7 5 11 10 11 11 10 9 12 14 15 14 13 12 10 8 9 9
33 29 25 24 21 26 26 25 25 25 25 24 23 20 20 19 17 14 15 15 11 6 6 9 10 9 18 11 11 7 7 4 1 4 8 9 8 11 13 12 14 15 13 11 12 14 16 16 14 12 10 9 9 8
31 30 23 20 19 23 27 22 26 26 27 28 21 22 22 21 17 12 10 8 7 5 6 8 6 11 12 9 11 4 3 4 3 5 3 3 5 14 15 16 14 17 15 12 12 13 15 16 13 11 9 8 8 8
27 25 22 18 19 24 28 24 28 25 24 23 17 24 25 20 10 5 11 7 6 6 10 11 9 11 13 9 5 5 3 4 3 3 3 3 10 14 12 14 16 17 17 14 11 12 15 15 13 10 9 8 8 8
25 24 23 22 22 25 28 27 24 22 23 21 27 21 13 6 5 7 9 8 7 15 17 19 16 11 10 8 5 5 5 4 2 3 3 6 6 7 8 12 11 13 16 13 11 12 13 13 13 11 9 9 9 8
24 25 25 23 21 23 25 27 25 23 28 19 11 9 5 5 6 9 11 14 9 19 18 19 14 10 9 8 3 2 3 3 2 3 3 2 3 5 7 11 12 13 12 11 9 11 12 14 13 11 10 10 10 10
24 26 25 21 19 18 21 26 28 27 24 10 8 4 5 4 8 8 12 12 13 14 15 15 10 7 8 4 4 4 3 2 3 2 2 1 2 4 7 10 15 15 14 10 10 10 13 13 12 10 10 11 11 11
25 27 23 21 19 19 21 27 29 24 14 7 4 8 8 6 8 10 13 15 16 17 14 13 6 4 4 2 3 3 2 1 2 3 4 3 3 4 6 9 14 14 13 11 11 11 13 14 13 11 11 12 12 10
18 21 23 20 18 22 22 27 21 13 6 5 11 12 8 11 12 14 15 18 18 14 13 6 4 3 5 2 2 3 4 1 1 2 1 2 3 3 6 9 10 10 9 10 11 13 13 12 13 13 13 14 12 11
18 22 23 23 22 22 21 19 16 5 7 12 16 13 10 12 15 15 19 19 13 11 12 9 6 5 5 3 4 3 4 2 1 2 2 3 4 3 3 6 7 9 12 12 11 11 12 13 14 15 15 14 13 12
18 21 26 23 21 21 18 14 10 8 9 12 12 11 12 12 14 14 16 12 10 10 11 7 3 4 4 6 4 5 3 2 2 2 3 3 4 4 5 6 8 9 11 12 13 13 14 15 15 16 16 15 13 11
16 21 25 22 18 17 9 7 9 9 10 12 13 14 14 12 11 10 10 11 9 9 8 4 5 7 7 8 7 6 5 4 4 4 4 3 2 2 3 4 6 8 9 11 12 13 14 15 17 18 16 13 11 12
15 14 17 18 15 7 9 8 8 14 14 14 15 14 12 11 10 9 8 8 9 9 6 7 6 6 9 10 8 7 5 3 2 1 1 0 1 2 3 4 5 6 8 10 11 13 14 15 17 16 14 13 12 12
13 14 13 10 10 8 7 9 14 14 13 15 13 12 10 8 7 6 5 4 4 5 5 8 10 9 10 11 9 8 8 3 2 2 3 4 4 5 5 5 6 6 6 8 10 13 15 15 15 15 14 13 13 14
10 10 9 8 5 4 9 12 14 14 11 12 10 8 7 5 4 4 2 2 4 5 5 7 9 12 11 12 11 11 10 10 8 7 8 8 8 8 7 7 7 7 7 7 9 12 13 13 15 15 15 15 14 15
8 7 4 3 3 3 11 10 13 11 11 12 8 5 4 2 2 2 1 3 4 8 7 6 7 10 13 15 16 14 14 14 12 13 12 11 11 9 8 8 8 9 9 9 9 11 11 13 14 15 15 15 15 15
6 3 2 2 2 4 7 9 11 10 12 11 8 5 4 2 1 2 3 4 5 6 9 10 10 10 12 15 15 14 16 16 14 14 14 13 11 11 11 11 11 11 10 10 10 10 12 13 14 14 15 15 15 15
3 1 1 1 4 4 3 8 10 9 12 10 6 4 4 2 2 1 4 4 6 7 8 11 11 11 11 11 12 13 14 15 14 13 14 13 13 14 13 12 12 11 12 12 12 11 12 13 14 14 14 15 16 16
2 0 2 2 5 6 6 5 8 12 12 7 9 5 3 2 1 4 3 5 5 4 4 5 7 8 9 10 11 12 13 13 13 12 13 13 13 12 12 11 11 11 12 12 12 12 13 13 14 14 15 16 16 16
5 5 4 4 4 6 5 4 5 6 10 9 10 6 3 3 4 4 4 3 3 2 1 1 1 1 2 4 5 7 8 8 9 9 9 10 9 9 9 10 10 11 11 11 11 12 13 13 14 15 15 15 15 15
11 9 7 6 4 7 7 7 6 7 10 10 9 7 5 5 4 3 1 2 2 3 2 1 0 1 0 1 2 3 4 5 6 6 7 7 7 7 8 8 8 10 10 11 11 12 12 14 15 15 15 14 14 15
15 11 11 10 8 6 8 9 8 7 7 7 8 9 9 7 6 5 5 5 3 1 1 2 5 6 5 6 6 6 6 6 6 6 7 7 8 8 8 8 9 10 11 11 11 12 13 14 15 15 14 13 13 14
11 12 12 12 13 11 7 7 9 11 9 7 7 7 10 11 9 8 8 8 9 9 9 10 11 11 11 11 12 12 11 10 9 9 9 10 10 10 10 10 11 11 12 12 12 13 13 14 14 14 14 13 13 14
14 13 13 15 16 13 12 13 13 14 14 14 15 14 14 14 15 16 16 16 16 16 16 17 16 16 16 16 17 16 15 14 13 12 12 12 12 12 12 11 11 12 12 12 12 13 13 13 14 13 12 12 13 15
6 11 17 18 17 17 16 16 17 18 19 18 19 19 19 20 23 23 19 17 18 20 22 23 23 22 21 21 19 19 17 16 16 16 16 15 15 14 13 13 12 12 12 12 12 13 12 13 13 12 11 12 14 15

GFSWCAN_700_spd_111.txt.gz
Wind_Speed
12 6 9 14 16 17 19 19 20 25 29 30 28 24 26 29 28 27 21 23 27 19 11 16 24 24 25 31 31 27 25 22 26 21 13 7 8 7 12 14 19 18 15 12 14 7 6 13 8 7 8 11 14 15
11 13 11 15 16 18 23 25 24 25 27 31 28 26 33 31 25 21 30 20 24 13 6 12 20 19 27 26 22 21 12 22 21 17 10 8 5 8 15 13 15 13 13 13 11 12 7 8 7 9 9 7 5 4
12 12 14 16 18 20 23 20 24 29 33 34 30 36 31 24 16 17 26 23 20 12 10 7 14 16 19 20 17 23 15 17 20 23 14 9 6 11 11 9 21 16 17 9 11 10 7 5 6 5 4 2 2 4
12 12 13 16 11 15 23 27 24 30 31 34 33 31 26 24 15 25 25 22 18 9 9 10 10 11 12 9 9 10 9 13 14 17 14 8 10 11 11 8 14 13 17 15 15 11 8 8 6 6 5 6 7 9
9 8 12 2 27 25 25 26 28 29 31 31 30 31 27 18 28 23 21 21 20 11 16 17 13 11 8 9 10 11 11 12 19 13 10 8 7 9 10 12 13 11 12 12 10 7 9 6 8 8 8 9 9 9
3 6 4 27 23 20 20 22 23 23 23 24 24 23 23 32 30 22 27 24 18 13 20 16 13 10 11 13 17 15 21 18 13 9 8 8 8 8 12 8 12 12 8 7 6 6 7 8 10 10 10 10 9 8
9 17 27 22 20 17 15 18 21 24 28 27 28 34 35 30 25 30 23 22 21 20 14 15 13 17 19 17 18 18 19 15 13 13 6 3 8 9 6 7 7 7 6 7 9 9 11 11 10 12 11 11 10 8
7 28 23 17 15 16 19 22 25 26 25 24 29 32 36 22 21 26 25 21 18 13 11 7 12 17 18 17 15 16 17 13 10 10 10 5 5 7 4 7 6 7 9 9 10 12 14 13 14 13 12 11 10 9
23 24 20 19 20 20 24 25 27 27 27 28 29 30 25 22 26 25 24 20 13 10 5 9 18 20 16 14 12 12 9 8 8 10 9 7 5 5 7 7 6 9 11 10 10 12 16 15 14 14 13 11 10 9
26 21 20 18 21 21 24 25 24 25 24 24 31 30 20 23 29 24 21 15 11 8 6 12 18 15 17 15 14 10 7 4 5 8 5 7 8 9 9 7 8 10 13 13 11 12 16 17 17 15 13 11 10 10
25 23 19 21 25 25 25 25 25 25 26 28 16 22 25 30 25 14 9 7 7 6 7 10 8 10 16 13 12 6 6 5 4 2 4 2 6 10 10 10 11 12 15 14 12 12 13 15 16 15 14 11 10 10
26 23 20 22 22 24 25 30 31 31 26 18 23 27 28 13 7 6 10 8 6 5 10 6 12 16 18 15 7 6 5 6 3 5 5 3 9 10 12 13 13 12 14 15 12 11 13 15 16 14 12 12 11 12
23 21 17 19 24 26 28 29 29 27 20 26 29 18 11 5 5 6 8 9 7 11 17 16 17 18 14 7 5 5 5 4 4 5 4 8 7 10 10 9 9 9 12 12 10 10 11 12 12 11 12 12 13 13
20 17 16 22 28 26 25 26 27 28 31 24 11 9 5 5 6 8 12 11 15 20 19 17 13 10 10 8 4 4 4 3 5 3 5 5 4 5 6 9 9 8 11 10 8 7 10 11 11 9 9 11 12 13
21 21 23 24 29 28 28 27 27 25 24 12 8 5 5 7 12 15 12 11 19 19 15 17 11 8 9 4 4 4 4 3 4 3 1 4 3 3 6 9 11 12 10 8 8 11 11 11 11 10 9 11 12 13
24 23 20 20 25 27 26 26 24 18 11 6 5 11 9 10 11 13 13 13 17 16 15 13 6 5 4 2 3 4 3 2 4 2 1 2 1 1 4 6 10 12 11 10 10 12 13 13 12 12 12 13 14 15
22 20 21 19 20 24 24 24 21 12 4 6 10 9 7 7 11 16 19 21 20 18 14 7 4 3 5 3 2 3 4 3 1 0 1 2 3 2 5 7 9 11 11 11 12 13 13 13 14 14 14 15 16 15
19 20 19 19 18 20 26 20 18 6 8 13 12 6 6 7 14 21 25 21 16 16 12 8 5 6 5 5 4 3 5 4 3 3 3 3 5 4 4 6 7 8 9 10 11 11 12 14 14 14 15 16 16 15
17 17 17 20 19 22 19 17 10 9 11 12 11 10 8 10 14 22 19 14 10 10 10 7 3 8 5 6 5 6 4 4 3 3 3 4 4 3 4 4 5 6 9 10 9 10 12 13 14 14 15 16 16 14
20 21 19 18 19 18 11 10 8 8 9 10 9 11 12 15 15 19 15 10 6 8 9 6 7 8 7 7 7 7 6 6 5 4 3 2 2 2 3 4 5 7 9 10 12 13 13 13 14 16 18 17 16 14
19 18 18 17 13 10 9 8 7 9 11 12 13 13 12 13 12 12 10 9 8 9 8 8 4 5 9 11 8 7 6 5 4 3 2 1 0 0 1 3 5 6 7 9 12 14 13 12 14 16 16 14 13 13
13 11 11 10 7 8 7 8 11 11 12 16 14 13 12 10 9 7 7 6 7 8 7 7 8 7 9 10 8 7 6 3 2 1 1 1 3 4 3 4 4 5 6 6 8 10 11 12 14 14 14 14 15 14
11 10 9 9 6 4 9 14 13 13 9 12 12 10 8 7 6 6 4 4 4 5 4 4 7 9 9 10 10 10 9 9 6 5 4 5 6 6 6 6 5 5 6 6 7 9 9 11 13 14 14 15 15 15
9 7 5 3 3 4 12 9 11 10 11 10 8 7 7 6 5 3 3 2 4 5 6 6 5 7 10 13 14 14 12 11 11 11 10 10 10 9 8 7 7 7 7 7 8 8 9 11 13 14 14 14 14 14
4 4 4 4 4 6 7 9 10 9 9 10 8 6 5 3 2 3 3 2 3 3 5 8 8 8 8 10 13 15 17 15 14 13 13 12 12 11 9 9 9 9 8 8 8 9 9 11 13 13 13 13 13 12
2 3 3 3 5 4 3 7 7 8 10 9 8 6 5 3 2 2 2 1 3 5 5 7 9 10 10 9 10 11 14 13 13 13 12 13 12 12 11 11 10 9 9 9 9 9 10 11 12 12 12 11 12 12
3 3 5 2 1 5 5 5 7 8 9 8 7 5 4 2 2 2 1 3 4 3 3 4 4 6 6 6 7 8 11 11 11 12 12 12 12 11 10 9 9 9 9 8 8 9 10 10 11 11 12 13 12 13
2 0 4 3 0 5 6 4 2 4 10 8 9 6 3 6 4 3 2 2 0 0 1 2 3 2 1 1 3 4 6 7 7 8 9 9 9 9 7 7 8 8 8 7 8 9 9 9 10 11 13 14 14 14
7 6 7 4 3 5 7 5 4 6 8 9 9 8 7 6 5 4 2 3 2 1 0 2 2 2 1 1 2 3 4 4 4 5 6 6 6 7 6 6 7 8 7 7 8 9 9 9 11 12 14 15 15 14
14 11 10 8 7 5 8 7 6 7 8 9 9 9 8 7 8 7 5 3 3 2 1 1 2 4 5 5 4 4 4 6 6 6 6 7 8 7 7 7 7 8 8 9 9 9 10 11 12 13 14 14 14 13
9 6 11 10 11 10 7 7 8 10 9 8 8 9 10 10 9 8 7 6 7 8 9 8 8 8 9 9 8 7 8 9 10 9 9 9 9 9 9 8 8 10 10 10 10 10 11 11 12 13 13 13 13 13
14 10 9 11 13 12 12 11 10 10 12 12 12 11 11 12 12 12 13 14 15 15 15 15 15 16 16 15 14 14 15 15 14 13 12 11 11 10 10 11 12 11 11 11 11 11 11 12 12 12 12 12 12 12
5 8 14 13 13 13 12 14 15 16 16 16 17 17 17 17 19 18 17 18 18 17 17 18 19 20 20 20 19 18 18 17 16 15 15 15 14 13 13 13 12 12 12 12 11 12 12 12 12 11 11 11 11 12

GFSWCAN_700_spd_114.txt.gz
Wind_Speed
14 14 19 6 5 13 16 18 18 21 21 25 31 31 33 34 30 28 28 30 28 20 15 18 22 25 28 29 29 23 28 28 24 21 15 9 10 15 13 15 16 25 18 16 18 10 7 13 13 12 9 9 11 12
13 16 10 9 11 17 19 16 17 18 24 23 30 34 32 29 31 27 31 26 24 25 12 13 18 22 20 22 30 23 31 31 19 17 11 12 9 14 14 14 15 18 19 16 15 16 9 12 17 9 9 11 9 8
12 10 11 13 15 18 20 21 23 20 25 29 32 32 35 29 30 28 24 22 15 17 19 6 16 20 19 20 26 33 20 24 19 21 15 12 6 11 13 12 21 20 22 13 15 16 14 11 11 10 8 6 5 3
10 11 12 14 18 20 22 25 24 25 30 30 33 31 26 34 28 27 29 22 17 14 8 6 21 22 27 24 23 18 14 18 17 21 17 15 12 14 16 12 20 18 18 21 19 13 15 13 11 8 7 8 6 5
8 9 12 16 12 15 16 19 27 31 30 37 34 35 34 28 22 23 29 24 24 12 12 12 11 17 14 26 24 16 12 16 16 22 16 15 16 12 14 13 16 20 20 20 17 18 15 10 10 10 10 10 10 9
4 8 10 25 23 23 20 25 31 33 31 39 37 35 29 22 17 34 27 24 21 10 19 15 14 12 14 15 17 15 13 13 18 16 14 12 9 7 14 14 13 13 9 10 8 10 12 10 11 12 12 13 12 11
4 5 27 23 24 29 30 30 33 34 33 32 32 25 22 24 28 32 17 25 22 18 16 16 13 14 16 17 16 16 19 19 16 11 9 10 9 10 12 10 9 10 9 8 9 9 11 9 9 12 14 15 14 12
10 26 24 24 23 23 25 28 32 31 31 29 26 24 27 30 22 21 22 22 23 20 12 7 15 17 17 19 21 20 17 15 14 10 8 7 12 10 6 9 7 8 10 9 8 11 11 11 13 15 15 15 14 13
28 21 21 23 23 23 26 27 29 28 30 33 37 33 30 26 26 30 28 25 19 9 5 11 18 22 19 20 19 18 15 12 10 10 11 10 8 5 5 4 5 6 8 10 9 9 13 14 14 16 15 16 15 13
23 23 24 23 26 27 26 27 29 32 34 38 34 33 33 36 35 30 24 18 11 6 6 13 22 16 20 20 18 12 9 7 7 11 10 8 10 9 5 4 4 6 8 10 10 10 13 17 16 16 15 15 14 13
22 21 22 22 26 27 26 26 26 29 31 35 28 32 33 34 31 16 10 7 7 5 8 18 18 17 17 14 15 7 6 6 4 6 7 5 6 7 6 5 6 8 10 11 12 10 12 14 14 16 16 15 14 15
20 21 22 22 24 25 23 23 22 23 30 28 37 37 33 19 9 5 9 8 6 6 12 14 16 15 17 14 8 6 5 6 4 8 5 4 7 6 5 7 9 10 10 12 12 12 15 16 16 16 16 16 16 16
22 23 22 24 23 24 26 28 26 25 34 40 34 21 12 5 5 7 7 8 8 14 15 17 21 20 17 10 6 5 5 4 6 6 3 6 4 4 5 8 9 9 7 9 10 10 13 15 15 13 14 18 19 17
19 20 21 23 26 33 31 28 28 32 35 21 10 7 5 5 5 9 11 13 13 16 17 16 19 11 12 8 5 5 5 6 5 5 4 2 4 7 9 8 7 6 6 7 7 9 11 13 14 13 14 16 17 17
18 21 26 28 28 27 26 25 27 30 22 12 8 4 5 9 15 17 13 11 16 17 17 15 12 8 11 4 3 4 5 4 5 4 1 6 6 6 7 8 9 9 9 9 8 9 11 13 13 12 12 14 17 18
19 26 28 26 28 30 29 24 28 14 9 5 4 10 14 16 18 16 14 16 19 17 17 12 7 5 4 3 4 4 6 4 3 5 5 5 5 6 7 9 12 13 13 11 9 9 10 11 12 12 12 13 16 17
21 23 24 27 26 28 25 22 12 10 5 7 10 12 13 14 18 17 16 19 18 16 16 8 5 4 5 4 5 6 4 4 4 5 5 5 5 6 7 8 11 15 14 12 11 10 11 11 13 12 12 12 15 15
18 21 22 23 24 24 24 16 8 7 14 14 10 9 8 11 18 17 21 19 19 19 16 6 4 5 5 6 5 4 5 5 3 4 5 5 4 3 6 8 9 11 12 11 11 12 13 14 15 14 13 13 15 15
14 16 17 20 25 22 18 12 6 7 11 11 9 9 10 11 19 19 18 17 14 12 9 5 3 8 7 8 5 7 6 6 5 4 5 4 4 3 4 5 6 8 9 9 9 10 12 13 13 13 12 13 14 16
12 15 16 14 17 18 9 9 8 9 11 9 8 8 12 15 22 20 17 12 8 9 9 7 6 9 7 6 8 7 6 6 6 5 4 4 3 2 2 3 4 6 7 9 10 9 9 9 10 12 13 14 14 15
17 16 15 12 13 6 6 9 7 7 11 10 9 10 15 15 19 19 15 9 6 8 10 9 4 5 8 11 9 8 8 7 6 5 4 3 2 1 1 3 4 5 6 8 9 10 9 10 11 12 12 13 14 13
15 15 13 11 10 7 5 7 8 10 11 14 13 13 13 12 11 11 10 9 8 8 8 7 8 6 11 12 11 9 8 6 5 4 2 2 1 2 3 4 4 6 7 9 9 9 10 11 11 11 12 13 14 14
10 9 8 6 3 4 9 13 13 12 11 13 13 12 11 10 9 8 5 6 5 4 4 5 8 9 11 12 11 11 9 8 6 4 1 1 4 5 6 6 5 6 6 8 7 7 10 11 12 12 13 14 14 14
8 8 5 2 2 4 12 9 10 11 13 12 11 10 9 8 8 6 5 5 4 4 5 5 6 8 11 12 13 12 11 10 9 9 8 8 8 8 8 7 6 7 8 8 7 6 8 10 12 13 13 14 14 13
3 3 3 3 4 8 8 11 11 9 12 11 10 8 8 6 5 4 3 2 3 3 4 6 7 7 7 9 11 13 15 14 13 12 11 12 12 11 10 9 8 8 9 9 8 8 9 11 12 12 13 13 13 12
1 2 2 2 5 5 6 9 9 10 10 10 9 7 7 5 3 2 3 3 3 3 4 5 6 8 9 9 9 8 11 13 14 13 13 14 13 12 12 11 11 9 9 10 10 9 10 11 12 13 13 13 13 13
3 4 5 4 3 4 5 7 7 9 10 7 8 7 6 4 4 4 3 2 2 2 1 2 3 4 5 7 7 7 8 8 9 11 12 12 12 12 12 11 11 9 9 9 9 10 10 10 11 12 12 12 12 13
4 3 4 4 1 5 5 5 6 7 9 7 10 7 4 5 5 3 2 2 3 2 1 2 2 2 0 1 2 2 3 4 6 7 8 8 8 7 8 8 7 7 7 7 8 9 9 9 9 11 12 12 13 14
4 3 3 3 2 5 9 8 5 5 8 11 10 9 8 6 5 5 4 4 4 3 2 2 3 3 2 2 1 0 1 2 1 1 3 4 4 4 5 6 6 6 6 6 7 7 8 9 10 11 12 13 14 14
9 10 11 9 7 7 8 9 6 5 5 7 7 8 9 9 10 9 7 5 4 4 5 4 2 2 2 3 3 2 2 2 2 5 6 5 4 4 5 5 5 6 7 7 7 7 8 10 11 12 12 13 13 13
11 7 7 9 10 9 7 7 9 9 9 9 9 10 11 10 10 10 10 8 7 6 8 8 7 7 6 6 7 7 8 7 7 7 9 9 8 7 7 8 7 7 7 8 8 9 10 10 11 12 12 13 13 13
14 13 8 9 9 10 11 10 8 9 11 11 10 10 10 11 13 14 13 13 12 12 12 12 13 13 14 14 14 14 13 13 13 13 12 12 12 11 11 10 10 9 10 10 9 9 10 11 11 12 12 12 12 11
5 5 12 14 12 11 11 12 14 14 14 14 15 16 16 16 17 15 14 15 16 16 17 17 16 16 17 17 17 16 16 16 16 16 15 14 14 14 13 13 12 12 11 11 10 10 11 11 12 12 12 12 11 11

GFSWCAN_700_spd_117.txt.gz
Wind_Speed
13 14 15 19 22 26 24 26 28 31 32 32 33 34 34 34 35 35 30 30 29 29 31 25 28 30 26 27 26 19 18 31 23 22 21 12 10 17 14 16 23 27 19 17 17 8 10 11 16 17 11 8 8 10
12 16 16 14 19 11 15 18 21 24 28 30 32 33 33 33 35 34 32 30 29 31 17 21 18 24 26 24 24 24 23 19 22 28 9 15 10 17 17 14 20 21 26 19 17 14 13 7 17 15 16 11 11 13
14 13 14 16 13 10 15 19 17 20 22 23 28 33 35 33 34 34 34 28 27 27 28 24 22 25 32 25 26 24 26 23 24 14 14 10 10 16 17 19 21 21 19 19 19 19 17 23 14 16 12 12 11 9
11 13 14 16 17 17 19 19 13 19 20 22 24 32 33 33 34 33 28 29 28 20 22 18 24 24 21 17 17 27 23 25 16 15 14 12 11 10 15 13 20 21 21 22 23 20 15 19 18 15 13 12 9 7
10 11 13 15 18 20 24 25 22 21 19 25 27 32 34 31 33 32 27 26 23 18 12 11 8 14 26 21 24 33 19 14 17 17 18 14 14 12 13 14 16 19 22 21 19 19 16 11 14 13 12 12 10 7
6 13 17 20 13 20 34 33 29 26 25 26 30 27 27 27 32 30 28 25 20 11 14 9 11 15 25 23 15 9 11 16 15 17 18 15 13 14 12 15 17 17 19 17 17 18 15 18 15 14 14 13 12 11
7 6 11 19 20 18 20 32 35 29 31 30 30 27 31 28 29 29 30 26 21 13 12 13 10 16 19 20 18 14 13 14 14 14 15 12 15 9 8 9 11 13 13 11 11 10 11 13 12 15 16 16 16 15
20 17 16 25 20 21 26 33 34 31 34 35 36 33 27 20 25 26 23 25 18 16 10 6 9 17 17 17 14 13 14 16 15 11 11 12 12 10 5 11 7 10 11 11 11 11 11 11 14 15 16 17 16 14
18 23 23 28 27 27 32 35 39 40 36 34 29 24 28 30 24 26 29 25 19 10 5 7 17 18 20 19 19 17 16 13 11 10 10 11 13 6 7 7 8 8 8 9 9 9 11 12 12 14 16 17 16 14
21 23 22 22 24 30 33 32 31 31 31 29 32 30 27 21 30 27 25 19 10 6 5 11 18 14 21 21 19 15 11 10 7 10 9 9 10 9 6 6 6 6 7 7 8 10 10 12 14 15 16 16 16 16
23 25 24 24 24 25 25 26 28 31 38 36 34 29 26 34 30 18 9 6 6 5 8 15 16 20 20 19 19 8 7 6 5 7 8 4 5 11 9 8 7 7 7 8 10 11 12 12 14 16 17 17 17 17
23 24 24 24 25 28 28 28 31 34 34 31 30 35 36 23 10 5 8 8 5 5 11 19 16 18 19 14 9 5 5 6 4 8 6 3 7 9 10 9 8 7 7 9 11 12 12 16 18 18 18 18 19 19
22 21 23 24 22 23 25 26 30 24 31 33 39 26 19 5 4 7 8 7 7 14 19 23 20 19 16 9 5 5 5 4 5 7 4 6 5 10 10 7 4 3 4 4 8 11 13 15 18 19 18 19 21 22
21 21 23 22 20 22 22 22 27 43 35 25 13 8 5 4 5 7 11 12 14 17 17 18 19 13 13 9 5 4 5 6 5 4 4 5 6 6 5 4 2 2 1 5 8 9 11 13 14 16 18 18 20 23
20 19 21 24 23 24 21 26 39 32 16 9 7 4 5 6 10 14 13 11 16 17 15 17 15 8 13 4 4 4 6 4 5 4 3 6 4 3 4 5 5 4 5 8 7 7 10 12 14 15 16 17 18 20
18 22 26 23 23 24 25 24 22 14 7 4 3 7 11 13 16 15 13 17 23 19 16 14 6 5 5 3 4 4 4 3 3 7 4 3 4 6 7 8 10 9 9 11 10 8 8 9 11 11 12 14 16 19
20 20 21 21 23 25 24 21 15 9 4 5 7 11 15 16 15 15 17 20 19 19 17 6 5 4 5 4 5 4 3 4 5 3 4 5 7 7 7 9 12 13 13 13 10 7 8 9 10 12 11 11 15 18
19 16 19 20 20 23 23 6 7 6 15 13 10 12 18 17 13 15 15 15 15 15 13 6 3 4 3 4 5 5 6 5 3 3 4 5 3 4 6 8 9 13 15 13 11 10 10 10 11 12 12 12 14 17
17 18 18 20 19 19 10 5 6 8 11 8 10 11 14 15 13 14 16 14 11 10 11 5 2 5 5 4 5 5 7 5 4 3 4 6 4 3 5 5 7 9 11 12 12 11 11 11 11 11 12 11 12 15
12 14 19 18 17 13 8 6 3 4 9 8 6 7 9 16 13 13 12 12 11 10 9 6 6 3 6 5 7 6 5 5 4 4 4 4 4 4 5 5 4 5 7 9 9 9 8 8 9 10 11 11 11 13
13 13 13 18 18 10 6 8 8 6 8 8 8 9 9 18 16 15 14 11 7 8 9 9 6 5 7 8 8 6 6 6 6 5 6 6 5 3 2 1 3 4 5 6 7 8 9 10 12 12 12 12 15 16
14 11 9 11 7 3 4 7 7 6 7 9 10 12 13 14 16 16 14 10 8 7 5 7 8 5 9 12 10 8 7 6 5 5 4 3 2 1 1 2 3 5 6 7 7 9 11 12 13 14 15 16 16 16
8 7 6 5 3 2 6 8 10 9 7 11 11 11 11 11 11 11 8 9 7 5 5 6 8 8 11 12 12 10 9 7 5 4 2 2 1 2 3 4 5 6 7 7 8 9 10 11 12 13 14 16 18 16
5 4 3 2 2 3 10 6 7 10 11 12 10 9 10 10 10 8 6 6 6 5 4 4 5 8 9 11 12 12 12 11 10 10 9 9 8 7 6 6 7 7 8 7 8 9 9 10 11 12 13 14 15 16
1 2 1 2 3 8 8 9 9 8 11 11 10 8 8 7 7 5 5 5 5 5 5 6 6 7 7 10 12 13 14 15 14 13 12 13 12 11 11 10 9 9 9 9 9 9 10 11 11 12 13 13 13 13
2 1 1 1 4 7 7 10 8 8 10 9 7 7 7 5 4 3 6 5 4 4 4 4 5 8 9 9 9 9 10 12 14 15 16 16 14 13 13 12 11 11 11 12 11 11 11 11 12 12 12 13 13 13
2 1 3 2 2 3 6 9 9 10 10 8 9 8 7 4 5 5 5 5 3 3 3 3 3 4 6 8 9 9 9 9 9 10 11 12 12 13 12 12 11 11 10 10 10 11 11 11 11 12 13 12 12 13
4 4 3 3 1 4 5 7 9 9 9 8 10 9 5 5 5 6 6 5 4 4 4 2 2 2 1 2 3 5 6 6 7 8 8 9 10 10 10 9 8 8 8 8 9 9 10 10 11 12 13 13 14 15
6 5 3 3 3 3 7 8 7 8 10 11 12 11 7 6 6 6 6 6 6 7 5 4 3 3 3 2 2 1 1 1 1 1 2 3 4 6 6 6 6 6 6 7 8 9 10 11 12 12 13 14 15 15
9 8 9 10 9 8 8 9 8 7 7 9 11 11 12 12 10 9 8 7 6 6 6 6 4 3 3 2 1 1 2 3 4 4 2 2 4 4 5 6 6 6 6 7 7 9 10 11 12 12 13 13 14 15
13 11 11 9 10 10 9 8 11 10 9 8 9 10 10 12 14 14 13 12 10 9 8 9 7 6 6 5 4 4 6 6 8 8 8 8 8 8 8 7 7 7 7 8 8 9 10 10 11 12 12 13 14 14
8 13 13 11 8 9 11 11 10 11 12 12 11 10 10 12 14 14 13 13 13 12 10 10 10 11 11 12 12 13 13 13 13 13 13 12 12 12 11 10 9 9 9 9 10 10 10 11 11 12 13 13 13 13
9 6 7 14 14 11 11 13 14 14 13 13 14 14 14 15 15 15 13 13 14 14 14 15 15 15 15 15 15 15 15 16 16 16 15 15 15 14 13 12 12 11 11 11 11 11 12 12 12 13 13 13 13 13

GFSWCAN_700_spd_120.txt.gz
Wind_Speed
11 12 13 16 19 18 19 22 26 30 31 31 32 30 27 28 31 29 29 30 37 35 31 26 30 33 27 26 24 20 13 20 22 24 27 25 11 20 18 17 22 30 21 18 19 11 11 17 15 18 16 15 9 10
11 12 14 16 17 20 21 25 28 31 35 35 33 31 30 30 32 31 29 29 28 31 24 31 29 26 29 22 22 20 22 9 12 19 19 16 9 17 23 15 21 22 22 21 19 15 15 5 11 15 21 12 10 10
15 16 17 18 14 14 20 12 19 20 29 36 38 34 32 33 32 32 26 27 30 26 25 26 21 28 23 23 24 28 24 22 22 20 20 16 11 17 16 20 19 26 23 29 19 23 20 18 17 13 14 13 13 13
17 16 16 14 14 17 10 16 16 16 20 25 31 33 33 32 31 30 28 29 30 26 27 22 19 26 28 28 26 27 27 22 24 23 21 13 12 13 14 14 19 22 20 22 23 22 16 14 19 23 18 15 13 12
14 15 15 15 15 18 17 16 16 17 19 22 26 29 32 32 31 28 26 30 30 26 10 21 24 24 24 27 27 23 24 24 25 27 11 9 9 6 11 13 16 18 20 19 20 16 19 17 12 16 17 15 12 10
10 15 18 21 22 22 23 20 15 22 23 21 22 28 30 31 31 32 30 29 25 23 21 13 15 17 16 22 23 20 24 16 10 8 13 13 11 8 6 10 15 12 15 16 17 16 14 12 15 11 14 13 11 11
14 17 19 13 16 31 31 28 24 20 21 23 25 27 29 29 30 31 27 23 29 22 10 6 6 13 21 18 21 24 18 14 12 12 12 13 12 12 13 9 8 12 13 13 14 14 15 16 14 15 14 13 14 14
9 8 13 11 10 23 35 33 27 22 24 25 25 23 24 27 30 29 21 20 24 16 9 1 4 12 13 13 12 13 13 14 15 12 11 12 11 11 6 6 8 6 11 11 11 9 8 8 10 12 14 14 16 15
19 20 20 17 23 31 36 33 27 30 27 23 20 22 26 27 27 23 16 19 14 6 4 4 9 12 16 14 12 11 12 12 12 11 11 9 12 6 7 6 6 7 8 9 8 7 9 9 9 10 13 15 16 15
22 26 26 29 32 34 34 32 31 29 27 24 29 27 20 23 22 23 26 18 11 8 7 7 14 12 19 16 15 13 11 10 6 11 8 10 12 13 7 6 7 7 7 8 9 10 9 8 10 12 13 15 16 16
21 22 26 28 29 31 31 31 33 36 35 30 26 25 28 33 39 19 10 7 6 6 6 11 13 13 18 17 17 8 8 6 4 6 8 4 7 12 11 8 7 7 7 7 8 9 11 12 13 14 17 18 19 19
21 22 23 26 30 32 29 28 27 24 25 28 28 30 36 22 11 6 10 7 5 5 9 16 14 18 19 16 10 6 5 6 3 6 7 3 6 10 12 10 8 7 7 7 8 9 11 13 16 18 18 19 20 20
21 24 26 26 22 21 25 27 28 28 27 24 28 19 11 5 4 6 8 7 6 9 15 20 20 19 16 10 6 5 4 4 4 7 4 4 5 10 10 9 7 7 6 6 8 9 11 13 16 19 19 20 21 21
20 20 20 21 21 21 25 22 25 25 23 26 10 8 5 4 4 6 11 9 8 12 21 20 19 14 13 8 4 3 4 4 5 4 3 4 7 8 8 7 6 5 4 3 6 7 9 10 12 18 20 19 20 22
19 17 16 18 19 20 23 26 24 25 23 9 7 3 4 4 7 11 11 10 14 16 17 18 14 7 12 4 4 4 5 3 5 3 4 7 6 7 7 5 6 5 2 2 4 4 5 8 11 13 16 18 19 20
18 16 16 18 19 21 29 28 21 14 11 7 4 5 5 8 12 13 12 15 17 16 16 12 7 6 6 3 4 4 3 3 3 6 4 4 6 6 5 3 5 6 5 5 5 4 3 5 8 10 11 13 15 17
18 17 16 15 12 12 28 20 14 9 5 4 6 7 9 12 12 12 16 19 19 16 15 6 5 5 5 4 4 4 4 3 5 4 4 4 4 3 3 5 6 8 8 8 8 6 5 6 7 7 8 8 11 14
13 12 16 13 12 14 13 10 6 4 7 9 9 12 12 12 10 13 14 16 16 15 13 3 2 4 3 3 5 4 5 4 3 3 3 3 2 2 5 6 7 10 11 10 9 8 7 7 7 7 8 7 8 11
9 10 17 13 18 13 11 9 7 9 10 10 14 15 12 10 11 9 11 12 10 9 8 5 2 3 4 1 3 4 5 5 3 3 3 4 3 2 3 5 6 8 10 11 11 10 9 9 9 10 10 9 8 8
9 10 11 10 17 11 4 5 7 6 7 8 9 13 12 9 10 12 12 10 8 7 8 5 4 5 4 3 4 5 5 5 4 4 4 4 4 4 5 5 5 6 7 8 9 9 9 9 10 10 10 11 11 10
9 12 11 11 9 10 9 4 3 1 2 4 4 4 7 13 11 10 10 10 8 8 8 9 8 4 5 5 6 5 5 5 5 4 3 3 4 4 4 5 5 6 6 7 8 9 9 9 10 10 11 11 12 14
8 7 11 12 8 5 6 7 8 7 5 5 8 8 8 16 14 12 11 9 7 6 6 6 8 4 7 7 7 7 7 6 5 4 4 3 2 2 2 2 3 5 6 7 8 9 11 12 13 13 14 14 15 17
5 6 6 3 2 3 4 7 8 9 6 6 7 8 9 12 14 12 10 11 11 6 5 6 8 7 8 10 10 9 7 6 5 4 4 4 2 2 3 4 4 5 6 6 7 8 9 10 12 14 15 15 15 15
2 2 2 2 2 3 5 5 5 6 6 9 8 6 8 8 9 9 9 7 6 5 4 4 6 9 8 11 12 11 10 9 8 8 9 9 9 8 7 7 7 7 6 7 8 8 9 9 10 12 12 13 14 15
3 3 3 4 3 4 6 6 6 5 8 8 7 6 7 7 7 6 6 6 6 6 6 6 6 7 9 10 12 13 13 13 13 13 14 14 14 13 12 12 11 9 9 9 10 10 10 9 10 10 11 11 12 14
3 2 3 3 3 5 6 8 6 5 7 7 6 5 7 5 5 3 7 6 6 6 5 6 7 8 9 9 9 10 10 11 13 15 16 17 17 16 14 14 13 12 12 11 11 11 10 10 10 11 11 12 13 14
4 3 2 2 3 4 6 9 9 9 9 7 8 7 5 4 5 6 6 7 6 6 5 5 6 7 8 9 10 10 10 10 10 10 10 11 12 12 13 13 13 13 12 12 11 11 11 10 10 10 11 13 13 14
5 5 3 1 1 3 4 6 9 9 10 9 10 9 6 6 6 6 8 7 6 5 5 5 5 4 4 4 4 5 5 6 6 7 8 8 9 9 10 10 11 11 10 10 10 10 10 10 10 10 11 13 14 14
7 7 5 4 3 3 4 7 7 8 9 10 11 13 9 10 8 8 7 8 7 8 7 6 5 4 4 4 3 2 1 1 2 2 3 4 5 5 5 6 7 7 7 8 9 9 9 9 10 11 12 13 14 14
10 10 10 9 9 10 10 8 9 10 9 10 13 13 13 13 11 9 8 8 8 9 8 7 6 6 5 4 3 2 1 1 1 3 4 5 6 6 6 6 6 6 6 6 7 7 8 9 9 10 11 12 13 12
12 13 14 14 13 12 11 11 11 12 11 10 10 12 13 13 15 15 13 12 10 8 9 10 9 8 6 5 5 4 4 5 6 6 8 9 10 10 9 9 8 7 7 7 8 8 9 10 10 11 12 12 13 13
9 11 16 18 16 11 11 12 12 12 14 15 14 13 13 13 14 15 16 16 15 13 12 11 11 11 11 11 10 11 11 12 12 12 12 12 12 12 11 11 11 11 10 10 10 10 11 11 12 12 13 13 13 14
11 10 9 9 12 14 12 11 13 15 15 15 14 16 16 15 14 13 13 13 14 14 14 15 15 15 15 14 14 14 14 14 15 15 15 16 16 15 14 14 14 13 13 12 12 12 12 12 12 13 13 14 14 14

GFSWCAN_700_spd_123.txt.gz
Wind_Speed
10 10 11 11 12 12 12 9 8 11 20 21 25 27 27 26 23 22 22 28 32 28 17 17 22 26 27 32 22 20 16 19 17 19 24 21 19 19 19 25 29 22 14 15 15 10 14 18 18 20 19 17 14 12
10 10 11 10 11 12 11 12 14 18 22 24 26 26 26 24 22 21 22 23 26 26 27 28 19 23 29 27 24 24 23 12 14 16 20 16 19 18 23 17 26 23 28 25 18 16 20 11 11 10 12 17 12 10
12 12 12 12 13 14 16 16 18 21 25 30 31 32 30 28 24 22 20 21 23 24 23 30 30 22 25 28 30 30 27 18 21 16 17 17 16 17 25 31 22 26 22 27 22 25 22 17 16 15 13 13 13 16
18 18 17 17 18 18 18 12 13 9 25 29 32 33 32 29 26 24 23 21 22 21 20 18 32 27 21 29 27 29 24 23 22 24 21 23 24 22 23 23 24 25 23 26 28 27 23 21 16 19 19 18 14 13
20 21 19 18 16 12 12 12 16 13 15 19 28 34 33 30 27 21 20 20 22 24 6 15 25 28 19 20 24 24 22 22 28 24 24 27 23 9 12 13 17 18 20 20 23 18 18 16 15 15 17 20 19 15
15 17 17 18 18 16 16 15 15 10 12 17 22 31 33 31 27 23 22 25 27 25 25 13 14 19 23 25 23 27 27 33 30 27 28 32 8 5 5 8 14 16 15 15 17 15 14 13 13 18 13 14 14 13
12 17 20 23 24 22 18 17 14 18 17 17 21 25 30 31 30 28 21 22 24 23 27 9 11 15 19 18 16 23 27 21 23 25 7 4 7 10 13 15 14 12 14 14 15 15 14 14 14 13 14 13 13 14
7 11 11 15 25 29 25 20 22 19 21 19 22 25 25 25 24 28 23 15 27 23 22 10 6 4 20 28 29 24 22 23 20 9 8 10 9 11 9 9 6 6 10 13 11 10 9 9 12 16 16 14 13 14
12 4 6 12 18 30 32 27 22 23 23 24 25 26 25 24 26 25 22 9 11 16 6 5 6 9 19 24 25 22 16 12 8 12 12 7 12 9 9 7 5 7 7 8 9 8 7 7 7 9 11 13 15 15
19 22 24 29 36 37 33 29 27 27 28 27 26 26 27 24 20 18 18 13 12 6 5 3 7 9 15 20 16 11 11 12 9 12 9 13 12 13 11 7 7 8 8 8 8 9 8 7 8 8 10 12 14 14
26 31 34 36 34 31 30 30 31 29 24 23 22 19 21 22 19 11 10 9 6 5 5 5 10 14 16 15 17 8 8 7 5 7 10 5 9 14 11 9 6 6 6 7 7 8 9 9 10 11 12 15 17 18
30 29 29 29 29 29 29 28 28 25 28 26 21 24 25 24 8 5 8 6 5 4 6 11 12 15 17 15 8 4 6 6 3 7 8 4 7 10 13 11 8 7 7 7 7 7 8 10 11 13 15 16 18 19
26 28 27 28 28 28 29 29 28 27 22 21 28 6 9 7 5 7 8 7 6 6 12 17 16 17 15 9 6 5 4 4 4 7 4 5 6 10 11 10 8 7 6 6 7 8 9 9 11 13 17 18 19 21
21 23 23 22 21 23 24 25 22 19 20 19 7 7 4 5 5 7 12 9 6 11 18 17 18 12 13 9 4 4 5 4 5 4 4 6 8 10 10 8 7 6 5 5 5 5 5 6 8 11 16 19 19 21
16 15 15 20 20 19 21 20 18 14 20 8 6 4 2 5 6 9 9 9 11 18 21 18 15 7 12 4 4 4 4 3 5 4 5 8 8 9 8 7 8 7 5 4 1 2 4 5 6 9 12 16 17 18
17 15 15 16 17 15 13 15 13 13 10 7 5 6 5 7 8 10 10 13 16 19 18 12 8 4 6 4 4 4 3 4 4 6 6 7 8 8 7 7 8 7 6 4 3 2 1 2 3 4 7 10 12 14
13 14 16 16 19 18 22 17 13 11 4 5 7 6 8 10 11 12 15 16 17 18 15 5 5 5 4 4 4 5 5 3 5 9 6 6 7 7 8 7 7 9 8 6 4 2 2 2 1 2 4 6 8 10
10 10 9 12 12 17 13 13 7 5 7 8 7 6 10 10 9 14 16 17 16 16 10 3 2 5 3 4 5 5 5 6 6 5 5 6 6 7 7 7 7 9 9 8 6 5 4 3 2 3 5 6 5 7
7 8 9 15 14 10 11 7 4 5 7 8 8 8 11 10 10 13 13 13 11 10 11 5 2 2 4 2 3 6 7 6 5 5 6 7 6 4 4 5 6 7 8 9 9 8 7 7 7 7 8 8 7 7
8 10 6 14 12 10 7 6 8 7 9 12 11 11 10 8 9 10 10 11 9 9 8 6 5 5 3 4 5 6 7 6 6 5 6 7 5 4 4 4 4 4 6 7 8 9 8 8 8 9 10 10 10 10
7 7 4 7 11 5 3 4 5 5 5 5 6 7 7 8 9 10 11 10 8 7 6 7 8 6 4 5 6 6 6 6 6 6 6 5 4 3 4 4 5 5 6 6 7 8 9 9 10 10 10 11 11 12
4 4 5 3 3 3 5 5 3 4 2 3 5 5 5 10 10 9 8 10 8 6 6 7 7 6 6 7 7 7 7 7 7 6 6 5 4 2 1 2 3 5 6 7 8 9 9 10 11 12 12 13 13 14
5 5 3 2 2 2 4 6 6 6 4 4 6 6 7 10 14 11 8 10 11 9 7 5 5 7 7 9 9 8 7 7 7 7 6 5 4 2 0 2 3 4 5 6 7 8 9 10 11 12 13 13 13 13
2 2 2 2 2 3 3 5 6 6 7 8 7 6 6 9 10 13 11 10 8 7 6 5 6 9 8 9 11 10 10 9 8 7 6 5 5 5 6 6 6 6 6 7 8 9 9 9 10 11 11 12 12 13
5 3 3 4 4 3 3 4 4 5 4 6 6 4 6 7 8 7 7 6 7 7 7 6 6 6 8 9 10 12 12 12 12 11 11 11 11 11 11 11 11 10 10 10 11 10 10 10 10 10 10 10 11 12
2 2 2 3 3 3 3 4 4 4 3 6 5 4 7 6 5 4 7 8 7 7 7 7 7 8 8 8 9 10 11 12 12 13 13 14 15 16 15 15 14 14 13 12 12 12 12 11 11 10 10 9 10 11
4 4 4 4 4 4 4 6 7 6 6 5 6 6 6 4 5 6 6 8 9 7 7 7 7 7 7 8 9 9 9 9 9 9 9 9 9 10 11 11 12 12 13 13 13 12 12 12 11 11 10 10 10 11
6 4 5 3 2 3 4 4 7 7 8 8 9 8 5 6 6 6 7 8 8 7 7 6 6 6 6 6 6 6 6 6 6 5 5 5 5 6 7 8 8 9 10 10 10 9 9 10 10 10 10 10 10 10
6 6 6 5 4 4 4 5 7 8 9 9 10 12 12 11 10 8 8 8 9 9 8 7 6 6 6 5 5 5 4 3 2 1 1 2 2 3 4 5 6 6 6 7 7 7 7 7 8 9 9 10 11 11
10 9 10 10 9 10 10 8 9 9 11 11 11 13 14 14 11 10 10 10 9 9 9 9 8 8 7 7 6 5 4 4 3 2 2 2 2 3 4 5 6 7 7 6 6 6 5 6 6 7 8 9 9 10
10 11 13 15 16 16 14 14 13 13 14 13 12 11 12 14 15 15 14 12 11 11 11 11 11 10 9 7 6 5 5 5 4 4 5 6 7 8 9 9 9 8 7 7 7 7 7 8 8 9 9 10 10 11
10 10 11 13 15 17 17 16 14 13 14 14 15 14 14 14 14 14 13 16 16 15 13 12 13 14 13 12 11 10 10 10 10 11 11 11 11 11 11 11 11 11 10 10 10 10 10 10 10 10 11 11 12 12
11 11 12 14 14 11 9 13 15 14 14 15 16 16 17 18 16 14 12 13 15 17 17 16 16 16 16 15 14 13 13 12 13 13 13 14 14 14 14 13 13 12 12 12 12 12 12 12 11 12 12 12 12 13

GFSWCAN_700_spd_126.txt.gz
Wind_Speed
14 14 12 12 12 11 9 7 6 15 12 17 28 27 29 28 26 24 22 20 21 23 19 15 25 27 26 23 23 21 16 18 21 24 18 19 18 23 25 28 22 20 13 16 30 18 15 11 21 24 23 19 18 14
13 11 10 11 11 10 7 6 3 12 23 19 27 26 28 26 22 21 20 19 21 23 21 29 24 24 26 28 25 24 19 12 20 18 18 14 15 13 24 26 18 20 29 23 15 11 11 12 9 13 15 14 14 13
13 12 12 12 10 10 9 7 6 4 14 22 21 23 23 22 21 19 15 17 18 17 17 22 30 23 22 22 23 22 23 23 19 15 17 16 13 13 20 23 21 20 21 26 22 29 30 26 21 16 15 14 14 16
17 15 14 14 13 11 10 9 10 9 15 22 24 25 24 23 21 19 18 17 15 12 15 12 16 31 29 27 21 21 26 26 27 27 22 21 14 14 14 17 19 18 20 21 30 27 24 20 18 18 18 19 18 15
19 19 17 16 15 16 15 14 13 13 14 23 24 27 27 24 22 19 14 15 15 13 5 14 18 24 30 29 25 24 26 24 22 26 26 24 22 24 27 29 29 26 27 21 16 15 18 20 18 19 18 16 17 19
17 22 22 20 19 18 19 15 14 14 12 20 26 26 27 27 25 22 19 19 16 17 22 11 10 20 26 29 26 22 24 24 23 25 22 23 25 21 11 10 9 10 15 20 21 18 16 14 14 15 18 18 18 17
13 18 21 22 22 19 15 14 11 9 7 15 19 26 31 27 25 23 17 17 19 20 18 13 6 17 21 27 31 33 28 29 31 34 32 26 33 30 28 11 13 15 13 16 16 16 16 16 16 15 14 18 16 17
16 21 22 23 23 20 16 14 14 11 13 16 19 26 29 27 24 24 15 10 17 18 16 10 11 13 26 25 26 28 31 31 29 28 26 26 10 10 8 12 12 10 10 14 16 15 14 13 15 16 17 16 15 14
5 9 16 26 31 26 18 17 14 17 17 20 22 25 27 26 25 24 21 10 5 18 15 16 15 6 17 22 24 23 20 25 22 29 11 8 11 9 10 9 9 9 10 10 13 13 12 12 10 10 14 16 17 15
10 18 17 22 29 33 26 23 24 25 23 26 27 24 22 21 18 22 21 18 12 23 27 11 13 6 20 30 25 16 13 9 8 15 9 13 12 14 14 10 7 9 9 9 9 10 10 9 10 9 10 13 15 16
27 28 34 36 34 33 29 28 29 24 26 27 26 14 16 19 17 13 9 12 11 8 10 5 9 16 19 26 17 8 7 7 5 7 11 6 9 17 15 13 11 8 8 8 8 8 9 10 10 11 12 14 16 17
35 35 35 33 31 30 31 30 30 22 24 24 12 15 14 15 8 7 7 7 5 4 7 11 12 14 14 14 7 7 6 8 5 8 9 4 12 11 15 14 11 9 8 6 6 7 8 9 11 12 14 15 17 18
24 26 27 29 30 29 26 26 23 21 17 19 26 22 6 5 3 6 7 7 5 6 11 17 18 17 15 10 6 6 6 5 5 9 5 8 8 11 14 14 11 9 7 6 5 5 6 7 8 10 12 16 18 19
26 27 27 27 28 27 24 22 23 20 29 11 5 7 3 4 5 6 11 9 5 7 15 16 18 11 13 9 5 4 5 5 6 5 5 7 8 11 12 12 9 7 6 4 3 3 2 2 3 6 9 14 17 19
20 20 20 24 27 26 23 18 18 24 12 7 3 2 3 7 7 12 11 9 7 14 19 18 10 10 13 4 4 4 5 4 5 6 7 9 11 11 11 9 7 6 5 3 2 2 1 3 3 2 4 8 14 17
16 17 18 19 18 19 14 15 8 12 4 3 3 6 8 8 9 10 10 11 14 19 17 12 7 5 6 4 4 5 3 4 6 7 8 11 12 12 10 8 6 6 6 4 3 2 1 1 1 3 4 5 7 10
11 14 17 16 11 10 10 10 7 7 1 4 6 7 8 9 10 11 12 15 20 20 15 5 5 5 4 4 4 5 6 4 6 9 9 10 11 10 9 8 7 9 8 7 6 4 2 1 2 3 4 5 6 7
11 15 18 19 18 18 14 10 7 5 5 9 8 9 9 8 11 13 16 18 18 16 12 4 3 6 3 4 6 7 6 7 8 11 9 9 9 9 8 8 9 9 10 9 8 6 5 3 3 3 4 4 4 6
8 11 12 11 10 10 8 5 2 4 6 7 8 8 8 8 11 12 14 14 12 14 11 3 2 3 6 6 6 7 8 9 9 8 8 9 8 7 8 9 8 9 10 11 11 10 8 7 7 6 6 6 7 7
8 9 12 11 9 9 5 5 4 3 7 7 8 10 10 9 10 11 11 11 11 10 11 8 8 7 6 6 5 7 9 9 8 8 9 9 8 7 6 5 5 6 7 8 10 10 9 9 9 8 8 8 9 9
8 7 7 10 6 3 4 5 5 7 7 7 7 8 8 8 10 10 11 12 11 11 10 9 8 8 7 5 7 8 9 8 8 8 8 8 8 7 6 5 5 4 4 5 6 8 9 10 10 9 9 10 11 11
2 3 3 4 6 7 4 3 4 4 4 4 6 5 6 8 10 12 12 15 13 10 8 7 8 8 7 8 8 8 8 8 8 8 8 8 8 7 6 5 4 4 5 6 7 8 9 10 11 11 12 12 13 13
5 3 2 2 2 3 5 8 8 8 6 5 7 8 8 9 11 12 9 11 12 11 8 7 6 7 8 9 10 9 9 9 8 8 7 7 6 6 5 4 2 2 4 5 7 8 9 10 11 12 12 12 13 14
4 4 3 2 2 3 3 5 8 7 7 8 7 7 7 9 9 15 15 12 11 11 10 8 7 8 9 9 11 11 11 10 9 9 8 7 7 6 6 5 5 5 6 7 8 9 10 11 11 12 12 12 13 13
6 2 3 3 3 3 3 4 5 6 5 6 7 6 5 8 8 8 10 10 10 9 9 8 7 6 8 9 10 12 12 12 11 11 10 10 11 11 11 11 11 11 12 12 12 12 12 12 13 13 13 13 13 13
3 3 3 2 4 3 3 3 4 5 4 5 6 5 7 7 6 5 9 9 9 9 9 9 9 9 8 8 10 11 12 13 13 13 13 14 14 15 15 16 16 15 15 14 14 14 14 14 14 14 13 13 13 13
5 5 6 5 5 5 5 5 6 5 4 5 5 6 6 5 6 7 8 9 10 10 9 9 8 8 9 10 10 10 11 10 10 9 10 10 10 10 10 10 11 12 13 13 14 14 15 14 14 13 13 12 13 13
7 6 6 6 4 3 4 5 6 6 7 8 8 7 5 6 6 7 6 8 9 10 10 9 9 8 8 8 9 10 10 10 9 9 8 7 6 6 6 6 7 7 8 9 10 10 11 11 11 11 11 11 12 12
6 7 7 7 6 5 4 4 5 7 8 10 11 12 14 13 12 11 9 9 10 11 10 9 8 8 8 7 8 8 8 8 7 6 5 4 4 3 3 3 4 4 5 6 6 6 6 7 8 9 9 10 10 11
8 8 9 9 10 10 9 8 9 10 10 12 14 14 15 15 15 14 13 12 11 11 11 11 10 9 9 9 9 9 8 8 7 6 5 5 4 3 2 3 4 4 5 4 4 5 5 5 6 6 7 7 8 8
8 8 10 11 13 15 17 17 17 16 15 15 16 16 15 14 14 16 16 14 12 12 12 12 12 11 11 11 10 10 9 8 8 7 6 5 5 5 6 7 7 8 8 8 7 6 6 6 7 7 8 8 8 9
9 11 11 12 11 10 10 13 17 19 17 15 15 16 16 17 16 13 14 16 17 17 15 15 14 14 15 14 12 11 11 10 10 9 9 9 10 9 9 9 9 9 10 10 10 9 9 9 9 9 10 10 10 10
6 6 8 12 14 15 15 14 14 14 14 15 15 15 17 19 20 17 14 14 14 16 19 19 18 17 16 17 17 16 14 13 13 12 11 12 12 12 13 12 12 12 12 12 12 12 11 11 11 11 11 11 11 12

GFSWCAN_700_spd_129.txt.gz
Wind_Speed
23 16 18 17 17 16 15 15 16 17 13 15 26 28 20 20 24 29 34 46 33 29 27 29 22 26 23 19 21 16 16 18 16 18 16 21 17 21 24 27 23 17 13 19 24 29 23 22 12 25 26 24 20 18
12 13 13 13 13 12 10 12 11 10 16 20 24 21 20 30 27 32 31 29 25 24 24 25 26 23 17 22 19 17 14 11 12 13 18 16 21 19 23 32 25 33 32 29 22 16 14 10 15 16 13 23 23 23
15 13 13 13 11 9 9 8 9 6 21 27 19 20 25 24 21 18 23 24 22 22 20 22 24 22 17 21 24 20 19 15 15 15 18 16 18 17 24 26 23 25 23 26 18 24 26 26 22 18 20 22 20 17
13 15 14 13 11 10 8 5 6 7 19 22 24 24 24 24 21 19 18 17 17 13 8 7 14 19 20 21 17 20 18 20 18 22 18 16 19 17 18 19 18 16 17 24 24 22 25 26 19 17 22 21 21 22
11 16 15 14 12 11 8 8 6 4 4 18 22 24 21 20 18 16 13 11 9 11 9 9 11 14 18 26 27 24 18 17 20 24 27 25 20 22 21 20 21 19 24 24 24 21 20 14 15 17 21 21 22 23
11 17 18 16 13 10 9 8 7 8 8 15 18 20 20 20 19 15 12 11 14 17 14 7 13 18 24 30 29 25 23 23 22 25 23 21 20 19 13 17 16 14 15 14 18 20 19 16 16 16 17 19 20 20
14 18 21 18 15 13 12 11 12 10 10 17 18 19 19 18 16 14 10 8 11 9 10 6 5 13 22 28 26 25 26 25 20 26 29 26 19 21 23 29 24 11 13 18 18 18 19 19 17 16 17 18 18 22
16 19 21 23 20 17 16 15 15 14 11 17 20 21 19 19 19 14 13 8 13 14 9 4 8 7 20 26 27 26 23 23 24 26 27 26 24 26 20 17 18 22 19 16 16 15 16 15 16 16 17 18 19 19
14 25 26 25 24 23 19 16 14 14 14 19 22 24 24 21 20 20 15 7 7 13 7 13 16 6 18 24 28 27 25 26 26 28 27 22 22 18 20 12 9 12 12 13 12 15 15 14 15 16 15 17 19 18
14 18 31 29 27 23 17 17 16 13 14 18 21 25 24 23 20 17 18 22 7 16 18 23 20 17 12 28 31 24 21 19 14 25 16 24 14 14 14 13 11 9 10 10 10 10 12 13 12 12 12 13 17 18
18 19 27 35 28 19 16 17 21 20 21 23 24 20 15 16 15 15 11 7 7 8 17 23 27 22 15 26 22 18 14 12 10 11 20 12 14 19 18 17 15 13 10 9 9 9 10 11 11 11 12 12 13 14
28 29 32 35 31 25 24 25 25 24 24 24 20 16 20 18 8 9 8 8 8 9 5 8 10 7 25 27 17 9 5 7 3 10 7 6 13 15 15 17 14 11 9 8 8 8 9 9 9 11 12 12 13 14
28 29 29 28 25 24 25 23 20 19 20 14 25 18 12 10 8 7 7 5 5 4 8 10 11 13 14 6 7 5 5 4 4 8 5 9 13 12 11 12 13 11 10 8 7 7 7 8 8 9 10 11 13 14
24 27 28 26 23 25 27 15 14 13 13 6 6 5 4 4 5 7 9 10 5 6 10 13 15 7 8 7 5 4 5 5 5 5 6 10 9 9 11 13 13 11 8 7 5 4 4 4 4 5 7 9 11 14
21 24 24 23 23 22 19 16 17 24 7 3 3 4 7 7 8 10 10 10 8 11 13 14 9 7 11 2 3 3 5 4 5 6 13 8 9 11 12 11 10 9 8 6 4 3 1 1 1 1 2 4 7 11
16 17 18 18 18 17 18 17 16 8 5 0 2 1 6 4 8 10 8 8 11 14 15 11 5 5 6 2 3 4 3 4 9 8 8 9 12 13 12 10 8 8 7 6 4 3 2 1 1 1 2 4 6 8
10 15 16 17 14 11 12 8 7 6 0 2 4 5 4 5 7 9 9 12 16 17 14 5 4 4 3 3 3 5 7 7 6 7 8 10 11 11 10 9 8 7 7 6 5 5 4 3 4 4 5 5 7 8
7 8 12 10 8 9 8 6 3 3 2 7 8 8 7 7 9 9 10 16 18 15 13 4 3 5 3 3 5 8 7 7 7 9 9 10 11 11 10 9 8 6 8 8 8 7 6 5 5 5 5 5 6 7
9 10 11 12 12 11 6 5 4 4 5 6 6 6 5 7 9 10 13 17 15 14 12 5 4 4 8 9 9 8 8 8 9 10 10 10 10 10 9 8 7 7 8 9 10 10 9 8 8 7 7 7 7 7
8 10 10 9 9 9 6 5 6 5 7 8 7 8 7 8 9 11 13 13 12 11 13 12 10 9 10 9 8 8 8 10 10 10 10 10 10 9 7 6 6 6 7 8 10 10 11 10 10 9 9 9 8 8
6 8 12 9 7 5 6 5 7 5 7 8 8 10 10 8 9 12 12 12 13 14 14 13 12 12 10 9 7 7 8 10 10 9 10 10 10 9 8 8 7 6 6 6 7 8 9 10 10 10 10 10 9 9
3 6 6 8 10 9 6 5 5 6 7 6 8 8 9 10 12 14 13 14 16 16 14 12 11 11 11 9 8 9 9 10 9 9 9 9 9 9 8 8 8 7 7 7 8 8 9 10 10 11 11 11 12 12
1 1 4 7 6 6 8 12 11 10 8 8 9 10 11 11 13 12 15 16 17 17 15 12 10 10 9 10 10 10 10 11 11 10 9 9 8 8 8 7 6 6 7 7 7 8 9 10 11 12 12 13 13 13
6 6 5 4 5 5 6 7 10 13 13 13 12 12 12 13 12 14 17 18 13 14 15 13 12 10 9 10 12 12 12 12 11 11 10 10 9 9 8 8 7 8 8 8 9 9 10 11 12 13 13 13 14 14
9 4 4 6 5 5 6 8 9 10 11 11 12 12 9 9 11 13 13 14 13 14 13 12 11 9 9 12 13 14 14 14 13 12 12 11 11 11 12 12 12 13 13 13 14 14 14 14 14 14 15 15 15 15
6 6 6 5 5 5 5 6 6 9 9 8 7 9 8 10 9 6 10 9 9 10 11 12 12 11 10 10 12 13 15 16 15 15 15 14 14 15 15 16 17 17 18 18 17 17 17 16 16 16 16 16 15 15
8 8 9 10 9 8 7 8 9 8 8 6 8 9 7 6 6 9 8 9 10 11 12 12 12 12 13 13 13 13 13 15 16 17 15 15 15 15 15 15 15 14 14 14 15 15 16 16 16 16 15 15 14 14
9 8 10 9 9 8 7 7 7 8 9 11 11 8 6 7 8 8 7 7 10 11 13 13 12 12 12 13 12 13 14 14 15 14 13 12 12 11 10 10 9 9 9 10 10 11 11 12 12 12 12 13 13 13
9 9 10 10 10 9 8 7 7 8 8 10 12 14 17 16 14 13 11 10 9 11 12 13 13 12 12 12 12 12 13 13 13 13 12 11 10 9 8 7 6 6 6 6 7 7 7 7 7 8 9 9 10 11
9 10 11 11 12 12 12 11 11 11 12 12 14 15 17 18 18 19 19 18 16 14 14 14 14 13 13 12 12 12 13 13 12 12 11 10 9 8 7 6 5 5 4 5 5 5 6 6 6 6 6 7 7 8
10 10 11 12 14 15 15 17 18 19 20 19 19 18 17 19 18 18 18 18 18 16 16 15 14 14 14 14 13 14 14 13 13 12 11 10 9 8 7 7 7 7 7 8 8 8 8 8 7 7 7 8 8 9
9 10 12 13 15 13 13 13 14 15 16 17 20 21 20 20 21 20 15 17 18 19 18 16 15 15 15 16 16 15 15 14 13 12 11 11 10 10 10 10 9 9 9 9 10 10 10 10 10 10 10 10 10 10
5 7 8 10 11 12 12 14 18 20 19 17 15 15 17 19 23 20 14 17 16 17 18 20 20 19 18 19 18 18 17 15 14 14 14 13 13 12 12 12 12 13 13 12 12 12 12 12 12 12 12 11 11 11